[[{"header":{"parameterUnit":"m.s-1","parameterCategory":1,"la1":30.6,"la2":29.2853,"lo1":-89.7004,"lo2":-87.6739,"dy":0.0162,"dx":0.0183,"nx":112,"ny":82,"refTime":"2023-06-15T00:00:00:Z","depth":0,"parameterNumber":2,"parameterNumberName":"U-component_of_WINDS"},"data":[0.0,0.0,0.0,0.0,0.0,0.0,0.0,0.0,0.0,0.0,0.0,0.0,0.0,0.0,0.0,0.0,0.0,0.0,0.0,0.0,0.0,0.0,0.0,0.0,0.0,0.0,0.0,0.0,0.0,0.0,0.0,0.0,0.0,0.0,0.0,0.0,0.0,0.0,0.0,0.0,0.0,0.0,0.0,0.0,0.0,0.0,0.0,0.0,0.0,0.0,0.0,0.0,0.0,0.0,0.0,0.0,0.0,0.0,0.0,0.0,0.0,0.0,0.0,0.0,0.0,0.0,0.0,0.0,0.0,0.0,0.0,0.0,0.0,0.0,0.0,0.0,0.0,0.0,0.0,0.0,0.0,0.0,0.0,0.0,0.0,0.0,0.0,0.0,0.0,0.0,0.0,-5.493,-5.5048,-5.5139,-5.5169,-5.5324,-5.5448,-5.5448,0.0,0.0,0.0,0.0,0.0,0.0,0.0,0.0,0.0,0.0,0.0,0.0,0.0,0.0,0.0,0.0,0.0,0.0,0.0,0.0,0.0,0.0,0.0,0.0,0.0,0.0,0.0,0.0,0.0,0.0,0.0,0.0,0.0,0.0,0.0,0.0,0.0,0.0,0.0,0.0,0.0,0.0,0.0,0.0,0.0,0.0,0.0,0.0,0.0,0.0,0.0,0.0,0.0,0.0,0.0,0.0,0.0,0.0,0.0,0.0,0.0,0.0,0.0,0.0,0.0,0.0,0.0,0.0,0.0,0.0,0.0,0.0,0.0,0.0,0.0,0.0,0.0,0.0,0.0,0.0,0.0,0.0,0.0,0.0,0.0,0.0,0.0,0.0,0.0,0.0,0.0,0.0,0.0,0.0,0.0,0.0,0.0,0.0,0.0,0.0,0.0,0.0,0.0,0.0,-5.4557,-5.4811,-5.4842,-5.4934,-5.5022,-5.5053,-5.5144,-5.5229,0.0,0.0,0.0,0.0,0.0,0.0,0.0,0.0,0.0,0.0,0.0,0.0,0.0,0.0,0.0,0.0,0.0,0.0,0.0,0.0,0.0,0.0,0.0,0.0,0.0,0.0,0.0,0.0,0.0,0.0,0.0,0.0,0.0,0.0,0.0,0.0,0.0,0.0,0.0,0.0,0.0,0.0,0.0,0.0,0.0,0.0,0.0,0.0,0.0,0.0,0.0,0.0,0.0,0.0,0.0,0.0,0.0,0.0,0.0,0.0,0.0,0.0,0.0,0.0,0.0,0.0,0.0,0.0,0.0,0.0,0.0,0.0,0.0,0.0,0.0,0.0,0.0,0.0,0.0,0.0,0.0,0.0,0.0,0.0,0.0,0.0,0.0,0.0,0.0,0.0,0.0,0.0,0.0,0.0,0.0,0.0,0.0,0.0,0.0,0.0,0.0,0.0,0.0,-5.4494,-5.456,-5.4623,-5.4717,-5.4811,-5.4904,-5.4961,-5.5083,-5.5199,-5.5259,0.0,0.0,0.0,0.0,0.0,0.0,0.0,0.0,0.0,0.0,0.0,0.0,0.0,0.0,0.0,0.0,0.0,0.0,0.0,0.0,0.0,0.0,0.0,0.0,0.0,0.0,0.0,0.0,0.0,0.0,0.0,0.0,0.0,0.0,0.0,0.0,0.0,0.0,0.0,0.0,0.0,0.0,0.0,0.0,0.0,0.0,0.0,0.0,0.0,0.0,0.0,0.0,0.0,0.0,0.0,0.0,0.0,0.0,0.0,0.0,0.0,0.0,0.0,0.0,0.0,0.0,0.0,0.0,0.0,0.0,0.0,0.0,0.0,0.0,0.0,0.0,0.0,0.0,0.0,0.0,0.0,0.0,0.0,0.0,0.0,0.0,0.0,0.0,0.0,0.0,0.0,0.0,0.0,0.0,0.0,0.0,0.0,0.0,0.0,0.0,0.0,0.0,-5.4494,-5.4494,-5.4494,-5.4655,-5.4717,-5.4717,-5.4807,-5.4961,-5.5079,-5.5139,0.0,0.0,0.0,0.0,0.0,0.0,0.0,0.0,0.0,0.0,0.0,0.0,0.0,0.0,0.0,0.0,0.0,0.0,0.0,0.0,0.0,0.0,0.0,0.0,0.0,0.0,0.0,0.0,0.0,0.0,0.0,0.0,0.0,0.0,0.0,0.0,0.0,0.0,0.0,0.0,0.0,0.0,0.0,0.0,0.0,0.0,0.0,0.0,0.0,0.0,0.0,0.0,0.0,0.0,0.0,0.0,0.0,0.0,0.0,0.0,0.0,0.0,0.0,0.0,0.0,0.0,0.0,0.0,0.0,0.0,0.0,0.0,0.0,0.0,0.0,0.0,0.0,0.0,0.0,0.0,0.0,0.0,0.0,0.0,0.0,0.0,0.0,0.0,0.0,0.0,0.0,0.0,0.0,0.0,0.0,0.0,0.0,0.0,0.0,0.0,0.0,0.0,-5.4494,-5.4494,-5.4494,-5.4494,-5.4494,-5.4494,-5.4526,-5.4623,-5.4811,-5.493,0.0,0.0,0.0,0.0,0.0,0.0,0.0,0.0,0.0,0.0,0.0,0.0,0.0,0.0,0.0,0.0,0.0,0.0,0.0,0.0,0.0,0.0,0.0,0.0,0.0,0.0,0.0,0.0,0.0,0.0,0.0,0.0,0.0,0.0,0.0,0.0,0.0,0.0,0.0,0.0,0.0,0.0,0.0,0.0,0.0,0.0,0.0,0.0,0.0,0.0,0.0,0.0,0.0,0.0,0.0,0.0,0.0,0.0,0.0,0.0,0.0,0.0,0.0,0.0,0.0,0.0,0.0,0.0,0.0,0.0,0.0,0.0,0.0,0.0,0.0,0.0,0.0,0.0,0.0,0.0,0.0,0.0,0.0,0.0,0.0,0.0,0.0,0.0,0.0,0.0,0.0,0.0,0.0,0.0,0.0,0.0,0.0,0.0,0.0,0.0,0.0,0.0,-5.4908,-5.5012,0.0,-5.4908,-5.5012,-5.4563,-5.4494,-5.4592,-5.478,0.0,0.0,0.0,0.0,0.0,0.0,0.0,0.0,0.0,0.0,0.0,0.0,0.0,0.0,0.0,0.0,0.0,0.0,0.0,0.0,0.0,0.0,0.0,0.0,0.0,0.0,0.0,0.0,0.0,0.0,0.0,0.0,0.0,0.0,0.0,0.0,0.0,0.0,0.0,0.0,0.0,0.0,0.0,0.0,0.0,0.0,0.0,0.0,0.0,0.0,0.0,0.0,0.0,0.0,0.0,0.0,0.0,0.0,0.0,0.0,0.0,0.0,0.0,0.0,0.0,0.0,0.0,0.0,0.0,0.0,0.0,0.0,0.0,0.0,0.0,0.0,0.0,0.0,0.0,0.0,0.0,0.0,0.0,0.0,0.0,0.0,0.0,0.0,0.0,0.0,0.0,0.0,0.0,0.0,0.0,0.0,0.0,0.0,0.0,0.0,0.0,0.0,-5.5219,-5.5667,-5.5805,0.0,-5.5701,-5.5805,-5.5288,-5.5219,-5.5182,-5.5067,0.0,0.0,0.0,0.0,0.0,0.0,0.0,0.0,0.0,0.0,0.0,0.0,0.0,0.0,0.0,0.0,0.0,0.0,0.0,0.0,0.0,0.0,0.0,0.0,0.0,0.0,0.0,0.0,0.0,0.0,0.0,0.0,0.0,0.0,0.0,0.0,0.0,0.0,0.0,0.0,0.0,0.0,0.0,0.0,0.0,0.0,0.0,0.0,0.0,0.0,0.0,0.0,0.0,0.0,0.0,0.0,0.0,0.0,0.0,0.0,0.0,0.0,0.0,0.0,0.0,0.0,0.0,0.0,0.0,0.0,0.0,0.0,0.0,0.0,0.0,0.0,0.0,0.0,0.0,0.0,0.0,0.0,0.0,0.0,0.0,0.0,0.0,0.0,0.0,0.0,0.0,0.0,0.0,0.0,0.0,0.0,0.0,0.0,0.0,0.0,0.0,0.0,-5.6702,-5.6805,-5.6805,-5.6805,-5.6805,-5.6805,-5.6805,-5.6805,-5.646,0.0,0.0,0.0,0.0,0.0,0.0,0.0,0.0,0.0,0.0,0.0,0.0,0.0,0.0,0.0,0.0,0.0,0.0,0.0,0.0,0.0,0.0,0.0,0.0,0.0,0.0,0.0,0.0,0.0,0.0,0.0,0.0,0.0,0.0,0.0,0.0,0.0,0.0,0.0,0.0,0.0,0.0,0.0,0.0,0.0,0.0,0.0,0.0,0.0,0.0,0.0,0.0,0.0,0.0,0.0,0.0,0.0,0.0,0.0,0.0,0.0,0.0,0.0,0.0,0.0,0.0,0.0,0.0,0.0,0.0,0.0,0.0,0.0,0.0,0.0,0.0,0.0,0.0,0.0,0.0,0.0,0.0,0.0,0.0,0.0,0.0,0.0,0.0,0.0,0.0,0.0,0.0,0.0,0.0,0.0,0.0,0.0,0.0,0.0,0.0,0.0,0.0,0.0,-5.6771,-5.7253,-5.7391,-5.6874,-5.7253,-5.7357,-5.684,-5.6805,-5.6702,-5.646,0.0,0.0,0.0,0.0,0.0,0.0,0.0,0.0,0.0,0.0,0.0,0.0,0.0,0.0,0.0,0.0,0.0,0.0,0.0,0.0,0.0,0.0,0.0,0.0,0.0,0.0,0.0,0.0,0.0,0.0,0.0,0.0,0.0,0.0,0.0,0.0,0.0,0.0,0.0,0.0,0.0,0.0,0.0,0.0,0.0,0.0,0.0,0.0,0.0,0.0,0.0,0.0,0.0,0.0,0.0,0.0,0.0,0.0,0.0,0.0,0.0,0.0,0.0,0.0,0.0,0.0,0.0,0.0,0.0,0.0,0.0,0.0,0.0,0.0,0.0,0.0,0.0,0.0,0.0,0.0,0.0,0.0,0.0,0.0,0.0,0.0,0.0,0.0,0.0,0.0,0.0,0.0,0.0,0.0,0.0,0.0,0.0,0.0,0.0,0.0,0.0,0.0,-5.7633,-5.8081,-5.8185,-5.7736,-5.8081,-5.815,-5.7736,-5.7667,-5.7564,-5.7253,0.0,0.0,0.0,0.0,0.0,0.0,0.0,0.0,0.0,0.0,0.0,0.0,0.0,0.0,0.0,0.0,0.0,0.0,0.0,0.0,0.0,0.0,0.0,0.0,0.0,0.0,0.0,0.0,0.0,0.0,0.0,0.0,0.0,0.0,0.0,0.0,0.0,0.0,0.0,0.0,0.0,0.0,0.0,0.0,0.0,0.0,0.0,0.0,0.0,0.0,0.0,0.0,0.0,0.0,0.0,0.0,0.0,0.0,0.0,0.0,0.0,0.0,0.0,0.0,0.0,0.0,0.0,0.0,0.0,0.0,0.0,0.0,0.0,0.0,0.0,0.0,0.0,0.0,0.0,0.0,0.0,0.0,0.0,0.0,0.0,0.0,0.0,0.0,0.0,0.0,0.0,0.0,0.0,0.0,0.0,0.0,0.0,0.0,0.0,0.0,0.0,0.0,-5.8909,-5.9012,-5.9012,-5.9012,-5.9012,-5.9012,-5.9012,-5.9012,-5.8737,-5.8047,0.0,0.0,0.0,0.0,0.0,0.0,0.0,0.0,0.0,0.0,0.0,0.0,0.0,0.0,0.0,0.0,0.0,0.0,0.0,0.0,0.0,0.0,0.0,0.0,0.0,0.0,0.0,0.0,0.0,0.0,0.0,0.0,0.0,0.0,0.0,0.0,0.0,0.0,0.0,0.0,0.0,0.0,0.0,0.0,0.0,0.0,0.0,0.0,0.0,0.0,0.0,0.0,0.0,0.0,0.0,0.0,0.0,0.0,0.0,0.0,-5.9081,0.0,0.0,0.0,0.0,0.0,0.0,0.0,0.0,0.0,0.0,0.0,0.0,0.0,0.0,0.0,0.0,0.0,0.0,0.0,0.0,0.0,0.0,0.0,0.0,0.0,0.0,0.0,0.0,0.0,0.0,0.0,0.0,0.0,0.0,0.0,0.0,0.0,0.0,0.0,0.0,0.0,-5.8978,-5.9012,-5.9012,-5.9012,-5.9012,-5.9012,-5.9012,-5.9012,-5.8944,-5.8806,-5.8771,0.0,0.0,0.0,0.0,0.0,0.0,0.0,0.0,0.0,0.0,0.0,0.0,0.0,0.0,0.0,0.0,0.0,0.0,0.0,0.0,0.0,0.0,0.0,0.0,0.0,0.0,0.0,0.0,0.0,0.0,0.0,0.0,0.0,0.0,0.0,0.0,0.0,0.0,0.0,0.0,0.0,0.0,0.0,0.0,0.0,0.0,0.0,0.0,0.0,0.0,0.0,0.0,0.0,0.0,0.0,0.0,0.0,0.0,0.0,0.0,-5.9481,0.0,0.0,0.0,0.0,0.0,0.0,0.0,0.0,0.0,0.0,0.0,0.0,0.0,0.0,0.0,0.0,0.0,0.0,0.0,0.0,0.0,0.0,0.0,0.0,0.0,0.0,0.0,0.0,0.0,0.0,0.0,0.0,0.0,0.0,0.0,0.0,0.0,0.0,0.0,0.0,-5.9012,-5.9012,-5.9012,-5.9012,-5.9357,-5.9426,-5.9047,-5.9357,-5.9426,-5.9047,-5.9012,0.0,0.0,0.0,0.0,0.0,0.0,0.0,0.0,0.0,0.0,0.0,0.0,0.0,0.0,0.0,0.0,0.0,0.0,0.0,0.0,0.0,0.0,0.0,0.0,0.0,0.0,0.0,0.0,0.0,0.0,0.0,0.0,0.0,0.0,0.0,0.0,0.0,0.0,0.0,0.0,0.0,0.0,0.0,0.0,0.0,0.0,0.0,0.0,0.0,0.0,0.0,0.0,0.0,-6.1427,-6.1496,-6.1496,-6.1634,-6.1703,-6.1667,-6.0792,-6.0359,-6.0235,0.0,0.0,0.0,0.0,0.0,0.0,0.0,0.0,0.0,0.0,0.0,0.0,0.0,0.0,0.0,0.0,0.0,0.0,0.0,0.0,0.0,0.0,0.0,0.0,0.0,-6.1289,-6.0944,0.0,0.0,0.0,0.0,0.0,0.0,0.0,0.0,0.0,0.0,0.0,0.0,-5.9185,-5.9219,-5.9254,-5.9392,-6.0013,-6.0116,-5.9461,-6.0013,-6.0116,-5.9461,-5.9288,-5.9219,0.0,0.0,0.0,0.0,0.0,0.0,0.0,0.0,0.0,0.0,0.0,0.0,0.0,0.0,0.0,0.0,0.0,0.0,0.0,0.0,0.0,0.0,0.0,0.0,0.0,0.0,0.0,0.0,0.0,0.0,0.0,0.0,-5.1681,-5.1747,0.0,0.0,0.0,0.0,0.0,0.0,0.0,0.0,0.0,0.0,0.0,0.0,0.0,-6.0482,-5.9742,-6.0654,-6.122,-6.1323,-6.2013,-6.2324,-6.2358,-6.2979,-6.3289,-6.3253,-6.2395,0.0,-6.1074,-6.031,0.0,0.0,0.0,0.0,0.0,0.0,0.0,0.0,0.0,0.0,0.0,0.0,0.0,0.0,0.0,0.0,0.0,0.0,0.0,0.0,0.0,0.0,-6.1289,-6.1289,-6.1289,-6.1254,0.0,-6.0496,-5.984,-5.915,-5.9012,0.0,0.0,0.0,0.0,0.0,0.0,0.0,-5.9944,-6.0047,-6.0289,-6.0944,-6.1082,-6.1116,-6.1013,-6.1082,-6.1116,-6.1013,-6.0392,-6.0047,-6.0047,-5.9288,0.0,0.0,0.0,0.0,0.0,0.0,0.0,0.0,0.0,0.0,0.0,0.0,0.0,0.0,0.0,0.0,0.0,0.0,0.0,0.0,0.0,0.0,0.0,0.0,0.0,0.0,0.0,0.0,0.0,-5.2799,-5.3019,-5.309,-5.4043,-5.5004,0.0,0.0,0.0,0.0,0.0,0.0,0.0,0.0,0.0,-5.7877,-5.9582,-6.0363,-5.9962,-6.077,-6.1645,-6.2599,-6.2944,-6.3117,-6.3117,-6.3427,-6.36,-6.36,-6.3193,-6.289,-6.2527,-6.1643,-6.1529,-6.19,0.0,0.0,0.0,0.0,-6.2933,-6.275,-6.2186,-6.1562,0.0,-6.1177,0.0,0.0,0.0,0.0,0.0,0.0,0.0,0.0,0.0,0.0,-6.2307,-6.2417,-6.2417,-6.235,-6.2048,-6.1703,-6.1254,0.0,-6.0289,-6.0289,-6.0289,0.0,0.0,0.0,0.0,0.0,-6.0771,-6.0806,-6.0944,-6.1254,-6.1703,-6.1772,-6.1358,-6.1703,-6.1772,-6.1323,-6.1013,-6.0634,-6.022,-5.9875,-5.9323,0.0,0.0,0.0,0.0,0.0,0.0,0.0,0.0,0.0,0.0,0.0,0.0,0.0,0.0,0.0,0.0,0.0,0.0,0.0,0.0,0.0,0.0,0.0,0.0,0.0,0.0,0.0,0.0,-5.3119,-5.3298,-5.3353,-5.4162,-5.5032,0.0,0.0,0.0,0.0,0.0,0.0,-5.7151,-5.8688,-5.8966,-5.7676,-5.9518,-6.0511,-6.0531,-6.1278,-6.2313,-6.36,-6.36,-6.3703,-6.3876,-6.3876,-6.3979,-6.4186,-6.4186,-6.4048,-6.3804,-6.277,-6.2436,-6.2668,-6.3083,-6.338,-6.36,-6.3489,-6.334,-6.3189,-6.2923,-6.2274,-6.1642,-6.211,0.0,-6.1324,-6.1487,0.0,0.0,0.0,0.0,-6.1963,-6.1923,-6.243,-6.3038,-6.3227,-6.3302,-6.3202,-6.2873,-6.2772,-6.2496,0.0,-6.1289,-6.1289,-6.1289,0.0,0.0,0.0,0.0,-6.1358,-6.1565,-6.1599,-6.1668,-6.1875,-6.2427,-6.253,-6.1944,-6.2427,-6.253,-6.1944,-6.153,-6.1151,-6.0806,-6.0392,-5.9909,-5.9323,0.0,0.0,0.0,0.0,0.0,0.0,0.0,0.0,0.0,0.0,0.0,0.0,0.0,0.0,0.0,0.0,0.0,0.0,0.0,0.0,0.0,0.0,0.0,0.0,0.0,0.0,0.0,0.0,0.0,-5.1162,-5.2501,0.0,0.0,0.0,0.0,-5.6839,-5.7479,-5.7863,-5.7863,-5.884,-5.9358,-5.9276,-6.0979,-6.2015,-6.2172,-6.2859,-6.3343,-6.36,-6.36,-6.3979,-6.4634,-6.4634,-6.5048,-6.5773,-6.5773,-6.5324,-6.449,-6.2935,-6.2817,-6.3454,-6.2668,-6.2893,-6.3563,-6.3189,-6.3038,-6.2962,-6.2576,-6.2381,-6.2223,-6.135,-6.116,-6.1324,-6.1324,-6.2043,0.0,0.0,-6.277,-6.2885,-6.2693,-6.2808,-6.3038,-6.3227,-6.3302,-6.334,-6.3494,-6.3531,-6.3082,0.0,-6.1289,-6.1289,-6.1289,0.0,-6.1289,-6.1289,-6.1289,-6.1565,-6.2324,-6.2427,-6.2703,-6.3393,-6.3531,-6.3531,-6.3496,-6.3531,-6.3531,-6.3496,-6.2117,-6.1634,-6.2324,-6.0978,-6.0185,-6.0151,-6.0151,0.0,0.0,0.0,0.0,0.0,0.0,0.0,0.0,0.0,0.0,0.0,0.0,0.0,0.0,0.0,0.0,0.0,0.0,0.0,0.0,0.0,0.0,0.0,0.0,0.0,0.0,0.0,0.0,-5.3311,-5.408,0.0,0.0,-5.6195,-5.6488,-5.6488,-5.6506,-5.6829,-5.7623,-5.8385,-5.9134,-5.9905,-6.1168,-6.2148,-6.279,-6.3656,-6.4439,-6.5083,-6.5083,-6.5221,-6.5462,-6.5462,-6.56,-6.5876,-6.5876,-6.5738,-6.5428,-6.4847,-6.4236,-6.3563,-6.3117,-6.3117,-6.3377,-6.3114,-6.2923,-6.277,-6.2615,-6.1716,-6.0567,-6.0226,-6.0534,-6.1235,-6.1837,-6.1439,-6.0912,-6.1473,-6.1676,-6.1716,-6.1635,-6.211,-6.2654,-6.2847,-6.3,-6.3152,-6.3377,-6.3526,-6.3427,-6.2875,-6.2772,-6.2772,-6.2772,-6.2772,-6.2772,-6.2772,-6.2772,-6.2875,-6.3151,-6.3186,-6.3289,-6.3565,-6.36,-6.36,-6.36,-6.36,-6.36,-6.36,-6.3082,-6.2703,-6.2496,-6.1944,-6.1427,-6.0909,-6.0909,-6.053,0.0,0.0,0.0,0.0,0.0,0.0,0.0,0.0,0.0,0.0,0.0,0.0,0.0,0.0,0.0,0.0,0.0,0.0,0.0,0.0,0.0,0.0,0.0,0.0,0.0,0.0,-5.3458,-5.437,-5.4634,-5.5158,-5.6167,-5.6188,-5.6199,-5.6556,-5.6279,-5.6684,-5.8119,-5.8655,-5.9563,-6.0988,-6.1943,-6.2958,-6.4041,-6.4597,-6.5362,-6.6255,-6.6255,-6.6531,-6.7049,-6.7049,-6.7152,-6.7394,-6.7394,-6.7256,-6.7049,-6.7049,-6.629,-6.5048,-6.4339,-6.3981,-6.3905,-6.3713,-6.3558,-6.3441,-6.3362,-6.2453,-6.1291,-6.1291,-6.1715,-6.233,-6.2965,-6.2248,-6.1419,-6.2041,-6.2207,-6.2207,-6.2207,-6.269,-6.3165,-6.3401,-6.3597,-6.379,-6.4019,-6.4209,-6.4358,-6.4358,-6.3945,-6.36,-6.36,-6.36,-6.36,-6.36,-6.36,-6.36,-6.36,-6.36,-6.36,-6.36,-6.36,-6.36,-6.36,-6.36,-6.36,-6.36,-6.3358,-6.3117,-6.2875,-6.2634,-6.2255,-6.1703,-6.1427,-6.1047,-6.0565,0.0,0.0,0.0,0.0,0.0,0.0,0.0,0.0,0.0,0.0,0.0,0.0,0.0,0.0,0.0,0.0,0.0,0.0,0.0,0.0,0.0,0.0,0.0,-5.3248,-5.307,-5.3224,-5.4044,-5.3913,-5.4144,-5.507,-5.5533,-5.6186,-5.7123,-5.7027,-5.7712,-5.9642,-5.9766,-6.0709,-6.2705,-6.3557,-6.4613,-6.5945,-6.5822,-6.62,-6.7083,-6.7083,-6.7876,-6.9325,-6.9325,-6.9704,-7.0394,-7.0394,-6.998,-6.9325,-6.9325,-6.8877,-6.7975,-6.6264,-6.5412,-6.5215,-6.5017,-6.4903,-6.4862,-6.462,-6.4573,-6.4613,-6.4573,-6.4573,-6.4613,-6.4613,-6.4613,-6.4613,-6.4613,-6.4613,-6.4613,-6.4613,-6.4613,-6.4661,-6.4862,-6.5062,-6.526,-6.5495,-6.5688,-6.5876,-6.5876,-6.4669,-6.3669,-6.3669,-6.3669,-6.3669,-6.3669,-6.3669,0.0,-6.3669,-6.3634,-6.3634,-6.3634,-6.36,-6.36,-6.36,-6.36,-6.36,-6.36,-6.291,-6.2841,-6.3565,-6.291,-6.253,-6.253,-6.1737,-6.1358,-6.1358,0.0,0.0,0.0,0.0,0.0,0.0,0.0,0.0,0.0,0.0,0.0,0.0,0.0,0.0,0.0,0.0,0.0,0.0,0.0,0.0,0.0,0.0,-5.4494,-5.4494,-5.3915,-5.374,-5.4453,-5.49,-5.555,-5.649,-5.7118,-5.8131,-5.9608,-5.9652,-6.0477,-6.2311,-6.1771,-6.2399,-6.4438,-6.5286,-6.6226,-6.7261,-6.8481,-6.9216,-6.9463,-6.9463,-6.967,-7.0084,-7.0084,-7.0187,-7.0394,-7.0394,-7.0256,-7.0084,-7.0084,-6.9742,-6.9111,-6.7725,-6.6719,-6.6035,-6.5874,-6.5298,-6.458,-6.3844,-6.4011,-6.4457,-6.3802,-6.4052,-6.4613,-6.4613,-6.4613,-6.4613,-6.4613,-6.4613,-6.4613,-6.4613,-6.4701,-6.4822,-6.4903,-6.5181,-6.549,-6.5568,-6.5761,-6.5876,-6.5876,-6.5531,-6.5255,-6.5255,-6.5255,-6.5255,-6.5255,-6.5255,0.0,-6.5255,-6.4738,-6.4393,-6.4393,-6.391,-6.36,-6.36,-6.36,-6.36,-6.36,-6.3393,-6.3393,-6.36,-6.3393,-6.3289,-6.3289,-6.2565,-6.2151,0.0,0.0,0.0,0.0,0.0,0.0,0.0,0.0,0.0,0.0,0.0,0.0,0.0,0.0,0.0,0.0,0.0,0.0,0.0,0.0,0.0,0.0,-5.536,-5.4965,-5.5246,-5.459,-5.4391,-5.5068,-5.5814,-5.6761,-5.7927,-5.8751,-5.9929,-6.1622,-6.1478,-6.2125,-6.4009,-6.3792,-6.4428,-6.6139,-6.7133,-6.803,-6.876,-6.9776,-7.0443,-7.0753,-7.0753,-7.0842,-7.1034,-7.1159,-7.1201,0.0,-7.1201,-7.1201,-7.1159,-7.111,-7.0942,0.0,0.0,0.0,0.0,0.0,-6.7006,-6.639,-6.5847,-6.6018,-6.639,-6.5847,-6.6018,-6.6474,-6.6474,-6.6474,-6.6474,-6.6474,-6.6474,-6.6474,-6.6474,-6.6641,-6.6772,-6.6772,-6.714,-6.749,-6.749,-6.7414,-6.729,-6.729,-6.7049,0.0,-6.6807,-6.629,-6.5876,-6.5876,-6.5876,-6.5876,-6.5876,-6.5497,-6.5186,-6.5186,-6.4807,-6.4427,-6.4083,-6.4048,0.0,0.0,0.0,-6.36,-6.36,-6.36,0.0,0.0,0.0,-6.2944,-6.2944,0.0,0.0,0.0,-6.0427,-6.0185,0.0,0.0,0.0,0.0,0.0,0.0,0.0,0.0,0.0,0.0,0.0,0.0,0.0,0.0,0.0,0.0,-5.4988,-5.5068,-5.5715,-5.5376,-5.5331,-5.6028,-5.6854,-5.8001,-5.9564,-6.0483,-6.1666,-6.3368,-6.2958,-6.3375,-6.5167,0.0,0.0,0.0,0.0,-6.9816,-7.0237,-7.034,-7.0683,-7.1335,-7.1396,-7.1688,-7.2165,-7.245,-7.2571,-7.2571,-7.2571,-7.2571,-7.2571,-7.2389,-7.2234,-7.1985,-7.0405,-6.9569,-6.9258,-6.9147,-6.9113,-6.9113,-6.9113,0.0,0.0,-6.9113,-6.9113,-6.9113,-6.9113,-6.9113,-6.9113,-6.9113,-6.9113,-6.9113,-6.9113,-6.9252,-6.9433,-6.9433,-6.9772,-7.0106,-7.0106,-6.9755,-6.9394,-6.9394,-6.8842,-6.8359,-6.8359,-6.7118,-6.6152,-6.6152,-6.6152,-6.6152,-6.6152,-6.6048,-6.6014,-6.6014,0.0,0.0,-6.491,-6.4841,-6.4565,-6.391,-6.3772,-6.3669,-6.36,-6.36,-6.36,-6.36,-6.36,-6.36,-6.36,-6.36,-6.291,-6.1565,-6.1392,-6.122,0.0,0.0,0.0,0.0,0.0,0.0,0.0,0.0,0.0,0.0,0.0,0.0,0.0,0.0,0.0,-5.6689,-5.5984,-5.5745,-5.6502,-5.6915,-5.7532,-5.8484,-5.8765,-5.9823,-6.2235,-6.2639,-6.3411,-6.5101,-6.5623,-6.6305,-6.7294,-6.8199,0.0,-6.9058,-7.02,-7.0908,-7.1026,-7.161,-7.1953,-7.2125,0.0,0.0,-7.3248,-7.3875,-7.4238,-7.4412,-7.4238,-7.4238,-7.4369,-7.4194,-7.3631,-7.2737,-7.1017,-7.0308,-7.0153,-6.9403,-6.9113,-6.9113,-6.9113,-6.9113,-6.9113,-6.9113,-6.9113,-6.9113,-6.9113,-6.9113,0.0,-6.9113,-6.9113,-6.9113,-6.9113,-6.9252,-6.939,-6.939,-6.9764,-7.0099,-7.0099,-7.0127,-7.0187,-7.0187,-7.0049,-6.9946,-6.9946,-6.867,-6.7669,-6.7669,-6.7669,-6.7669,-6.7669,-6.7152,-6.6773,-6.6773,-6.6221,-6.5807,-6.5669,-6.5669,-6.56,-6.5462,-6.4841,-6.422,-6.36,-6.36,-6.36,-6.36,-6.36,-6.36,-6.36,-6.36,-6.3427,-6.3117,-6.1875,-6.0634,0.0,0.0,0.0,0.0,0.0,0.0,0.0,0.0,0.0,0.0,0.0,-5.8158,-5.7738,0.0,-5.702,-5.6402,-5.6293,-5.6645,-5.7901,-5.8323,-5.8733,-5.9269,-6.0021,-6.1375,-6.3517,-6.4176,-6.5102,-6.6669,-6.7277,-6.7862,-6.8608,-6.9474,-6.9968,-6.9968,-7.0803,-7.1523,-7.2159,-7.2535,-7.2956,-7.3463,-7.3709,-7.3871,-7.3949,-7.4381,-7.464,-7.4772,-7.464,-7.464,-7.4728,-7.4374,-7.3866,-7.3198,-7.235,-7.1558,-7.0836,-7.0375,-7.0195,-7.0195,-7.0195,-7.0195,-7.0195,-7.0195,-7.0195,-7.0195,-7.0195,-7.0195,-7.0195,-7.0195,-7.0195,-7.0195,-7.0195,-7.0371,-7.0512,-7.0512,-7.0858,-7.1232,-7.1232,-7.1056,-7.0946,-7.0946,-7.0636,-7.0394,-7.0394,-6.9739,-6.9118,-6.8739,-6.8359,-6.8083,-6.8083,-6.7773,-6.7532,-6.7532,-6.7221,-6.6842,-6.6462,-6.6083,-6.5876,-6.5876,-6.5497,-6.4945,-6.4186,-6.4152,-6.3979,-6.36,-6.36,-6.36,-6.36,-6.36,-6.3393,-6.3013,-6.2255,-6.1668,0.0,0.0,0.0,0.0,0.0,0.0,0.0,0.0,-5.8685,-5.9103,-5.8734,-5.8224,-5.7934,-5.7806,-5.7476,-5.6591,-5.7073,-5.8028,-5.9408,-5.9818,-6.007,-6.0256,-6.1426,-6.29,-6.4627,-6.5489,-6.6474,-6.7793,-6.8235,-6.8804,-6.9508,-7.0255,-7.0697,-7.0833,-7.1344,-7.2078,-7.3229,-7.3318,-7.3714,-7.4508,-7.4689,-7.4669,-7.4569,-7.4885,-7.5087,-7.5087,-7.5043,-7.4998,-7.483,-7.4332,-7.399,-7.3772,-7.3591,-7.2766,-7.1751,-7.1751,-7.1751,-7.1718,-7.1582,-7.1515,-7.1515,-7.1379,-7.1312,-7.1312,-7.1312,-7.1312,-7.1312,-7.1312,-7.1312,-7.1312,-7.1312,-7.1412,-7.1512,-7.1512,-7.1864,-7.2202,-7.2245,-7.1943,-7.1663,-7.1705,-7.1222,-7.0843,-7.0843,-7.0705,-7.036,-6.9601,-6.8946,-6.8532,-6.8532,-6.8428,-6.8325,-6.8325,-6.8187,-6.7842,-6.7256,-6.6669,-6.6255,-6.6117,-6.6083,-6.5738,-6.4979,-6.4945,-6.4565,-6.3807,-6.3807,-6.3738,-6.36,-6.36,-6.3289,-6.2703,-6.2703,-6.2875,-5.7398,-5.7911,0.0,-5.8243,-5.8063,-5.8157,0.0,0.0,-5.9137,-5.981,-6.0478,-6.064,-5.9794,-6.0109,-6.0266,-5.9326,-5.9806,-6.0335,-6.0534,-6.1633,-6.2763,-6.3617,-6.3903,-6.466,-6.6356,-6.6593,-6.7015,-6.7827,-6.8615,-6.9325,-7.007,-7.0815,-7.1526,-7.2169,-7.2406,-7.2949,-7.3788,-7.3979,-7.4148,-7.4251,-7.4934,-7.5412,-7.5547,-7.6244,-7.6644,-7.6892,-7.6678,-7.6314,-7.5863,-7.5182,-7.4864,-7.475,-7.384,-7.3375,-7.324,-7.324,-7.324,-7.3138,-7.2496,-7.2293,-7.2157,-7.1515,-7.1312,-7.1312,-7.1312,-7.1312,-7.1312,-7.1312,-7.1312,-7.1312,-7.1312,-7.1312,-7.1356,-7.1356,-7.1501,-7.1732,-7.1985,-7.2133,-7.2279,-7.2533,-7.2464,-7.2429,-7.2429,-7.1843,-7.1118,-7.036,-7.0187,-7.0118,-7.0118,-6.9566,-6.9153,-6.9153,-6.8532,-6.8049,-6.798,-6.7911,-6.7566,-6.6911,-6.6876,-6.6531,-6.5773,-6.5738,-6.5393,-6.46,-6.4565,-6.4255,-6.36,-6.36,-6.3565,-6.3462,-6.3462,-6.2772,-5.7839,0.0,0.0,0.0,-5.8366,-5.8773,-5.893,-5.9411,-5.999,-6.0655,-6.064,-6.0505,-6.0498,-6.037,-6.0065,0.0,-6.0214,-6.1052,-6.2005,-6.3045,-6.4189,-6.5603,-6.5755,-6.606,-6.6736,-6.7184,-6.776,-6.8538,-6.9316,-7.006,-7.0804,-7.1548,-7.209,-7.2394,-7.2892,-7.3651,-7.4753,-7.4844,-7.5275,-7.5946,-7.6255,-7.6517,-7.6562,-7.6871,-7.7009,-7.6964,-7.6736,-7.6449,-7.6088,-7.5782,-7.5552,-7.5344,-7.4945,-7.4762,-7.4661,-7.3815,-7.3477,-7.3443,-7.3138,-7.3037,-7.2969,-7.2665,-7.2563,-7.2563,-7.2563,-7.2563,-7.2496,-7.2056,-7.1954,-7.1853,-7.1413,-7.1312,-7.1312,-7.1312,-7.1457,-7.1688,-7.1942,-7.2159,-7.2373,-7.2628,-7.2713,-7.2713,-7.2713,-7.2395,-7.2084,-7.1774,-7.0946,-7.0394,-7.0394,-7.0118,-6.9773,-6.9325,-6.898,-6.8601,-6.8152,-6.8083,-6.798,-6.7669,-6.7635,-6.729,-6.6566,-6.6531,-6.6152,-6.5393,-6.5393,-6.5014,-6.422,-6.422,-6.4014,-6.36,-6.36,-6.3255,-5.8142,0.0,0.0,-5.8259,-5.8872,-5.9519,-5.9644,-6.016,-6.0808,-6.1472,-6.1065,-6.0758,-6.1291,-6.082,0.0,-6.066,-6.1283,-6.2266,-6.3715,-6.4533,-6.5459,-6.666,-6.6812,-6.688,-6.7083,-6.759,-6.8335,-6.9316,-6.9891,-7.05,-7.1278,-7.1988,-7.2496,-7.2699,-7.3501,-7.4432,-7.5583,-7.5675,-7.6131,-7.6998,-7.6998,-7.6998,-7.6998,-7.6998,-7.6828,-7.6599,-7.6449,-7.6262,-7.5981,-7.5981,-7.5852,-7.5709,-7.5709,-7.5709,-7.5574,-7.4492,-7.4086,-7.4052,-7.3849,-7.3781,-7.3747,-7.3544,-7.3477,-7.3477,-7.3477,-7.3477,-7.3375,-7.2834,-7.2699,-7.2563,-7.2056,-7.1921,-7.1853,-7.165,-7.1717,-7.1828,-7.1888,-7.2072,-7.2288,-7.2544,-7.2628,-7.2713,-7.2713,-7.2713,-7.2713,-7.2713,-7.1739,-7.1015,-7.1015,-7.0808,-7.0394,-6.967,-6.9394,-6.9049,-6.8463,-6.8221,-6.8083,-6.8083,-6.8083,-6.7842,-6.7325,-6.729,-6.6945,-6.6186,-6.6186,-6.5807,-6.5014,-6.5014,-6.4738,-6.422,-6.4014,-6.391,0.0,0.0,-5.922,-5.9035,-5.9539,-6.0283,-6.1061,-6.1264,-6.1467,-6.2212,-6.2347,-6.2308,-6.2341,-6.2341,-6.2539,-6.3282,-6.3991,-6.4735,-6.5519,-6.6263,-6.6736,-6.6812,-6.6812,-6.7083,0.0,-6.7895,-6.8538,-7.0026,-7.0161,-7.05,-7.1278,-7.1988,-7.2732,-7.3443,-7.442,-7.5306,-7.6088,-7.6322,-7.6461,-7.6541,-7.6541,-7.6541,-7.6541,-7.6541,-7.6356,-7.6122,-7.6122,-7.5947,-7.5709,-7.5709,-7.5709,-7.5709,-7.5709,-7.5709,-7.5676,-7.5642,-7.5642,-7.554,-7.483,-7.4593,-7.4458,-7.3713,-7.3477,-7.3477,-7.3477,-7.3477,-7.3477,-7.3443,-7.3443,-7.3443,-7.3443,-7.3409,-7.324,-7.2529,-7.236,-7.2248,-7.1726,-7.181,-7.2072,-7.2288,-7.2544,-7.2713,-7.2713,-7.2713,-7.2713,-7.2713,-7.2678,-7.2644,-7.2644,-7.1946,-7.1187,-7.0429,-6.9704,-6.9256,-6.9296,-6.8532,-6.8083,-6.8083,-6.8083,-6.8083,-6.8049,-6.8049,-6.7704,-6.698,-6.6945,-6.66,-6.5842,-6.5842,-6.5842,-6.5807,-6.5014,-6.4669,0.0,0.0,-5.9355,-5.9644,-6.0317,-6.096,-6.1231,-6.167,-6.211,-6.2347,-6.2381,-6.2381,-6.2381,-6.2381,-6.2618,-6.3396,-6.414,-6.485,-6.5595,-6.6339,-6.6812,-6.6812,-6.7252,0.0,0.0,0.0,0.0,-7.0094,-7.0635,-7.1244,-7.1988,-7.2732,-7.3477,-7.4221,-7.52,-7.585,-7.6122,-7.6356,-7.6495,-7.6495,-7.6495,-7.6495,-7.6495,-7.6309,-7.6169,-7.6075,-7.5899,-7.5805,-7.5709,-7.5709,-7.5709,-7.5709,-7.5709,-7.5709,-7.5709,-7.5709,-7.5709,-7.5676,-7.5439,-7.5337,-7.5303,-7.5033,-7.4965,-7.4965,-7.4965,-7.4965,-7.4864,-7.4356,-7.4221,-7.4119,-7.3612,-7.3477,-7.3443,-7.3172,-7.3105,-7.3129,-7.3119,-7.2767,-7.257,-7.2965,-7.2717,-7.2501,-7.2671,-7.2713,-7.2713,-7.2713,-7.2713,-7.2713,-7.2713,-7.2429,-7.1981,-7.1187,-7.0912,-7.036,-6.936,-6.9049,-6.867,-6.8118,-6.8083,-6.8083,-6.8083,-6.8083,-6.798,-6.7738,-6.7738,-6.7359,-6.6635,-6.6635,-6.6359,-6.5876,-6.56,-6.5497,-5.9227,-5.9661,-6.0095,-6.0457,-6.1129,-6.167,-6.167,-6.2042,-6.2381,-6.2381,-6.2381,-6.2381,-6.2381,-6.2381,-6.2719,-6.3734,-6.4309,-6.4952,-6.5933,-6.6508,-6.6914,-6.7184,-6.7624,0.0,0.0,0.0,0.0,-7.0534,-7.1041,-7.1616,-7.236,-7.3105,-7.3849,-7.4593,-7.5667,-7.6262,-7.6262,-7.6495,-7.6541,-7.6356,-7.6262,-7.6182,-7.6182,-7.6075,-7.5947,-7.5947,-7.5757,-7.5709,-7.5709,-7.5709,-7.5709,-7.5709,-7.5709,-7.5709,-7.5709,-7.5709,-7.5709,-7.5709,-7.5709,-7.5709,-7.5709,-7.5709,-7.5709,-7.5709,-7.5709,-7.5709,-7.5608,-7.5134,-7.4999,-7.4897,-7.439,-7.4289,-7.4221,-7.395,-7.3883,-7.3861,-7.3809,-7.3459,-7.322,-7.3587,-7.3136,-7.2751,-7.3042,-7.2843,-7.2713,-7.2713,-7.2713,-7.2713,-7.2713,-7.2713,-7.2464,-7.1981,-7.167,-7.1015,-6.9773,-6.9428,-6.8946,-6.8152,-6.8083,-6.8083,-6.8083,-6.8083,-6.8083,-6.8083,-6.8083,-6.7876,-6.7394,-6.7394,-6.7152,-6.6669,-6.6393,-6.629,-5.9392,-6.0329,-6.1298,-6.1366,-6.1873,-6.2381,-6.2381,-6.2381,-6.2381,-6.2381,-6.2381,-6.242,0.0,0.0,-6.2854,-6.4309,-6.458,-6.5121,-6.6542,-6.6812,-6.7117,0.0,0.0,0.0,0.0,0.0,0.0,-7.1312,0.0,-7.1684,-7.2428,-7.3138,-7.3883,-7.4661,-7.5841,-7.6449,-7.6449,-7.6691,-7.6553,-7.6075,-7.5852,-7.5709,-7.5709,-7.5709,-7.5709,-7.5709,-7.5709,-7.5709,-7.5709,-7.5709,-7.5709,-7.5709,-7.5709,-7.5709,-7.5709,-7.5709,-7.5709,-7.5709,-7.5709,-7.5709,-7.5709,-7.5709,-7.5709,-7.5709,-7.5709,-7.5709,-7.5709,-7.5709,-7.5709,-7.5709,-7.5709,-7.5709,-7.5506,-7.483,-7.4661,-7.4458,-7.3747,-7.3763,-7.3992,-7.4195,-7.3802,-7.355,-7.3731,-7.323,-7.2747,-7.2713,-7.2713,-7.2713,-7.2713,-7.2713,-7.2713,-7.2713,-7.2015,-7.1256,-7.0498,-6.9773,-6.898,-6.8221,-6.8118,-6.8083,-6.8083,-6.8083,-6.8083,-6.8083,-6.8083,-6.8083,-6.8083,-6.8083,-6.8083,-6.8083,-6.7359,-6.7049,-6.0532,-6.1032,-6.1434,-6.1975,-6.2245,-6.2381,-6.2381,-6.2381,-6.2381,-6.2381,-6.2498,-6.2576,0.0,0.0,0.0,-6.3632,-6.4241,0.0,-6.5831,-6.6914,0.0,-6.7895,0.0,-6.9755,-7.0161,-7.0703,0.0,0.0,-7.2124,-7.2428,-7.3172,-7.3916,-7.4661,-7.5405,-7.5926,-7.6122,-7.5899,-7.6135,-7.6135,-7.5805,-7.5933,-7.5899,-7.5709,-7.5709,-7.5709,-7.5709,-7.5709,-7.5709,-7.5709,-7.5709,-7.5709,-7.5709,-7.5709,-7.5709,-7.5709,-7.5709,-7.5709,-7.5709,-7.5709,-7.5709,-7.5709,-7.5709,-7.5709,-7.5709,-7.5709,-7.5709,-7.5709,-7.5709,-7.5709,-7.5709,-7.5709,-7.5709,-7.5642,-7.5473,-7.5439,-7.5371,-7.5168,-7.4742,-7.4555,-7.4935,-7.4758,-7.4377,-7.3878,-7.3636,-7.3326,-7.2774,-7.2713,-7.2713,-7.2713,-7.2713,-7.2713,-7.2713,-7.2498,-7.205,-7.1291,-7.0532,-6.9773,-6.9015,-6.8428,-6.8083,-6.8083,-6.8083,-6.8083,-6.8083,-6.8083,-6.8083,-6.8083,-6.8083,-6.8083,-6.8083,-6.7911,-6.7807,-6.0998,-6.1535,-6.1873,-6.2279,-6.2381,-6.2381,-6.2381,-6.2381,-6.2381,-6.2381,-6.2537,0.0,0.0,0.0,0.0,0.0,0.0,0.0,-6.5595,-6.6948,-6.803,0.0,-6.9485,0.0,-7.0635,-7.1345,-7.1954,0.0,-7.2394,-7.2868,-7.3916,-7.439,-7.4931,-7.5676,-7.5947,-7.6075,-7.6041,-7.6075,-7.6028,-7.5852,-7.5899,-7.5852,-7.5709,-7.5709,-7.5709,-7.5709,0.0,-7.5709,-7.5709,-7.5709,-7.5709,-7.5709,-7.5709,-7.5709,-7.5709,-7.5709,-7.5709,-7.5709,-7.5709,-7.5709,-7.5709,-7.5709,-7.5709,-7.5709,-7.5709,-7.5709,-7.5709,-7.5709,-7.5709,-7.5709,-7.5709,-7.5709,-7.5709,-7.5709,-7.5709,-7.5709,-7.5709,-7.5371,-7.514,-7.5264,-7.5352,-7.5188,-7.443,-7.4292,-7.4016,-7.3257,-7.3153,-7.3092,-7.2747,-7.2713,-7.2713,-7.2713,-7.2713,-7.236,-7.1567,-7.0808,-7.0084,-6.9325,-6.8532,-6.8083,-6.8083,-6.8083,-6.8083,-6.8083,-6.8083,-6.8083,-6.8083,-6.8083,-6.8083,-6.8083,-6.8083,-6.8083,-6.1197,-6.1907,-6.2381,-6.2381,-6.2381,-6.2381,-6.242,-6.242,-6.242,-6.242,0.0,-6.2693,-6.2459,0.0,-6.2892,-6.33,0.0,-6.4816,-6.5459,-6.6981,-6.8335,-6.9011,-6.9823,-7.0635,-7.1379,-7.2022,-7.2496,-7.2665,-7.2699,-7.324,-7.4559,-7.4695,-7.5033,-7.5676,-7.5899,-7.6169,-7.6402,-7.6216,-7.6075,-7.6075,-7.5852,-7.5757,-7.5709,-7.5709,-7.5709,-7.5709,0.0,0.0,-7.5709,-7.5709,-7.5709,-7.5709,-7.5709,-7.5709,-7.5709,-7.5709,-7.5709,-7.5709,-7.5709,-7.5709,-7.5709,-7.5709,-7.5709,-7.5709,-7.5709,-7.5709,-7.5709,-7.5709,-7.5709,-7.5709,-7.5709,-7.5709,-7.5709,-7.5709,-7.5709,-7.5709,-7.5709,-7.5757,-7.5743,-7.5561,-7.5911,-7.6016,-7.5179,-7.5041,-7.4774,-7.3912,-7.3774,-7.3498,-7.2816,-7.2713,-7.2713,-7.2713,-7.2713,-7.2395,-7.1705,-7.0877,-7.0118,-6.9463,-6.8601,-6.8083,-6.8083,-6.8083,-6.8083,-6.8083,-6.8083,-6.8083,-6.8083,-6.8083,-6.8083,-6.8083,-6.8083,-6.8083,-6.1806,-6.2279,-6.2381,-6.2381,-6.2381,-6.242,-6.2576,-6.2649,0.0,0.0,0.0,-6.3076,-6.2693,-6.2808,0.0,-6.2858,0.0,0.0,0.0,0.0,-6.8944,0.0,0.0,0.0,0.0,0.0,0.0,0.0,0.0,0.0,-7.4593,-7.5202,-7.5574,-7.5709,-7.5757,-7.5805,-7.5852,-7.6028,-7.5981,-7.5757,-7.5947,-7.5899,-7.5709,-7.5709,-7.5709,-7.5709,0.0,0.0,-7.5709,-7.5709,-7.5709,-7.5709,-7.5709,-7.5709,-7.5709,-7.5709,-7.5709,-7.5709,-7.5709,-7.5709,-7.5709,-7.5709,-7.5709,-7.5709,-7.5709,-7.5709,-7.5709,-7.5709,-7.5709,-7.5709,-7.5709,-7.5709,-7.5709,-7.5709,-7.5709,-7.5709,-7.5709,-7.6041,-7.638,-7.6519,-7.6757,-7.6775,-7.6051,-7.5913,-7.543,-7.3981,-7.3774,-7.3498,-7.2816,-7.2713,-7.2713,-7.2713,-7.2713,-7.2644,-7.2464,-7.1187,-7.0325,-7.0222,-6.8877,-6.8083,-6.8083,-6.8083,-6.8083,-6.8083,-6.8083,-6.8083,-6.8083,-6.8083,-6.8083,-6.8083,-6.8083,-6.8083,-6.2076,-6.2381,-6.2381,-6.2381,-6.2381,-6.242,-6.2498,0.0,0.0,0.0,0.0,-6.2885,-6.2576,0.0,0.0,0.0,0.0,0.0,0.0,0.0,0.0,0.0,0.0,0.0,0.0,0.0,0.0,0.0,0.0,0.0,-7.5168,-7.5506,-7.5709,-7.5709,-7.5709,-7.5709,-7.5709,-7.5805,-7.5805,-7.5709,-7.5852,-7.5805,-7.5709,-7.5709,-7.5709,-7.5709,-7.5709,0.0,-7.5709,-7.5709,-7.5709,-7.5709,-7.5709,-7.5709,-7.5709,-7.5709,-7.5709,-7.5709,-7.5709,-7.5709,-7.5709,-7.5709,-7.5709,-7.5709,-7.5709,-7.5709,-7.5709,-7.5709,-7.5709,-7.5709,-7.5709,-7.5709,-7.5709,-7.5709,-7.5709,-7.5757,-7.5852,-7.6216,-7.6587,-7.6748,-7.6918,-7.6906,-7.6696,-7.6228,-7.5574,-7.4524,-7.405,-7.3498,-7.2816,-7.2713,-7.2713,-7.2713,-7.2713,-7.2713,-7.2713,-7.1256,-7.0394,-7.0394,-6.8946,-6.8083,-6.8083,-6.8083,-6.8083,-6.8083,-6.8083,-6.8083,-6.8083,-6.8083,-6.8083,-6.8083,-6.8083,-6.8083,-6.2178,-6.2381,-6.2381,-6.2381,-6.2381,-6.242,-6.2459,-6.2459,0.0,0.0,0.0,-6.2693,0.0,0.0,0.0,0.0,0.0,0.0,0.0,0.0,0.0,0.0,0.0,0.0,0.0,0.0,0.0,0.0,0.0,0.0,0.0,-7.5709,-7.5709,-7.5709,-7.5709,-7.5709,-7.5709,-7.5709,-7.5709,-7.5709,-7.5709,-7.5709,-7.5709,-7.5709,-7.5709,-7.5709,-7.5709,0.0,0.0,-7.5709,-7.5709,-7.5709,-7.5709,-7.5709,-7.5709,-7.5709,-7.5709,-7.5709,-7.5709,-7.5709,-7.5709,-7.5709,-7.5709,-7.5709,-7.5709,-7.5709,-7.5709,-7.5709,-7.5709,-7.5709,-7.5709,-7.5709,-7.5709,-7.5709,-7.5757,-7.5852,-7.6122,-7.6356,-7.6587,-7.6748,-7.6793,-7.6804,-7.6847,-7.6286,-7.5519,-7.4766,-7.4188,-7.3498,-7.2816,-7.2713,-7.2713,-7.2713,-7.2713,-7.2602,-7.2429,-7.1187,-7.0325,-7.0153,-6.8877,-6.8083,-6.8083,-6.8083,-6.8083,-6.8083,-6.8083,-6.8083,-6.8083,-6.8083,-6.8083,-6.8083,-6.829,-6.8256,-6.2178,-6.2381,-6.2381,-6.2381,-6.2381,-6.242,-6.2615,0.0,0.0,0.0,-6.2847,-6.2923,-6.2693,0.0,0.0,0.0,0.0,0.0,0.0,0.0,0.0,0.0,0.0,0.0,0.0,0.0,0.0,0.0,0.0,0.0,0.0,-7.5709,-7.5709,-7.5709,-7.5709,-7.5709,-7.5709,-7.5709,-7.5709,-7.5709,-7.5709,-7.5709,-7.5709,-7.5709,-7.5709,-7.5709,0.0,0.0,0.0,-7.5709,-7.5709,-7.5709,-7.5709,-7.5709,-7.5709,-7.5709,-7.5709,-7.5709,-7.5709,-7.5709,-7.5709,-7.5709,-7.5709,-7.5709,-7.5709,-7.5709,-7.5709,-7.5709,-7.5709,-7.5709,-7.5709,-7.5709,-7.5709,-7.5709,-7.5899,-7.6122,-7.6402,-7.6495,-7.6587,-7.6748,-7.6793,-7.6587,-7.598,-7.5942,-7.5558,-7.4119,-7.3843,-7.3498,-7.2816,-7.2713,-7.2713,-7.2713,-7.2713,-7.2395,-7.167,-7.0843,-7.0084,-6.9428,-6.8566,-6.8083,-6.8083,-6.8083,-6.8083,-6.8083,-6.8083,-6.8083,-6.8083,-6.8083,-6.8083,-6.8118,-6.8842,-6.8773,-6.2313,-6.2381,-6.2381,-6.2381,-6.2381,-6.242,-6.2498,0.0,0.0,-6.2498,-6.2576,-6.2615,-6.2537,0.0,0.0,0.0,0.0,0.0,0.0,0.0,0.0,0.0,0.0,0.0,0.0,0.0,0.0,0.0,0.0,0.0,0.0,-7.5852,-7.5947,-7.5947,-7.5805,-7.5805,-7.5947,-7.5805,-7.5709,-7.5709,-7.5709,-7.5709,-7.5709,-7.5709,-7.5709,-7.5709,0.0,0.0,0.0,-7.5709,-7.5709,-7.5709,-7.5709,-7.5709,-7.5709,-7.5709,-7.5709,-7.5709,-7.5709,-7.5709,-7.5709,-7.5709,-7.5709,-7.5709,-7.5709,-7.5709,-7.5709,-7.5709,-7.5709,-7.5709,-7.5709,-7.5709,-7.5709,-7.5709,-7.5805,-7.5947,-7.6216,-7.6262,-7.6356,-7.6553,-7.6223,-7.5857,-7.5719,-7.5028,-7.4325,-7.3878,-7.3395,-7.3015,-7.2747,-7.2713,-7.2498,-7.2015,-7.1981,-7.1843,-7.1532,-7.0394,-6.9601,-6.9291,-6.8532,-6.8083,-6.8083,-6.8083,-6.8083,-6.8083,-6.8083,-6.8083,-6.8083,-6.8083,-6.8083,-6.8118,-6.8428,-6.867,-6.242,-6.2381,-6.2381,-6.2381,-6.2381,-6.2381,0.0,0.0,0.0,-6.2381,-6.2381,-6.2381,-6.2381,0.0,0.0,0.0,0.0,0.0,0.0,0.0,0.0,0.0,0.0,0.0,0.0,0.0,0.0,0.0,0.0,0.0,0.0,0.0,-7.6075,-7.5947,-7.5805,-7.5805,-7.5981,-7.5805,-7.5709,-7.5709,-7.5709,-7.5709,-7.5709,-7.5709,-7.5709,-7.5709,0.0,0.0,0.0,-7.5709,-7.5709,-7.5709,-7.5709,-7.5709,-7.5709,-7.5709,-7.5709,-7.5709,-7.5709,-7.5709,-7.5709,-7.5709,-7.5709,-7.5709,-7.5709,-7.5709,-7.5709,-7.5709,-7.5709,-7.5709,-7.5709,-7.5709,-7.5709,-7.5709,-7.5757,-7.5852,-7.6075,-7.5952,-7.5829,-7.6107,-7.5504,-7.4969,-7.4998,-7.416,-7.3534,-7.3498,-7.3015,-7.2713,-7.2713,-7.2464,-7.2119,-7.1567,-7.1118,-7.0843,-7.0843,-6.9877,-6.9187,-6.8946,-6.8394,-6.8083,-6.8083,-6.8083,-6.8083,-6.8083,-6.8083,-6.8083,-6.8083,-6.8083,-6.8083,-6.8118,-6.8325,-6.8739,-6.2459,-6.2381,-6.2381,-6.2381,-6.2381,-6.2381,0.0,0.0,0.0,-6.2381,-6.2381,-6.2381,-6.2381,-6.2381,0.0,0.0,0.0,0.0,0.0,0.0,0.0,0.0,0.0,0.0,0.0,0.0,0.0,0.0,0.0,0.0,0.0,0.0,-7.5981,-7.5709,-7.5709,-7.5709,-7.5709,-7.5709,-7.5709,-7.5709,-7.5709,-7.5709,-7.5709,-7.5709,-7.5709,0.0,0.0,0.0,0.0,-7.5709,-7.5709,-7.5709,-7.5709,-7.5709,-7.5709,-7.5709,-7.5709,-7.5709,-7.5709,-7.5709,-7.5709,-7.5709,-7.5709,-7.5709,-7.5709,-7.5709,-7.5709,-7.5709,-7.5709,-7.5709,-7.5709,-7.5709,-7.5709,-7.5709,-7.5899,-7.6122,-7.6122,-7.5544,-7.5092,-7.5288,-7.4718,-7.4056,-7.3523,-7.3602,-7.3533,-7.2809,-7.2713,-7.2713,-7.2713,-7.1981,-7.1498,-7.1498,-7.0187,-6.9291,-6.9291,-6.9331,-6.8946,-6.8152,-6.8083,-6.8083,-6.8083,-6.8083,-6.8083,-6.8083,-6.8083,-6.8083,-6.8083,-6.8083,-6.8083,-6.8118,-6.8911,-6.9256,-6.242,-6.2381,-6.2381,-6.2381,-6.2381,-6.2381,-6.2381,0.0,-6.2381,-6.2381,-6.2381,-6.2381,-6.2381,-6.2381,-6.2381,0.0,0.0,0.0,0.0,0.0,0.0,0.0,0.0,0.0,0.0,0.0,0.0,0.0,0.0,0.0,0.0,0.0,-7.5852,-7.5947,-7.5805,-7.5805,-7.5947,-7.5805,-7.5709,-7.5709,-7.5709,-7.5709,-7.5709,-7.5709,0.0,0.0,0.0,0.0,0.0,-7.5709,-7.5709,-7.5709,-7.5709,-7.5709,-7.5709,-7.5709,-7.5709,-7.5709,-7.5709,-7.5709,-7.5709,-7.5709,-7.5709,-7.5709,-7.5709,-7.5709,-7.5709,-7.5709,-7.5709,-7.5709,-7.5709,-7.5709,-7.5709,-7.5709,-7.5385,-7.5059,-7.5059,-7.453,-7.4034,-7.4264,-7.3877,-7.344,-7.342,-7.3232,-7.2946,-7.2747,-7.2222,-7.1877,-7.1877,-7.1222,-7.0532,-7.0049,-6.9566,-6.9291,-6.9291,-6.8773,-6.8359,-6.8118,-6.8083,-6.8083,-6.8083,-6.8083,-6.8083,-6.8083,-6.8083,-6.8083,-6.8083,-6.8083,-6.8083,-6.8118,-6.8911,-6.898,0.0,-6.2381,-6.2381,-6.2381,-6.2381,0.0,0.0,0.0,-6.2381,-6.2381,-6.2381,-6.2381,-6.2381,-6.2381,0.0,0.0,0.0,0.0,0.0,0.0,0.0,0.0,0.0,0.0,0.0,0.0,0.0,0.0,0.0,0.0,0.0,0.0,-7.4958,-7.5272,-7.5547,-7.5805,-7.5947,-7.5805,-7.5709,-7.5709,-7.5709,-7.5709,-7.5709,0.0,0.0,0.0,0.0,0.0,0.0,-7.5709,-7.5709,-7.5709,-7.5709,-7.5709,-7.5709,-7.5709,-7.5709,-7.5709,-7.5709,-7.5709,-7.5709,-7.5709,-7.5506,-7.527,-7.527,-7.5473,-7.5709,-7.5709,-7.5709,-7.5642,-7.5371,-7.527,-7.5202,-7.4931,-7.4525,-7.4187,-7.4187,-7.3705,-7.33,-7.3561,-7.3092,-7.2756,-7.3103,-7.2811,-7.2483,-7.2291,-7.1808,-7.1394,-7.1118,-7.0429,-6.9808,-6.9325,-6.9015,-6.8842,-6.8842,-6.8394,-6.8083,-6.8083,-6.8083,-6.8083,-6.8083,-6.8083,-6.8083,-6.8083,-6.8083,-6.8083,-6.8083,-6.8083,-6.8083,-6.8118,-6.8911,-6.8842,0.0,-6.2381,0.0,0.0,0.0,0.0,0.0,0.0,0.0,-6.2381,-6.2381,-6.2381,-6.2381,-6.2381,0.0,0.0,0.0,0.0,0.0,0.0,0.0,0.0,0.0,0.0,0.0,0.0,0.0,0.0,0.0,0.0,0.0,0.0,0.0,-7.3878,-7.5018,-7.5588,-7.5588,-7.5588,-7.5588,-7.5588,-7.5588,-7.5588,-7.5588,0.0,0.0,0.0,0.0,0.0,0.0,-7.554,-7.554,-7.554,-7.5608,-7.5574,-7.554,-7.5608,-7.5574,-7.554,-7.554,-7.554,-7.554,-7.554,-7.5067,-7.4525,-7.4525,-7.4999,-7.554,-7.554,-7.554,-7.5371,-7.4695,-7.4525,-7.4356,-7.3692,-7.3489,-7.3455,-7.3455,-7.3028,-7.2699,-7.2966,-7.2463,-7.2115,-7.2586,-7.2424,-7.2072,-7.156,-7.1394,-7.1084,-7.0394,-6.967,-6.9187,-6.9187,-6.8532,-6.8083,-6.8083,-6.8083,-6.8083,-6.8083,-6.8083,-6.8083,-6.8083,-6.8083,-6.8083,-6.8083,-6.8083,-6.8083,-6.8083,-6.8083,-6.8083,-6.8118,-6.8842,-6.8773,-6.2381,0.0,-6.2381,-6.2381,-6.2381,-6.2381,0.0,0.0,-6.2381,-6.2381,0.0,0.0,-6.2381,0.0,0.0,0.0,0.0,0.0,0.0,0.0,0.0,0.0,0.0,0.0,0.0,0.0,0.0,0.0,0.0,0.0,0.0,0.0,0.0,-7.415,-7.4401,-7.4571,-7.4571,-7.4571,-7.4571,-7.4571,-7.4571,-7.4571,-7.4571,0.0,0.0,0.0,0.0,0.0,-7.433,-7.4111,-7.4018,-7.4052,-7.4627,-7.4525,-7.4086,-7.4661,-7.4492,-7.4018,-7.4018,-7.4018,-7.4018,-7.4018,-7.3883,-7.3747,-7.3747,-7.3883,-7.4018,-7.4018,-7.4018,-7.395,-7.3781,-7.3747,-7.376,-7.3775,-7.3345,-7.2949,-7.3129,-7.2471,-7.1961,-7.2215,-7.1956,-7.182,-7.2331,-7.1893,-7.1488,-7.1491,-7.0532,-6.9739,-6.9566,-6.8842,-6.8359,-6.8359,-6.8221,-6.8083,-6.8083,-6.8083,-6.8083,-6.8083,-6.8083,-6.8083,-6.8083,-6.8083,-6.8083,-6.8083,-6.8083,-6.8083,-6.8083,-6.8083,-6.8083,-6.8083,-6.829,-6.798,-6.2381,-6.2381,-6.2381,-6.2381,-6.2381,-6.2381,-6.2381,0.0,0.0,0.0,0.0,0.0,0.0,0.0,0.0,0.0,0.0,0.0,0.0,0.0,0.0,0.0,0.0,0.0,0.0,0.0,0.0,0.0,0.0,0.0,0.0,0.0,0.0,0.0,-7.3003,-7.3389,-7.4161,-7.4195,-7.4195,-7.4195,-7.4195,-7.4195,-7.4195,-7.4195,0.0,0.0,0.0,0.0,-7.3878,-7.3649,-7.3477,-7.3544,-7.395,-7.3849,-7.3544,-7.395,-7.3849,-7.3477,-7.3477,-7.3477,-7.3477,-7.3477,-7.3274,-7.3015,-7.3107,-7.2824,-7.2631,-7.3308,-7.3603,-7.3547,-7.3117,-7.3152,-7.3266,-7.2926,-7.2607,-7.239,-7.239,-7.2083,-7.1776,-7.181,-7.181,-7.1761,-7.1765,-7.1472,-7.1076,-7.056,-6.9808,-6.9153,-6.8773,-6.8359,-6.8083,-6.8083,-6.8083,-6.8083,-6.8083,-6.8083,-6.8083,-6.8083,-6.8083,-6.8083,-6.8083,-6.8083,-6.8083,-6.8083,-6.8083,-6.8083,-6.8083,-6.8083,-6.8083,-6.8083,-6.7738,-6.7359,-6.2381,-6.2381,-6.2381,-6.2381,-6.2381,-6.2381,-6.2381,0.0,0.0,0.0,0.0,0.0,0.0,0.0,0.0,0.0,0.0,0.0,0.0,0.0,0.0,0.0,0.0,0.0,0.0,0.0,0.0,0.0,0.0,0.0,0.0,0.0,0.0,0.0,-7.1732,-7.2434,-7.3909,-7.3943,-7.3898,-7.3854,-7.3943,-7.3943,-7.3854,-7.3898,0.0,0.0,0.0,0.0,-7.3538,-7.3264,-7.3138,-7.3172,-7.3274,-7.324,-7.3172,-7.3274,-7.324,-7.3138,-7.3138,-7.3138,-7.3138,-7.3138,-7.2732,-7.227,-7.2417,-7.192,-7.1582,-7.28,-7.3356,-7.3357,-7.2485,-7.2552,-7.2683,-7.178,-7.1776,-7.1898,-7.1688,-7.1854,-7.1942,-7.1688,-7.1752,-7.1696,-7.1293,-7.0984,-7.0484,-6.9463,-6.9187,-6.8842,-6.8187,-6.8083,-6.8083,-6.8083,-6.8083,-6.8083,-6.8083,-6.8083,-6.8083,-6.8083,-6.8083,-6.8083,-6.8083,-6.8083,-6.8083,-6.8083,-6.8083,-6.8083,-6.8083,-6.8083,-6.8083,-6.8083,-6.7325,-6.6945,-6.2381,-6.2381,-6.2381,-6.2381,-6.2381,-6.2381,-6.2381,0.0,0.0,0.0,0.0,0.0,0.0,0.0,0.0,0.0,0.0,0.0,0.0,0.0,0.0,0.0,0.0,0.0,0.0,0.0,0.0,0.0,0.0,0.0,0.0,0.0,0.0,0.0,0.0,-7.2562,-7.2588,-7.2588,-7.2501,-7.2327,-7.2717,-7.2717,-7.2327,-7.2501,-7.2501,0.0,0.0,-7.194,-7.194,-7.1706,-7.165,-7.1718,-7.2326,-7.2191,-7.1718,-7.2326,-7.2191,-7.165,-7.165,-7.165,-7.165,-7.165,-7.1582,-7.1481,-7.1526,-7.1413,-7.1379,-7.1582,-7.1796,-7.194,-7.176,-7.177,-7.178,-7.1634,-7.1644,-7.1688,-7.1898,-7.1985,-7.1985,-7.1942,-7.1395,-7.1003,-7.119,-7.0092,-6.9248,-6.9325,-6.8704,-6.8221,-6.8118,-6.8083,-6.8083,-6.8083,-6.8083,-6.8083,-6.8083,-6.8083,-6.8083,-6.8083,-6.8083,-6.8083,-6.8083,-6.8083,-6.8083,-6.8083,-6.8083,-6.8083,-6.8083,-6.8083,-6.8083,-6.8083,-6.7325,-6.6669,-6.2381,-6.2381,-6.2381,-6.2381,-6.2381,-6.2381,0.0,0.0,0.0,0.0,0.0,0.0,0.0,0.0,0.0,0.0,0.0,0.0,0.0,0.0,0.0,0.0,0.0,0.0,0.0,0.0,0.0,0.0,0.0,0.0,0.0,0.0,0.0,0.0,0.0,0.0,-7.2159,-7.2245,-7.2331,-7.2373,-7.2586,-7.2586,-7.2373,-7.2459,-7.2459,-7.2373,0.0,-7.1951,-7.1951,-7.1766,-7.159,-7.1491,-7.183,-7.1762,-7.1535,-7.2042,-7.1807,-7.1312,-7.1412,-7.1367,-7.1312,-7.1312,-7.1312,-7.1312,-7.1412,-7.1401,-7.1356,-7.1624,-7.1634,-7.1556,-7.1457,-7.1634,-7.1776,-7.1644,-7.1688,-7.1854,-7.1985,-7.1678,-7.137,-7.137,-7.0841,-7.0351,-7.0023,-6.9495,-6.8997,-6.8704,-6.8325,-6.8083,-6.8083,-6.8083,-6.8083,-6.8083,-6.8083,-6.8083,-6.8083,-6.8083,-6.8083,-6.8083,-6.8083,-6.8083,-6.8083,-6.8083,-6.8083,-6.8083,-6.8083,-6.8083,-6.8083,-6.8083,-6.7911,-6.7497,-6.6738,-6.5979,-6.2381,-6.2381,-6.2381,-6.2381,-6.2381,0.0,0.0,0.0,0.0,0.0,0.0,0.0,0.0,0.0,0.0,0.0,0.0,0.0,0.0,0.0,0.0,0.0,0.0,0.0,0.0,0.0,0.0,0.0,0.0,0.0,0.0,0.0,0.0,0.0,0.0,0.0,-7.1985,-7.2159,-7.2331,-7.2544,-7.2628,-7.2628,-7.2544,-7.2586,-7.2586,-7.2501,-7.2331,-7.2245,-7.2245,-7.2072,-7.1898,-7.1688,-7.1688,-7.1688,-7.1688,-7.1942,-7.1766,-7.1491,-7.1556,-7.1501,-7.1356,-7.1312,-7.1312,-7.1356,-7.1501,-7.1412,-7.1356,-7.1722,-7.1678,-7.1501,-7.1367,-7.1634,-7.1854,-7.1556,-7.1722,-7.1864,-7.1693,-7.1268,-7.0832,-7.0619,-7.0214,-6.9694,-6.9035,-6.8957,-6.8808,-6.8187,-6.8083,-6.8083,-6.8083,-6.8083,-6.8083,-6.8083,-6.8083,-6.8083,-6.8083,-6.8083,-6.8083,-6.8083,-6.8083,-6.8083,-6.8083,-6.8083,-6.8083,-6.8083,-6.8083,-6.8083,-6.8083,-6.7911,-6.7532,-6.698,-6.6048,-6.529,-6.2381,-6.2381,-6.2381,-6.2381,-6.2381,0.0,-6.2381,-6.2381,0.0,-6.2381,0.0,0.0,0.0,0.0,0.0,0.0,0.0,0.0,0.0,0.0,0.0,0.0,0.0,0.0,0.0,0.0,0.0,0.0,0.0,0.0,0.0,0.0,0.0,0.0,0.0,0.0,-7.1985,-7.1985,-7.2029,-7.2029,-7.2501,-7.2459,-7.2029,-7.2245,-7.2245,-7.2029,-7.2029,-7.2029,-7.2029,-7.1985,-7.1985,-7.1985,-7.1985,-7.1985,-7.1985,-7.1985,-7.1985,-7.1898,-7.1688,-7.16,-7.1556,-7.1356,-7.1312,-7.1312,-7.1312,-7.1312,-7.1312,-7.1356,-7.1356,-7.1356,-7.1512,-7.16,-7.1556,-7.1401,-7.1501,-7.144,-7.0794,-7.0892,-7.0908,-6.9935,-6.955,-6.9244,-6.8938,-6.8475,-6.8152,-6.8118,-6.8083,-6.8083,-6.8083,-6.8083,-6.8083,-6.8083,-6.8083,-6.8083,-6.8083,-6.8083,-6.8083,-6.8083,-6.8083,-6.8083,-6.8083,-6.8083,-6.8083,-6.8083,-6.8083,-6.8083,-6.8083,-6.7394,-6.7049,-6.6945,-6.5462,-6.4772,-6.2381,-6.2381,-6.2381,-6.2381,-6.2381,0.0,0.0,-6.2381,-6.2381,-6.2381,-6.2381,0.0,0.0,0.0,0.0,0.0,0.0,0.0,0.0,0.0,0.0,0.0,0.0,0.0,0.0,0.0,0.0,0.0,0.0,0.0,0.0,0.0,0.0,0.0,0.0,0.0,0.0,-7.2416,-7.2416,-7.2416,-7.2459,-7.2459,-7.2416,-7.2331,-7.2288,-7.2202,-7.2202,-7.2115,-7.2029,-7.2288,-7.2245,-7.1985,-7.1985,-7.181,-7.1624,-7.1898,-7.1844,-7.158,-7.16,-7.1512,-7.1412,-7.1312,-7.1312,-7.1312,-7.1312,-7.1312,-7.1312,-7.1312,-7.1367,-7.1467,-7.1556,-7.16,-7.1498,-7.1066,-7.1051,-7.0977,-7.0388,-6.9883,-6.948,-6.9255,-6.8726,-6.8332,-6.8211,-6.8171,-6.8083,-6.8083,-6.8083,-6.8083,-6.8083,-6.8083,-6.8083,-6.8083,-6.8083,-6.8083,-6.8083,-6.8083,-6.8083,-6.8083,-6.8083,-6.8083,-6.8083,-6.8083,-6.8083,-6.8083,-6.8083,-6.7876,-6.7428,-6.7118,-6.6497,-6.5566,-6.4979,-6.4462,-6.2381,-6.2381,-6.2381,-6.2381,0.0,0.0,-6.2381,-6.2381,-6.2381,-6.2381,-6.2584,0.0,0.0,0.0,0.0,0.0,0.0,0.0,0.0,0.0,0.0,0.0,0.0,0.0,0.0,0.0,0.0,0.0,0.0,0.0,0.0,0.0,0.0,0.0,0.0,0.0,-7.2586,-7.2501,-7.2501,-7.2586,-7.2416,-7.2459,-7.2671,-7.2501,-7.2416,-7.2416,-7.2416,-7.2331,-7.2245,-7.2544,-7.2459,-7.2072,-7.2029,-7.181,-7.158,-7.1854,-7.18,-7.1535,-7.1556,-7.1546,-7.1367,-7.1312,-7.1312,-7.1312,-7.1312,-7.1312,-7.1244,-7.1096,-7.1162,-7.1236,-7.1163,-7.1265,-7.1187,-7.061,-7.0439,-7.0277,-6.9727,-6.9103,-6.8542,-6.8467,-6.8102,-6.7799,-6.7799,-6.7999,-6.8083,-6.8083,-6.8083,-6.8083,-6.8083,-6.8083,-6.8083,-6.8083,-6.8083,-6.8083,-6.8083,-6.8083,-6.8083,-6.8083,-6.8083,-6.8083,-6.8083,-6.8083,-6.8083,-6.8083,-6.7876,-6.7497,-6.698,-6.6497,-6.5738,-6.4703,-6.4462,-6.4083,-6.2381,-6.2381,-6.2381,0.0,0.0,0.0,-6.2381,-6.2381,-6.2381,-6.2415,0.0,0.0,0.0,0.0,0.0,0.0,0.0,0.0,0.0,0.0,0.0,0.0,0.0,0.0,0.0,0.0,0.0,0.0,0.0,0.0,0.0,0.0,0.0,0.0,0.0,0.0,-7.2296,-7.2081,-7.2081,-7.2296,-7.2296,-7.2424,-7.2713,-7.2713,-7.2671,-7.2671,-7.2671,-7.2671,-7.2671,-7.2671,-7.2544,-7.2288,-7.2072,-7.1985,-7.1985,-7.1985,-7.1985,-7.1942,-7.1688,-7.16,-7.1556,-7.1401,-7.1312,-7.1312,-7.1312,-7.1312,-7.1187,-7.0629,-7.0478,-7.0429,-7.018,-7.0404,-7.0619,-6.9859,-6.9688,-6.9491,-6.8739,-6.8569,-6.8364,-6.7646,-6.7638,-6.7799,-6.7799,-6.7999,-6.8083,-6.8083,-6.8083,-6.8083,-6.8083,-6.8083,-6.8083,-6.8083,-6.8083,-6.8083,-6.8083,-6.8083,-6.8083,-6.8083,-6.8083,-6.8083,-6.8083,-6.8083,-6.8083,-6.8083,-6.7359,-6.698,-6.6945,-6.5428,-6.4703,-6.4669,-6.3945,-6.36,-6.2381,-6.2381,0.0,0.0,0.0,0.0,0.0,0.0,0.0,0.0,0.0,0.0,0.0,0.0,0.0,0.0,0.0,0.0,0.0,0.0,0.0,0.0,0.0,0.0,0.0,0.0,0.0,0.0,0.0,0.0,0.0,0.0,0.0,0.0,0.0,0.0,-7.0967,-7.0884,-7.0884,-7.0967,-7.0967,-7.1594,-7.2671,-7.2501,-7.2416,-7.2416,-7.2416,-7.2331,-7.2202,-7.2373,-7.2373,-7.2288,-7.2245,-7.2115,-7.1985,-7.1985,-7.1985,-7.1942,-7.1688,-7.1732,-7.1854,-7.159,-7.1634,-7.1664,-7.1119,-7.0949,-7.0813,-7.0149,-7.0072,-7.0104,-6.9399,-6.933,-6.9433,-6.9193,-6.9118,-6.8912,-6.8029,-6.7817,-6.7749,-6.7544,-6.7638,-6.7799,-6.7799,-6.7999,-6.8083,-6.8083,-6.8083,-6.8083,-6.8083,-6.8083,-6.8083,-6.8083,-6.8083,-6.8083,-6.8083,-6.8083,-6.8083,-6.8083,-6.8083,-6.8083,-6.8083,-6.8083,-6.7842,-6.7325,-6.7083,-6.6462,-6.5393,-6.491,-6.4427,-6.391,-6.3703,-6.36,-6.2381,0.0,0.0,0.0,0.0,0.0,0.0,0.0,0.0,0.0,0.0,0.0,0.0,0.0,0.0,0.0,0.0,0.0,0.0,0.0,0.0,0.0,0.0,0.0,0.0,0.0,0.0,0.0,0.0,0.0,0.0,0.0,0.0,0.0,0.0,0.0,-7.0394,-7.0394,-7.0394,-7.0394,-7.0394,-7.0877,-7.1774,-7.1924,-7.1977,-7.2012,-7.2321,-7.2373,-7.2288,-7.2288,-7.2331,-7.2288,-7.2202,-7.2115,-7.1985,-7.1985,-7.1985,-7.1985,-7.181,-7.165,-7.1498,-7.1333,-7.1172,-7.0994,-7.0508,-7.0294,-7.0115,-6.9449,-6.9328,-6.9275,-6.861,-6.8451,-6.8451,-6.8451,-6.8411,-6.8186,-6.7619,-6.751,-6.7516,-6.7597,-6.7719,-6.7839,-6.7919,-6.8004,-6.8083,-6.8083,-6.8083,-6.8083,-6.8083,-6.8083,-6.8083,-6.8083,-6.8083,-6.8083,-6.8083,-6.8083,-6.8083,-6.8083,-6.8083,-6.798,-6.7669,-6.7669,-6.7428,-6.7014,-6.6393,-6.5635,-6.4703,-6.4393,-6.4014,-6.36,-6.36,-6.36,0.0,0.0,0.0,0.0,0.0,0.0,0.0,0.0,0.0,0.0,0.0,0.0,0.0,0.0,0.0,0.0,0.0,0.0,0.0,0.0,0.0,0.0,0.0,0.0,0.0,0.0,0.0,0.0,0.0,0.0,0.0,0.0,0.0,0.0,0.0,0.0,-7.0153,-7.0187,-7.0187,0.0,-7.0187,-7.0187,-7.0222,-7.1015,-7.1394,-7.1429,-7.2153,-7.2506,-7.2464,-7.2252,-7.2125,-7.2125,-7.191,-7.1867,-7.1867,-7.1867,-7.1867,-7.1824,-7.178,-7.1336,-7.0721,-7.0678,-7.0234,-6.973,-6.962,-6.9459,-6.9238,-6.8664,-6.8417,-6.8205,-6.789,-6.7799,-6.7799,-6.7799,-6.7638,-6.7516,-6.7475,-6.7516,-6.7557,-6.7759,-6.7799,-6.7879,-6.8044,-6.8083,-6.8083,-6.8083,-6.8083,-6.8083,-6.8083,-6.8083,-6.8083,-6.8083,-6.8083,-6.8083,-6.8083,-6.8083,-6.8083,-6.8083,-6.8049,-6.7704,-6.7014,-6.698,-6.6911,-6.6773,-6.5393,-6.4669,-6.46,-6.391,-6.36,-6.36,-6.36,-6.36,0.0,0.0,0.0,0.0,0.0,0.0,0.0,0.0,0.0,0.0,0.0,0.0,0.0,0.0,0.0,0.0,0.0,0.0,0.0,0.0,0.0,0.0,0.0,0.0,0.0,0.0,0.0,0.0,0.0,0.0,0.0,0.0,0.0,0.0,0.0,-6.8389,-6.8601,-6.8601,-6.8601,0.0,-6.8601,-6.8601,-6.8635,-7.0015,-7.0636,-7.0636,-7.0808,-7.0877,-7.0877,-7.0836,-7.0795,-7.0795,-7.0753,-7.0753,-7.0753,-7.0753,-7.0753,-7.067,-7.0336,-7.0233,-7.018,-6.9842,-6.974,-6.967,-6.9013,-6.8925,-6.8878,-6.8164,-6.808,-6.8126,-6.8073,-6.7919,-6.7799,-6.7799,-6.7759,-6.7678,-6.7516,-6.7597,-6.7759,-6.7799,-6.7919,-6.8044,-6.8083,-6.8083,-6.8083,-6.8083,-6.8083,-6.8083,-6.8083,-6.8083,-6.8083,-6.8083,-6.8083,-6.8083,-6.8083,-6.8083,-6.8083,-6.8083,-6.7566,-6.7152,-6.7014,-6.698,-6.6428,-6.5221,-6.4876,-6.4427,-6.3841,-6.3669,-6.36,-6.36,-6.36,-6.36,0.0,0.0,0.0,0.0,0.0,0.0,0.0,0.0,0.0,0.0,0.0,0.0,0.0,0.0,0.0,0.0,0.0,0.0,0.0,0.0,0.0,0.0,0.0,0.0,0.0,0.0,0.0,0.0,0.0,0.0,0.0,0.0,0.0,0.0,-6.7959,-6.8004,-6.8083,-6.8083,-6.8083,-6.8083,-6.8083,-6.8083,-6.8152,-6.9325,-7.0049,-7.0394,-7.0394,-7.0394,-7.0394,-7.0394,-7.0394,-7.0394,-7.0394,-7.0394,-7.0394,-7.0394,-7.0394,-7.0394,-7.0148,-6.9825,-6.9474,-6.9233,-6.9028,-6.8734,-6.8323,-6.8302,-6.828,-6.7902,-6.7799,-6.7839,-6.7959,-6.7879,-6.7839,-6.7919,-6.7879,-6.7759,-6.7678,-6.7799,-6.7925,-6.7925,-6.8004,-6.8083,-6.8083,-6.8083,-6.8083,-6.8083,-6.8083,-6.8083,-6.8083,-6.8083,-6.8083,-6.8083,-6.8083,-6.8083,-6.8083,-6.8083,-6.7945,-6.7601,-6.7187,-6.6669,-6.5911,-6.5911,-6.5531,-6.4703,-6.4358,-6.3979,-6.36,-6.36,-6.36,-6.36,-6.36,-6.36,0.0,0.0,0.0,0.0,0.0,0.0,0.0,0.0,0.0,0.0,0.0,0.0,0.0,0.0,0.0,0.0,0.0,0.0,0.0,0.0,0.0,0.0,0.0,0.0,0.0,0.0,0.0,0.0,0.0,0.0,0.0,0.0,-6.7879,-6.8044,-6.7919,-6.7959,-6.8083,-6.8083,-6.8083,-6.8083,-6.8083,-6.8083,-6.8118,-6.8773,-6.9428,-6.998,-6.998,-6.998,-6.998,-6.998,-6.998,-6.998,-6.998,-6.998,-6.998,-6.998,-6.998,-6.998,-6.994,-6.9404,-6.8692,-6.8685,-6.8274,-6.7759,-6.7759,-6.7759,-6.7799,-6.7799,-6.7719,-6.7638,-6.7799,-6.7839,-6.7919,-6.8044,-6.7965,-6.7839,-6.7839,-6.7965,-6.8083,-6.8083,-6.8083,-6.8083,-6.8083,-6.8083,-6.8083,-6.8083,-6.8083,-6.8083,-6.8083,-6.8083,-6.8083,-6.8083,-6.8083,-6.8083,-6.8083,-6.798,-6.7635,-6.7014,-6.6738,-6.6014,-6.4738,-6.4565,-6.4496,-6.4496,-6.391,-6.36,-6.36,-6.36,-6.36,-6.36,-6.36,-6.36,0.0,0.0,0.0,0.0,0.0,0.0,0.0,0.0,0.0,0.0,0.0,0.0,0.0,0.0,0.0,0.0,0.0,0.0,0.0,0.0,0.0,0.0,0.0,0.0,0.0,0.0,0.0,0.0,0.0,0.0,0.0,-6.7719,-6.7799,-6.7839,-6.7965,-6.8044,-6.8083,-6.8083,-6.8083,-6.8083,-6.8083,-6.8083,-6.8083,-6.8221,-6.829,-6.8394,-6.8394,-6.8394,-6.8394,-6.8394,-6.8394,-6.8394,-6.8394,-6.8394,-6.8394,-6.8394,-6.8394,-6.8354,-6.8229,-6.808,-6.7896,-6.7769,-6.7619,-6.7516,-6.7516,-6.7638,-6.7799,-6.7799,-6.7919,-6.8039,-6.8044,-6.8044,-6.8078,-6.8083,-6.8083,-6.8044,-6.8044,-6.8083,-6.8083,-6.8083,-6.8083,-6.8083,-6.8083,-6.8083,-6.8083,-6.8083,-6.8083,-6.8083,-6.8083,-6.8083,-6.8083,-6.8083,-6.8083,-6.8083,-6.8083,-6.7497,-6.7083,-6.7014,-6.5738,-6.491,-6.4703,-6.4083,-6.3738,-6.3738,-6.3634,-6.36,-6.36,-6.36,-6.36,-6.36,-6.36,-6.36,0.0,0.0,0.0,0.0,0.0,0.0,0.0,0.0,0.0,0.0,0.0,0.0,0.0,0.0,0.0,0.0,0.0,0.0,0.0,0.0,0.0,0.0,0.0,0.0,0.0,0.0,0.0,0.0,0.0,0.0,-6.7638,-6.7879,-6.7999,-6.7999,-6.8044,-6.8083,-6.8083,-6.8083,-6.8083,-6.8083,-6.8083,-6.8083,-6.8083,-6.8083,-6.8083,-6.8083,-6.8083,-6.8083,-6.8083,-6.8083,-6.8083,-6.8083,-6.8083,-6.8083,-6.8083,-6.8083,-6.8083,-6.8083,-6.7999,-6.7919,-6.7799,-6.7678,-6.7678,-6.7678,-6.7678,-6.7799,-6.7999,-6.7999,-6.8004,-6.8083,-6.8083,-6.8083,-6.8083,-6.8083,-6.8083,-6.8083,-6.8083,-6.8083,-6.8083,-6.8083,-6.8083,-6.8083,-6.8083,-6.8083,-6.8083,-6.8083,-6.8083,-6.7945,-6.7532,-6.7463,-6.7463,-6.7463,-6.7083,-6.7014,-6.7428,-6.6807,-6.6186,-6.5738,-6.5083,-6.4496,-6.4083,-6.3772,-6.36,-6.36,-6.36,-6.36,-6.36,-6.36,-6.36,-6.36,-6.36,-6.36,0.0,0.0,0.0,0.0,0.0,0.0,0.0,0.0,0.0,0.0,0.0,0.0,0.0,0.0,0.0,0.0,0.0,0.0,0.0,0.0,0.0,0.0,0.0,0.0,0.0,0.0,0.0,0.0,0.0,0.0,-6.7879,-6.8004,-6.8083,-6.8083,-6.8083,-6.8083,-6.8083,-6.8083,-6.8083,-6.8083,-6.8083,-6.8083,-6.8083,-6.8083,-6.8083,-6.8083,-6.8083,-6.8083,-6.8083,-6.8083,-6.8083,-6.8083,-6.8083,-6.8083,-6.8083,-6.8083,-6.8083,-6.8083,-6.8083,-6.7999,-6.7879,-6.7879,-6.7879,-6.7879,-6.7879,-6.7999,-6.8083,-6.8083,-6.8083,-6.8083,-6.8083,-6.8083,-6.8083,-6.8083,-6.8083,-6.8083,-6.8083,-6.8083,-6.8083,-6.8083,-6.8083,-6.8083,-6.8083,-6.8083,-6.8083,-6.8083,-6.7945,-6.7601,-6.7049,-6.6842,-6.6704,-6.6704,-6.6221,-6.6117,-6.6669,-6.6014,-6.5324,-6.4738,-6.4531,-6.4152,-6.36,-6.36,-6.36,-6.36,-6.36,-6.36,-6.36,-6.36,-6.36,-6.36,-6.36,-6.36,0.0,0.0,0.0,0.0,0.0,0.0,0.0,0.0,0.0,0.0,0.0,0.0,0.0,0.0,0.0,0.0,0.0,0.0,0.0,0.0,0.0,0.0,0.0,0.0,0.0,0.0,0.0,0.0,0.0,0.0,-6.8083,-6.8083,-6.8083,-6.8083,-6.8083,-6.8083,-6.8083,-6.8083,-6.8083,-6.8083,-6.8083,-6.8083,-6.8083,-6.8083,-6.8083,-6.8083,-6.8083,-6.8083,-6.8083,-6.8083,-6.8083,-6.8083,-6.8083,-6.8083,-6.8083,-6.8083,-6.8083,-6.8083,-6.8083,-6.8083,-6.8083,-6.8083,-6.8083,-6.8083,-6.8083,-6.8083,-6.8083,-6.8083,-6.8083,-6.8083,-6.8083,-6.8083,-6.8083,-6.8083,-6.8083,-6.8083,-6.8083,-6.8083,-6.8083,-6.8083,-6.8083,-6.8083,-6.8083,-6.8083,-6.8083,-6.8083,-6.7497,-6.7014,-6.698,-6.6393,-6.5945,-6.5945,-6.5911,-6.5911,-6.5945,-6.5221,-6.4738,-6.4703,-6.4048,-6.3634,-6.36,-6.36,-6.36,-6.36,-6.36,-6.36,-6.36,-6.36,-6.36,-6.36,-6.36,-6.36,0.0,0.0,0.0,0.0,0.0,0.0,0.0,0.0,0.0,0.0,0.0,0.0,0.0,0.0,0.0,0.0,0.0,0.0,0.0,0.0,0.0,0.0,0.0,0.0,0.0,0.0,0.0,0.0,0.0,0.0,-6.7919,-6.8004,-6.8083,-6.8083,-6.8083,-6.8083,-6.8083,-6.8083,-6.8083,-6.8083,-6.8083,-6.8083,-6.8083,-6.8083,-6.8083,-6.8083,-6.8083,-6.8083,-6.8083,-6.8083,-6.8083,-6.8083,-6.8083,-6.8083,-6.8083,-6.8083,-6.8083,-6.8083,-6.8083,-6.8083,-6.8083,-6.8083,-6.8083,-6.8083,-6.8083,-6.8083,-6.8083,-6.8083,-6.8083,-6.8083,-6.8083,-6.8083,-6.8083,-6.8083,-6.8083,-6.8083,-6.8083,-6.8083,-6.8083,-6.8083,-6.8083,-6.8083,-6.8083,-6.8083,-6.7945,-6.7463,-6.7152,-6.6635,-6.5635,-6.529,-6.5117,-6.5117,-6.4703,-6.46,-6.5083,-6.4427,-6.3979,-6.3979,-6.3738,-6.36,-6.36,-6.36,-6.36,-6.36,-6.36,-6.36,-6.36,-6.36,-6.36,-6.36,-6.36,-6.36,-6.2381,0.0,0.0,0.0,0.0,0.0,0.0,0.0,0.0,0.0,0.0,0.0,0.0,0.0,0.0,0.0,0.0,0.0,0.0,0.0,0.0,0.0,0.0,0.0,0.0,0.0,0.0,0.0,0.0,0.0,-6.7919,-6.8039,-6.8083,-6.8083,-6.8083,-6.8083,-6.8083,-6.8083,-6.8083,-6.8083,-6.8083,-6.8083,-6.8083,-6.8083,-6.8083,-6.8083,-6.8083,-6.8083,-6.8083,-6.8083,-6.8083,-6.8083,-6.8083,-6.8083,-6.8083,-6.8083,-6.8083,-6.8083,-6.8083,-6.8083,-6.8083,-6.8083,-6.8083,-6.8083,-6.8083,-6.8083,-6.8083,-6.8083,-6.8083,-6.8083,-6.8083,-6.8083,-6.8083,-6.8083,-6.8083,-6.8083,-6.8083,-6.8083,-6.8083,-6.8083,-6.8083,-6.8083,-6.8083,-6.7876,-6.7566,-6.7049,-6.6566,-6.5842,-6.4841,-6.4462,-6.4324,-6.4324,-6.3876,-6.3807,-6.4289,-6.3876,-6.36,-6.36,-6.36,-6.36,-6.36,-6.36,-6.36,-6.36,-6.36,-6.36,-6.36,-6.36,-6.36,-6.36,-6.36,-6.36,0.0,0.0,0.0,0.0,0.0,0.0,0.0,0.0,0.0,0.0,0.0,0.0,0.0,0.0,0.0,0.0,0.0,0.0,0.0,0.0,0.0,0.0,0.0,0.0,0.0,0.0,0.0,0.0,0.0,-6.8049,-6.8049,-6.8083,-6.8083,-6.8083,-6.8083,-6.8083,-6.8083,-6.8083,-6.8083,-6.8083,-6.8083,-6.8083,-6.8083,-6.8083,-6.8083,-6.8083,-6.8083,-6.8083,-6.8083,-6.8083,-6.8083,-6.8083,-6.8083,-6.8083,-6.8083,-6.8083,-6.8083,-6.8083,-6.8083,-6.8083,-6.8083,-6.8083,-6.8083,-6.8083,-6.8083,-6.8083,-6.8083,-6.8083,-6.8083,-6.8083,-6.8083,-6.8083,-6.8083,-6.8083,-6.8083,-6.8083,-6.8083,-6.8083,-6.8083,-6.8083,-6.8083,-6.8049,-6.8049,-6.7463,-6.6945,-6.6945,-6.5669,-6.4703,-6.4669,-6.4048,-6.36,-6.36,-6.36,-6.36,-6.36,-6.36,-6.36,-6.36,-6.36,-6.36,-6.36,-6.36,-6.36,-6.36,-6.36,-6.36,-6.36,-6.36,-6.36,-6.36,-6.36,-6.36,-6.2381,0.0,0.0,0.0,0.0,0.0,0.0,0.0,0.0,0.0,0.0,0.0,0.0,0.0,0.0,0.0,0.0,0.0,0.0,0.0,0.0,0.0,0.0,0.0,0.0,0.0,0.0,0.0,-6.6941,-6.729,-6.729,-6.7807,-6.8083,-6.8083,-6.8083,-6.8083,-6.8083,-6.8083,-6.8083,-6.8083,-6.8083,-6.8083,-6.8083,-6.8083,-6.8083,-6.8083,-6.8083,-6.8083,-6.8083,-6.8083,-6.8083,-6.8083,-6.8083,-6.8083,-6.8083,-6.8083,-6.8083,-6.8083,-6.8083,-6.8083,-6.8083,-6.8083,-6.8083,-6.8083,-6.8083,-6.8083,-6.8083,-6.8083,-6.8083,-6.8083,-6.8083,-6.8083,-6.8083,-6.8083,-6.8083,-6.8083,-6.8083,-6.7669,-6.7463,-6.798,-6.7669,-6.729,-6.729,-6.6669,-6.6014,-6.5428,-6.4979,-6.4496,-6.3979,-6.3738,-6.36,-6.36,-6.36,-6.36,-6.36,-6.36,-6.36,-6.36,-6.36,-6.36,-6.36,-6.36,-6.36,-6.36,-6.36,-6.36,-6.36,-6.36,-6.36,-6.36,-6.36,-6.36,-6.2381,-6.2381,-6.2381,-6.2381,0.0,0.0,0.0,0.0,0.0,0.0,0.0,0.0,0.0,0.0,0.0,0.0,0.0,0.0,0.0,0.0,0.0,0.0,0.0,0.0,0.0,0.0,0.0,0.0,-6.629,-6.6531,-6.6531,-6.7221,-6.7635,-6.7635,-6.7945,-6.8083,-6.8083,-6.8083,-6.8083,-6.8083,-6.8083,-6.8083,-6.8083,-6.8083,-6.8083,-6.8083,-6.8083,-6.8083,-6.8083,-6.8083,-6.8083,-6.8083,-6.8083,-6.8083,-6.8083,-6.8083,-6.8083,-6.8083,-6.8083,-6.8083,-6.8083,-6.8083,-6.8083,-6.8083,-6.8083,-6.8083,-6.8083,-6.8083,-6.8083,-6.8083,-6.8083,-6.8083,-6.8083,-6.8083,-6.8083,-6.8014,-6.7704,-6.729,-6.7118,-6.7566,-6.7049,-6.6531,-6.6531,-6.5911,-6.5221,-6.4772,-6.4427,-6.4083,-6.3669,-6.36,-6.36,-6.36,-6.36,-6.36,-6.36,-6.36,-6.36,-6.36,-6.36,-6.36,-6.36,-6.36,-6.36,-6.36,-6.36,-6.36,-6.36,-6.36,-6.36,-6.36,-6.36,-6.36,-6.2381,-6.2381,-6.2381,-6.2381,-6.2381,0.0,-6.2381,-6.2381,0.0,0.0,0.0,0.0,0.0,0.0,0.0,0.0,0.0,0.0,0.0,0.0,0.0,0.0,0.0,0.0,0.0,0.0,0.0,-6.5635,-6.5704,-6.5807,-6.5876,-6.6497,-6.6876,-6.6876,-6.7566,-6.798,-6.798,-6.8049,-6.8083,-6.8083,-6.8083,-6.8083,-6.8083,-6.8083,-6.8083,-6.8083,-6.8083,-6.8083,-6.8083,-6.8083,-6.8083,-6.8083,-6.8083,-6.8083,-6.8083,-6.8083,-6.8083,-6.8083,-6.8083,-6.8083,-6.8083,-6.8083,-6.8083,-6.8083,-6.8083,-6.8083,-6.8083,-6.8083,-6.8083,-6.8083,-6.8083,-6.8083,-6.8083,-6.798,-6.798,-6.7773,-6.7014,-6.6807,-6.6738,-6.6738,-6.6221,-6.5738,-6.5738,-6.5117,-6.4565,-6.4565,-6.4014,-6.36,-6.36,-6.36,-6.36,-6.36,-6.36,-6.36,-6.36,-6.36,-6.36,-6.36,-6.36,-6.36,-6.36,-6.36,-6.36,-6.36,-6.36,-6.36,-6.36,-6.36,-6.36,-6.36,-6.36,-6.36,-6.2381,-6.2381,-6.2381,-6.2381,-6.2381,0.0,-6.2381,-6.2381,0.0,0.0,0.0,0.0,0.0,0.0,0.0,0.0,0.0,0.0,0.0,0.0,0.0,0.0,0.0,0.0,0.0,0.0,-6.3861,-6.4048,-6.46,-6.5221,-6.5842,-6.6014,-6.6083,-6.6083,-6.6807,-6.7187,-6.7187,-6.7807,-6.8083,-6.8083,-6.8083,-6.8083,-6.8083,-6.8083,-6.8083,-6.8083,-6.8083,-6.8083,-6.8083,-6.8083,-6.8083,-6.8083,-6.8083,-6.8083,-6.8083,-6.8083,-6.8083,-6.8083,-6.8083,-6.8083,-6.8083,-6.8083,-6.8083,-6.8083,-6.8083,-6.8083,-6.8083,-6.8083,-6.8083,-6.8083,-6.8083,-6.8083,-6.7945,-6.7359,-6.7187,-6.7014,-6.6255,-6.56,-6.5152,-6.5152,-6.5014,-6.4945,-6.4945,-6.4289,-6.3807,-6.3807,-6.3669,-6.36,-6.36,-6.36,-6.36,-6.36,-6.36,-6.36,-6.36,-6.36,-6.36,-6.36,-6.36,-6.36,-6.36,-6.36,-6.36,-6.36,-6.36,-6.36,-6.36,-6.36,-6.36,-6.36,-6.36,-6.36,0.0,0.0,0.0,-6.2381,0.0,0.0,0.0,-6.2381,0.0,0.0,0.0,0.0,0.0,0.0,0.0,0.0,0.0,0.0,0.0,0.0,0.0,0.0,0.0,0.0,0.0,0.0,-6.3489,-6.36,-6.3945,-6.4324,-6.4703,-6.5083,-6.529,-6.529,-6.6048,-6.6428,-6.6428,-6.6807,-6.7187,-6.7532,-6.7532,-6.7738,-6.8083,-6.8083,-6.8083,-6.8083,-6.8083,-6.8083,-6.8083,-6.8083,-6.8083,-6.8083,-6.8083,-6.8083,-6.8083,-6.8083,-6.8083,-6.8083,-6.8083,-6.8083,-6.8083,-6.8083,-6.8083,-6.8083,-6.8083,-6.8083,-6.8083,-6.8083,-6.8083,-6.8014,-6.7635,-6.7532,-6.7359,-6.6635,-6.6428,-6.6221,-6.5462,-6.4979,-6.46,-6.422,-6.4152,-6.4152,-6.4152,-6.3841,-6.36,-6.36,-6.36,-6.36,-6.36,-6.36,-6.36,-6.36,-6.36,-6.36,-6.36,-6.36,-6.36,-6.36,-6.36,-6.36,-6.36,-6.36,-6.36,-6.36,-6.36,-6.36,-6.36,-6.36,-6.36,-6.36,-6.36,-6.36,0.0,0.0,0.0,0.0,0.0,-6.2381,0.0,0.0,0.0,0.0,0.0,0.0,0.0,0.0,0.0,0.0,0.0,0.0,0.0,0.0,0.0,0.0,0.0,0.0,0.0,0.0,-6.36,-6.36,-6.36,-6.36,-6.36,-6.4152,-6.4496,-6.4496,-6.5255,-6.5669,-6.5669,-6.5807,-6.6186,-6.6773,-6.6773,-6.7083,-6.7669,-6.7669,-6.7669,-6.7669,-6.7807,-6.7876,-6.7911,-6.8049,-6.8083,-6.8083,-6.8083,-6.8083,-6.8083,-6.8083,-6.8083,-6.8083,-6.8083,-6.8083,-6.8083,-6.8083,-6.8083,-6.8083,-6.8083,-6.8083,-6.8083,-6.8083,-6.798,-6.7738,-6.7152,-6.6876,-6.66,-6.5842,-6.5669,-6.5428,-6.4669,-6.4496,-6.4324,-6.3703,-6.36,-6.36,-6.36,-6.36,-6.36,-6.36,-6.36,-6.36,-6.36,-6.36,-6.36,-6.36,-6.36,-6.36,-6.36,-6.36,-6.36,-6.36,-6.36,-6.36,-6.36,-6.36,-6.36,-6.36,-6.36,-6.36,-6.36,-6.36,-6.36,-6.36,-6.36,-6.36,0.0,0.0,0.0,0.0,-6.2381,0.0,0.0,0.0,0.0,0.0,0.0,0.0,0.0,0.0,0.0,0.0,0.0,0.0,0.0,0.0,0.0,0.0,0.0,0.0,0.0,0.0,0.0,-6.36,-6.36,-6.36,-6.36,-6.3669,-6.3703,-6.3703,-6.4462,-6.4841,-6.4841,-6.5531,-6.5911,-6.6014,-6.6014,-6.6048,-6.6152,-6.6152,-6.6152,-6.6186,-6.6842,-6.7118,-6.7187,-6.7807,-6.8083,-6.8083,-6.8083,-6.8083,-6.8083,-6.8083,-6.8083,-6.8083,-6.8083,-6.8083,-6.8083,-6.8083,-6.8083,-6.8083,-6.8083,-6.8083,-6.8083,-6.8083,-6.7635,-6.7083,-6.7014,-6.6497,-6.5807,-6.5014,-6.4841,-6.4634,-6.3876,-6.3703,-6.3703,-6.36,-6.36,-6.36,-6.36,-6.36,-6.36,-6.36,-6.36,-6.36,-6.36,-6.36,-6.36,-6.36,-6.36,-6.36,-6.36,-6.36,-6.36,-6.36,-6.36,-6.36,-6.36,-6.36,-6.36,-6.36,-6.36,-6.36,-6.36,-6.36,-6.36,-6.36,-6.36,-6.36,0.0,0.0,0.0,0.0,0.0,0.0,-6.2381,0.0,-6.2381,0.0,0.0,0.0,0.0,0.0,0.0,0.0,0.0,0.0,0.0,0.0,0.0,0.0,0.0,0.0,0.0,0.0,0.0,0.0,0.0,-6.36,-6.36,-6.36,-6.36,-6.36,-6.391,-6.4048,-6.4048,-6.4393,-6.4772,-6.5186,-6.5186,-6.5428,-6.5876,-6.5876,-6.5876,-6.5911,-6.6221,-6.6359,-6.6359,-6.6669,-6.6807,-6.6807,-6.6807,-6.7325,-6.8083,-6.8083,-6.8083,-6.8083,-6.8083,-6.8083,-6.8083,-6.8083,-6.8083,-6.8083,-6.8083,-6.7807,-6.7463,-6.7463,-6.6911,-6.6255,-6.5773,-6.5428,-6.5014,-6.422,-6.4048,-6.3979,-6.3669,-6.36,-6.36,-6.36,-6.36,-6.36,-6.36,-6.36,-6.36,-6.36,-6.36,-6.36,-6.36,-6.36,-6.36,-6.36,-6.36,-6.36,-6.36,-6.36,-6.36,-6.36,-6.36,-6.36,-6.36,-6.36,-6.36,-6.36,-6.36,-6.36,-6.36,-6.36,-6.36,-6.36,-6.36,-6.36,-6.2448,0.0,0.0,0.0,0.0,0.0,0.0,0.0,0.0,0.0,0.0,0.0,0.0,0.0,-6.2313,-6.211,0.0,0.0,0.0,0.0,0.0,0.0,0.0,0.0,0.0,0.0,0.0,0.0,-6.36,0.0,-6.36,-6.36,-6.36,-6.36,-6.36,-6.36,-6.36,-6.36,-6.3876,-6.4393,-6.4393,-6.4703,-6.5255,-6.5255,-6.5255,-6.5255,-6.5462,-6.5566,-6.5566,-6.5807,-6.5876,-6.5876,-6.5876,-6.6531,-6.7497,-6.7497,-6.7497,-6.7532,-6.7738,-6.7911,-6.8083,-6.8083,-6.8083,-6.8049,-6.7842,-6.7428,-6.6945,-6.6738,-6.6152,-6.5428,-6.4841,-6.4565,-6.4255,-6.3738,-6.36,-6.36,-6.36,-6.36,-6.36,-6.36,-6.36,-6.36,-6.36,-6.36,-6.36,-6.36,-6.36,-6.36,-6.36,-6.36,-6.36,-6.36,-6.36,-6.36,-6.36,-6.36,-6.36,-6.36,-6.36,-6.36,-6.36,-6.36,-6.36,-6.36,-6.36,-6.36,-6.36,-6.36,-6.36,-6.36,-6.36,-6.36,0.0,0.0,0.0,-6.2381,0.0,0.0,0.0,0.0,-6.2381,0.0,0.0,0.0,0.0,-6.2381,-6.2144,-6.1467,-6.1941,0.0,0.0,0.0,0.0,0.0,0.0,0.0,0.0,0.0,0.0,0.0,-6.36,0.0,-6.36,-6.36,-6.36,-6.36,-6.36,-6.36,-6.36,-6.36,-6.36,-6.3634,-6.3634,-6.3634,-6.3669,-6.3669,-6.3669,-6.3703,-6.4427,-6.4738,-6.4807,-6.5566,-6.5876,-6.5876,-6.5876,-6.5911,-6.5945,-6.5945,-6.5945,-6.6048,-6.6773,-6.7497,-6.8083,-6.8083,-6.8083,-6.798,-6.7256,-6.7014,-6.6842,-6.6117,-6.5359,-6.4738,-6.4703,-6.4152,-6.3634,-6.36,-6.36,-6.36,-6.36,-6.36,-6.36,-6.36,-6.36,-6.36,-6.36,-6.36,-6.36,-6.36,-6.36,-6.36,-6.36,-6.36,-6.36,-6.36,-6.36,-6.36,-6.36,-6.36,-6.36,-6.36,-6.36,-6.36,-6.36,-6.36,-6.36,-6.36,-6.36,-6.36,-6.36,-6.36,-6.36,-6.36,-6.36,-6.36,0.0,0.0,-6.3869,-6.3869,0.0,0.0,0.0,0.0,0.0,0.0,0.0,0.0,0.0,-6.2381,-6.2313,-6.2076,-6.2245,-6.2397,0.0,0.0,0.0,0.0,0.0,0.0,0.0,0.0,0.0,-6.36,-6.36,-6.36,0.0,-6.36,-6.36,-6.36,-6.36,-6.36,-6.36,-6.36,-6.36,-6.36,-6.36,-6.36,-6.36,-6.36,-6.36,-6.36,-6.3841,-6.3979,-6.3979,-6.4255,-6.4358,-6.4358,-6.4358,-6.4358,-6.4496,-6.5497,-6.5876,-6.5911,-6.6186,-6.6428,-6.6635,-6.6635,-6.6635,-6.66,-6.6324,-6.5876,-6.5428,-6.5186,-6.4565,-6.3979,-6.3979,-6.3772,-6.36,-6.36,-6.36,-6.36,-6.36,-6.36,-6.36,-6.36,-6.36,-6.36,-6.36,-6.36,-6.36,-6.36,-6.36,-6.36,-6.36,-6.36,-6.36,-6.36,-6.36,-6.36,-6.36,-6.36,-6.36,-6.36,-6.36,-6.36,-6.36,-6.36,-6.36,-6.36,-6.36,-6.36,-6.36,-6.36,-6.36,-6.36,-6.36,-6.36,-6.4681,-6.4613,0.0,-6.4613,-6.4241,0.0,-6.3903,0.0,0.0,0.0,0.0,0.0,0.0,-6.2584,-6.2381,-6.2381,-6.2459,-6.2654,0.0,-6.2761,0.0,0.0,0.0,0.0,0.0,0.0,-6.3324,-6.3565,-6.36,-6.36,0.0,0.0,-6.36,-6.36,-6.36,-6.36,-6.36,-6.36,-6.36,-6.36,-6.36,-6.36,-6.36,-6.36,-6.36,-6.36,-6.36,-6.36,-6.36,-6.36,-6.36,-6.36,-6.36,-6.36,-6.3703,-6.4703,-6.5221,-6.5462,-6.5462,-6.5635,-6.5876,-6.5876,-6.5876,-6.5842,-6.5531,-6.5117,-6.4703,-6.4703,-6.4152,-6.3669,-6.391,-6.3807,-6.36,-6.36,-6.36,-6.36,-6.36,-6.36,-6.36,-6.36,-6.36,-6.36,-6.36,-6.36,-6.36,-6.36,-6.36,-6.36,-6.36,-6.36,-6.36,-6.36,-6.36,-6.36,-6.36,-6.36,-6.36,-6.36,-6.36,-6.36,-6.36,-6.36,-6.3703,-6.3979,-6.3738,-6.3738,-6.3979,-6.3738,-6.36,-6.36,-6.36,-6.36]},{"header":{"parameterUnit":"m.s-1","parameterCategory":1,"la1":30.6,"la2":29.2853,"lo1":-89.7004,"lo2":-87.6739,"dy":0.0162,"dx":0.0183,"nx":112,"ny":82,"refTime":"2023-06-15T00:00:00:Z","depth":0,"parameterNumber":3,"parameterNumberName":"V-component_of_WINDS"},"data":[0.0,0.0,0.0,0.0,0.0,0.0,0.0,0.0,0.0,0.0,0.0,0.0,0.0,0.0,0.0,0.0,0.0,0.0,0.0,0.0,0.0,0.0,0.0,0.0,0.0,0.0,0.0,0.0,0.0,0.0,0.0,0.0,0.0,0.0,0.0,0.0,0.0,0.0,0.0,0.0,0.0,0.0,0.0,0.0,0.0,0.0,0.0,0.0,0.0,0.0,0.0,0.0,0.0,0.0,0.0,0.0,0.0,0.0,0.0,0.0,0.0,0.0,0.0,0.0,0.0,0.0,0.0,0.0,0.0,0.0,0.0,0.0,0.0,0.0,0.0,0.0,0.0,0.0,0.0,0.0,0.0,0.0,0.0,0.0,0.0,0.0,0.0,0.0,0.0,0.0,0.0,-2.814,-2.7822,-2.7642,-2.7581,-2.7358,-2.7194,-2.7194,0.0,0.0,0.0,0.0,0.0,0.0,0.0,0.0,0.0,0.0,0.0,0.0,0.0,0.0,0.0,0.0,0.0,0.0,0.0,0.0,0.0,0.0,0.0,0.0,0.0,0.0,0.0,0.0,0.0,0.0,0.0,0.0,0.0,0.0,0.0,0.0,0.0,0.0,0.0,0.0,0.0,0.0,0.0,0.0,0.0,0.0,0.0,0.0,0.0,0.0,0.0,0.0,0.0,0.0,0.0,0.0,0.0,0.0,0.0,0.0,0.0,0.0,0.0,0.0,0.0,0.0,0.0,0.0,0.0,0.0,0.0,0.0,0.0,0.0,0.0,0.0,0.0,0.0,0.0,0.0,0.0,0.0,0.0,0.0,0.0,0.0,0.0,0.0,0.0,0.0,0.0,0.0,0.0,0.0,0.0,0.0,0.0,0.0,0.0,0.0,0.0,0.0,0.0,0.0,-2.8856,-2.8457,-2.8397,-2.8217,-2.796,-2.79,-2.7719,-2.7461,0.0,0.0,0.0,0.0,0.0,0.0,0.0,0.0,0.0,0.0,0.0,0.0,0.0,0.0,0.0,0.0,0.0,0.0,0.0,0.0,0.0,0.0,0.0,0.0,0.0,0.0,0.0,0.0,0.0,0.0,0.0,0.0,0.0,0.0,0.0,0.0,0.0,0.0,0.0,0.0,0.0,0.0,0.0,0.0,0.0,0.0,0.0,0.0,0.0,0.0,0.0,0.0,0.0,0.0,0.0,0.0,0.0,0.0,0.0,0.0,0.0,0.0,0.0,0.0,0.0,0.0,0.0,0.0,0.0,0.0,0.0,0.0,0.0,0.0,0.0,0.0,0.0,0.0,0.0,0.0,0.0,0.0,0.0,0.0,0.0,0.0,0.0,0.0,0.0,0.0,0.0,0.0,0.0,0.0,0.0,0.0,0.0,0.0,0.0,0.0,0.0,0.0,0.0,-2.8975,-2.8934,-2.8815,-2.8636,-2.8457,-2.8277,-2.808,-2.784,-2.7521,-2.7401,0.0,0.0,0.0,0.0,0.0,0.0,0.0,0.0,0.0,0.0,0.0,0.0,0.0,0.0,0.0,0.0,0.0,0.0,0.0,0.0,0.0,0.0,0.0,0.0,0.0,0.0,0.0,0.0,0.0,0.0,0.0,0.0,0.0,0.0,0.0,0.0,0.0,0.0,0.0,0.0,0.0,0.0,0.0,0.0,0.0,0.0,0.0,0.0,0.0,0.0,0.0,0.0,0.0,0.0,0.0,0.0,0.0,0.0,0.0,0.0,0.0,0.0,0.0,0.0,0.0,0.0,0.0,0.0,0.0,0.0,0.0,0.0,0.0,0.0,0.0,0.0,0.0,0.0,0.0,0.0,0.0,0.0,0.0,0.0,0.0,0.0,0.0,0.0,0.0,0.0,0.0,0.0,0.0,0.0,0.0,0.0,0.0,0.0,0.0,0.0,0.0,0.0,-2.8975,-2.8975,-2.8975,-2.8755,-2.8636,-2.8636,-2.8379,-2.808,-2.7762,-2.7642,0.0,0.0,0.0,0.0,0.0,0.0,0.0,0.0,0.0,0.0,0.0,0.0,0.0,0.0,0.0,0.0,0.0,0.0,0.0,0.0,0.0,0.0,0.0,0.0,0.0,0.0,0.0,0.0,0.0,0.0,0.0,0.0,0.0,0.0,0.0,0.0,0.0,0.0,0.0,0.0,0.0,0.0,0.0,0.0,0.0,0.0,0.0,0.0,0.0,0.0,0.0,0.0,0.0,0.0,0.0,0.0,0.0,0.0,0.0,0.0,0.0,0.0,0.0,0.0,0.0,0.0,0.0,0.0,0.0,0.0,0.0,0.0,0.0,0.0,0.0,0.0,0.0,0.0,0.0,0.0,0.0,0.0,0.0,0.0,0.0,0.0,0.0,0.0,0.0,0.0,0.0,0.0,0.0,0.0,0.0,0.0,0.0,0.0,0.0,0.0,0.0,0.0,-2.8975,-2.8975,-2.8975,-2.8975,-2.8975,-2.8975,-2.8916,-2.8815,-2.8457,-2.814,0.0,0.0,0.0,0.0,0.0,0.0,0.0,0.0,0.0,0.0,0.0,0.0,0.0,0.0,0.0,0.0,0.0,0.0,0.0,0.0,0.0,0.0,0.0,0.0,0.0,0.0,0.0,0.0,0.0,0.0,0.0,0.0,0.0,0.0,0.0,0.0,0.0,0.0,0.0,0.0,0.0,0.0,0.0,0.0,0.0,0.0,0.0,0.0,0.0,0.0,0.0,0.0,0.0,0.0,0.0,0.0,0.0,0.0,0.0,0.0,0.0,0.0,0.0,0.0,0.0,0.0,0.0,0.0,0.0,0.0,0.0,0.0,0.0,0.0,0.0,0.0,0.0,0.0,0.0,0.0,0.0,0.0,0.0,0.0,0.0,0.0,0.0,0.0,0.0,0.0,0.0,0.0,0.0,0.0,0.0,0.0,0.0,0.0,0.0,0.0,0.0,0.0,-2.9195,-2.925,0.0,-2.9195,-2.925,-2.9012,-2.8975,-2.8874,-2.8517,0.0,0.0,0.0,0.0,0.0,0.0,0.0,0.0,0.0,0.0,0.0,0.0,0.0,0.0,0.0,0.0,0.0,0.0,0.0,0.0,0.0,0.0,0.0,0.0,0.0,0.0,0.0,0.0,0.0,0.0,0.0,0.0,0.0,0.0,0.0,0.0,0.0,0.0,0.0,0.0,0.0,0.0,0.0,0.0,0.0,0.0,0.0,0.0,0.0,0.0,0.0,0.0,0.0,0.0,0.0,0.0,0.0,0.0,0.0,0.0,0.0,0.0,0.0,0.0,0.0,0.0,0.0,0.0,0.0,0.0,0.0,0.0,0.0,0.0,0.0,0.0,0.0,0.0,0.0,0.0,0.0,0.0,0.0,0.0,0.0,0.0,0.0,0.0,0.0,0.0,0.0,0.0,0.0,0.0,0.0,0.0,0.0,0.0,0.0,0.0,0.0,0.0,-2.936,-2.9599,-2.9672,0.0,-2.9617,-2.9672,-2.9397,-2.936,-2.9263,-2.8895,0.0,0.0,0.0,0.0,0.0,0.0,0.0,0.0,0.0,0.0,0.0,0.0,0.0,0.0,0.0,0.0,0.0,0.0,0.0,0.0,0.0,0.0,0.0,0.0,0.0,0.0,0.0,0.0,0.0,0.0,0.0,0.0,0.0,0.0,0.0,0.0,0.0,0.0,0.0,0.0,0.0,0.0,0.0,0.0,0.0,0.0,0.0,0.0,0.0,0.0,0.0,0.0,0.0,0.0,0.0,0.0,0.0,0.0,0.0,0.0,0.0,0.0,0.0,0.0,0.0,0.0,0.0,0.0,0.0,0.0,0.0,0.0,0.0,0.0,0.0,0.0,0.0,0.0,0.0,0.0,0.0,0.0,0.0,0.0,0.0,0.0,0.0,0.0,0.0,0.0,0.0,0.0,0.0,0.0,0.0,0.0,0.0,0.0,0.0,0.0,0.0,0.0,-3.0149,-3.0204,-3.0204,-3.0204,-3.0204,-3.0204,-3.0204,-3.0204,-3.002,0.0,0.0,0.0,0.0,0.0,0.0,0.0,0.0,0.0,0.0,0.0,0.0,0.0,0.0,0.0,0.0,0.0,0.0,0.0,0.0,0.0,0.0,0.0,0.0,0.0,0.0,0.0,0.0,0.0,0.0,0.0,0.0,0.0,0.0,0.0,0.0,0.0,0.0,0.0,0.0,0.0,0.0,0.0,0.0,0.0,0.0,0.0,0.0,0.0,0.0,0.0,0.0,0.0,0.0,0.0,0.0,0.0,0.0,0.0,0.0,0.0,0.0,0.0,0.0,0.0,0.0,0.0,0.0,0.0,0.0,0.0,0.0,0.0,0.0,0.0,0.0,0.0,0.0,0.0,0.0,0.0,0.0,0.0,0.0,0.0,0.0,0.0,0.0,0.0,0.0,0.0,0.0,0.0,0.0,0.0,0.0,0.0,0.0,0.0,0.0,0.0,0.0,0.0,-3.0185,-3.0442,-3.0516,-3.0241,-3.0442,-3.0497,-3.0222,-3.0204,-3.0149,-3.002,0.0,0.0,0.0,0.0,0.0,0.0,0.0,0.0,0.0,0.0,0.0,0.0,0.0,0.0,0.0,0.0,0.0,0.0,0.0,0.0,0.0,0.0,0.0,0.0,0.0,0.0,0.0,0.0,0.0,0.0,0.0,0.0,0.0,0.0,0.0,0.0,0.0,0.0,0.0,0.0,0.0,0.0,0.0,0.0,0.0,0.0,0.0,0.0,0.0,0.0,0.0,0.0,0.0,0.0,0.0,0.0,0.0,0.0,0.0,0.0,0.0,0.0,0.0,0.0,0.0,0.0,0.0,0.0,0.0,0.0,0.0,0.0,0.0,0.0,0.0,0.0,0.0,0.0,0.0,0.0,0.0,0.0,0.0,0.0,0.0,0.0,0.0,0.0,0.0,0.0,0.0,0.0,0.0,0.0,0.0,0.0,0.0,0.0,0.0,0.0,0.0,0.0,-3.0644,-3.0882,-3.0937,-3.0699,-3.0882,-3.0919,-3.0699,-3.0662,-3.0607,-3.0442,0.0,0.0,0.0,0.0,0.0,0.0,0.0,0.0,0.0,0.0,0.0,0.0,0.0,0.0,0.0,0.0,0.0,0.0,0.0,0.0,0.0,0.0,0.0,0.0,0.0,0.0,0.0,0.0,0.0,0.0,0.0,0.0,0.0,0.0,0.0,0.0,0.0,0.0,0.0,0.0,0.0,0.0,0.0,0.0,0.0,0.0,0.0,0.0,0.0,0.0,0.0,0.0,0.0,0.0,0.0,0.0,0.0,0.0,0.0,0.0,0.0,0.0,0.0,0.0,0.0,0.0,0.0,0.0,0.0,0.0,0.0,0.0,0.0,0.0,0.0,0.0,0.0,0.0,0.0,0.0,0.0,0.0,0.0,0.0,0.0,0.0,0.0,0.0,0.0,0.0,0.0,0.0,0.0,0.0,0.0,0.0,0.0,0.0,0.0,0.0,0.0,0.0,-3.1322,-3.1377,-3.1377,-3.1377,-3.1377,-3.1377,-3.1377,-3.1377,-3.1231,-3.0864,0.0,0.0,0.0,0.0,0.0,0.0,0.0,0.0,0.0,0.0,0.0,0.0,0.0,0.0,0.0,0.0,0.0,0.0,0.0,0.0,0.0,0.0,0.0,0.0,0.0,0.0,0.0,0.0,0.0,0.0,0.0,0.0,0.0,0.0,0.0,0.0,0.0,0.0,0.0,0.0,0.0,0.0,0.0,0.0,0.0,0.0,0.0,0.0,0.0,0.0,0.0,0.0,0.0,0.0,0.0,0.0,0.0,0.0,0.0,0.0,-3.1414,0.0,0.0,0.0,0.0,0.0,0.0,0.0,0.0,0.0,0.0,0.0,0.0,0.0,0.0,0.0,0.0,0.0,0.0,0.0,0.0,0.0,0.0,0.0,0.0,0.0,0.0,0.0,0.0,0.0,0.0,0.0,0.0,0.0,0.0,0.0,0.0,0.0,0.0,0.0,0.0,0.0,-3.1359,-3.1377,-3.1377,-3.1377,-3.1377,-3.1377,-3.1377,-3.1377,-3.1341,-3.1267,-3.1249,0.0,0.0,0.0,0.0,0.0,0.0,0.0,0.0,0.0,0.0,0.0,0.0,0.0,0.0,0.0,0.0,0.0,0.0,0.0,0.0,0.0,0.0,0.0,0.0,0.0,0.0,0.0,0.0,0.0,0.0,0.0,0.0,0.0,0.0,0.0,0.0,0.0,0.0,0.0,0.0,0.0,0.0,0.0,0.0,0.0,0.0,0.0,0.0,0.0,0.0,0.0,0.0,0.0,0.0,0.0,0.0,0.0,0.0,0.0,0.0,-3.2971,0.0,0.0,0.0,0.0,0.0,0.0,0.0,0.0,0.0,0.0,0.0,0.0,0.0,0.0,0.0,0.0,0.0,0.0,0.0,0.0,0.0,0.0,0.0,0.0,0.0,0.0,0.0,0.0,0.0,0.0,0.0,0.0,0.0,0.0,0.0,0.0,0.0,0.0,0.0,0.0,-3.1377,-3.1377,-3.1377,-3.1377,-3.1561,-3.1598,-3.1396,-3.1561,-3.1598,-3.1396,-3.1377,0.0,0.0,0.0,0.0,0.0,0.0,0.0,0.0,0.0,0.0,0.0,0.0,0.0,0.0,0.0,0.0,0.0,0.0,0.0,0.0,0.0,0.0,0.0,0.0,0.0,0.0,0.0,0.0,0.0,0.0,0.0,0.0,0.0,0.0,0.0,0.0,0.0,0.0,0.0,0.0,0.0,0.0,0.0,0.0,0.0,0.0,0.0,0.0,0.0,0.0,0.0,0.0,0.0,-3.2661,-3.2698,-3.2698,-3.2771,-3.2808,-3.2875,-3.4307,-3.4673,-3.434,0.0,0.0,0.0,0.0,0.0,0.0,0.0,0.0,0.0,0.0,0.0,0.0,0.0,0.0,0.0,0.0,0.0,0.0,0.0,0.0,0.0,0.0,0.0,0.0,0.0,-3.2588,-3.2404,0.0,0.0,0.0,0.0,0.0,0.0,0.0,0.0,0.0,0.0,0.0,0.0,-3.1469,-3.1488,-3.1506,-3.1579,-3.1909,-3.1964,-3.1616,-3.1909,-3.1964,-3.1616,-3.1524,-3.1488,0.0,0.0,0.0,0.0,0.0,0.0,0.0,0.0,0.0,0.0,0.0,0.0,0.0,0.0,0.0,0.0,0.0,0.0,0.0,0.0,0.0,0.0,0.0,0.0,0.0,0.0,0.0,0.0,0.0,0.0,0.0,0.0,-3.3163,-3.3205,0.0,0.0,0.0,0.0,0.0,0.0,0.0,0.0,0.0,0.0,0.0,0.0,0.0,-3.3096,-3.4492,-3.319,-3.2551,-3.2606,-3.2973,-3.3138,-3.3156,-3.3486,-3.3651,-3.3721,-3.5122,0.0,-3.2988,-3.4208,0.0,0.0,0.0,0.0,0.0,0.0,0.0,0.0,0.0,0.0,0.0,0.0,0.0,0.0,0.0,0.0,0.0,0.0,0.0,0.0,0.0,0.0,-3.2588,-3.2588,-3.2588,-3.257,0.0,-3.2166,-3.1818,-3.1451,-3.1377,0.0,0.0,0.0,0.0,0.0,0.0,0.0,-3.1873,-3.1928,-3.2056,-3.2404,-3.2478,-3.2496,-3.2441,-3.2478,-3.2496,-3.2441,-3.2111,-3.1928,-3.1928,-3.1524,0.0,0.0,0.0,0.0,0.0,0.0,0.0,0.0,0.0,0.0,0.0,0.0,0.0,0.0,0.0,0.0,0.0,0.0,0.0,0.0,0.0,0.0,0.0,0.0,0.0,0.0,0.0,0.0,0.0,-3.196,-3.2649,-3.2534,-3.2392,-3.1917,0.0,0.0,0.0,0.0,0.0,0.0,0.0,0.0,0.0,-3.696,-3.4922,-3.4588,-3.6118,-3.4821,-3.3819,-3.3285,-3.3468,-3.356,-3.356,-3.3725,-3.3817,-3.3817,-3.449,-3.4147,-3.3421,-3.4787,-3.4989,-3.4488,0.0,0.0,0.0,0.0,-3.3904,-3.4159,-3.4293,-3.5008,0.0,-3.5677,0.0,0.0,0.0,0.0,0.0,0.0,0.0,0.0,0.0,0.0,-3.383,-3.3626,-3.3626,-3.3502,-3.2991,-3.2808,-3.257,0.0,-3.2056,-3.2056,-3.2056,0.0,0.0,0.0,0.0,0.0,-3.2313,-3.2331,-3.2404,-3.257,-3.2808,-3.2845,-3.2625,-3.2808,-3.2845,-3.2606,-3.2441,-3.2239,-3.2019,-3.1836,-3.1543,0.0,0.0,0.0,0.0,0.0,0.0,0.0,0.0,0.0,0.0,0.0,0.0,0.0,0.0,0.0,0.0,0.0,0.0,0.0,0.0,0.0,0.0,0.0,0.0,0.0,0.0,0.0,0.0,-3.2711,-3.3385,-3.3663,-3.3844,-3.3476,0.0,0.0,0.0,0.0,0.0,0.0,-3.7292,-3.6406,-3.6846,-3.8903,-3.6473,-3.5732,-3.6912,-3.5736,-3.463,-3.3817,-3.3817,-3.3872,-3.3963,-3.3963,-3.4018,-3.4128,-3.4128,-3.4055,-3.4015,-3.5333,-3.5685,-3.5275,-3.4609,-3.4144,-3.3817,-3.4024,-3.4301,-3.4577,-3.5059,-3.6044,-3.7038,-3.6403,0.0,-3.7488,-3.722,0.0,0.0,0.0,0.0,-3.6499,-3.6567,-3.5772,-3.4853,-3.4508,-3.437,-3.4227,-3.3518,-3.3376,-3.323,0.0,-3.2588,-3.2588,-3.2588,0.0,0.0,0.0,0.0,-3.2625,-3.2735,-3.2753,-3.279,-3.29,-3.3193,-3.3248,-3.2936,-3.3193,-3.3248,-3.2936,-3.2716,-3.2514,-3.2331,-3.2111,-3.1854,-3.1543,0.0,0.0,0.0,0.0,0.0,0.0,0.0,0.0,0.0,0.0,0.0,0.0,0.0,0.0,0.0,0.0,0.0,0.0,0.0,0.0,0.0,0.0,0.0,0.0,0.0,0.0,0.0,0.0,0.0,-3.8554,-3.8057,0.0,0.0,0.0,0.0,-3.6912,-3.7506,-3.7846,-3.7846,-3.7847,-3.7907,-3.8036,-3.7003,-3.6257,-3.5986,-3.4933,-3.4214,-3.3817,-3.3817,-3.4018,-3.4367,-3.4367,-3.4587,-3.4972,-3.4972,-3.4733,-3.4471,-3.5517,-3.5089,-3.4006,-3.5275,-3.4952,-3.3886,-3.4577,-3.4853,-3.499,-3.5675,-3.6016,-3.6287,-3.7595,-3.7755,-3.7488,-3.7488,-3.6364,0.0,0.0,-3.5333,-3.5127,-3.547,-3.5264,-3.4853,-3.4508,-3.437,-3.4301,-3.3849,-3.378,-3.3541,0.0,-3.2588,-3.2588,-3.2588,0.0,-3.2588,-3.2588,-3.2588,-3.2735,-3.3138,-3.3193,-3.334,-3.3707,-3.378,-3.378,-3.3762,-3.378,-3.378,-3.3762,-3.3028,-3.2771,-3.3138,-3.2423,-3.2001,-3.1983,-3.1983,0.0,0.0,0.0,0.0,0.0,0.0,0.0,0.0,0.0,0.0,0.0,0.0,0.0,0.0,0.0,0.0,0.0,0.0,0.0,0.0,0.0,0.0,0.0,0.0,0.0,0.0,0.0,0.0,-3.6983,-3.8132,0.0,0.0,-3.8442,-3.9187,-3.9187,-4.0585,-4.1005,-3.9881,-4.0221,-3.9886,-3.8717,-3.8408,-3.7712,-3.671,-3.6383,-3.5628,-3.4605,-3.4605,-3.4678,-3.4807,-3.4807,-3.488,-3.5027,-3.5027,-3.4954,-3.4788,-3.5209,-3.4696,-3.3886,-3.4627,-3.4627,-3.4232,-3.4715,-3.5059,-3.5333,-3.5606,-3.6991,-3.8772,-3.9299,-3.875,-3.7709,-3.6789,-3.7374,-3.8154,-3.7394,-3.7059,-3.6991,-3.7126,-3.6403,-3.5538,-3.5196,-3.4921,-3.4646,-3.4232,-3.3955,-3.3725,-3.3431,-3.3376,-3.3376,-3.3376,-3.3376,-3.3376,-3.3376,-3.3376,-3.3431,-3.3578,-3.3596,-3.3651,-3.3798,-3.3817,-3.3817,-3.3817,-3.3817,-3.3817,-3.3817,-3.3541,-3.334,-3.323,-3.2936,-3.2661,-3.2386,-3.2386,-3.2184,0.0,0.0,0.0,0.0,0.0,0.0,0.0,0.0,0.0,0.0,0.0,0.0,0.0,0.0,0.0,0.0,0.0,0.0,0.0,0.0,0.0,0.0,0.0,0.0,0.0,0.0,-3.8131,-3.7718,-3.924,-3.9983,-3.8965,-4.0357,-4.1207,-4.0715,-4.2602,-4.3103,-4.1552,-4.1742,-4.1128,-3.9417,-3.9083,-3.811,-3.6417,-3.6547,-3.6138,-3.5229,-3.5229,-3.5375,-3.565,-3.565,-3.5705,-3.5834,-3.5834,-3.576,-3.565,-3.565,-3.5247,-3.4587,-3.4752,-3.492,-3.5059,-3.5408,-3.5685,-3.5893,-3.6031,-3.7433,-3.9235,-3.9235,-3.8564,-3.7637,-3.672,-3.7773,-3.9034,-3.8112,-3.7841,-3.7841,-3.7841,-3.7112,-3.6376,-3.5962,-3.5616,-3.5268,-3.485,-3.45,-3.422,-3.422,-3.4,-3.3817,-3.3817,-3.3817,-3.3817,-3.3817,-3.3817,-3.3817,-3.3817,-3.3817,-3.3817,-3.3817,-3.3817,-3.3817,-3.3817,-3.3817,-3.3817,-3.3817,-3.3688,-3.356,-3.3431,-3.3303,-3.3101,-3.2808,-3.2661,-3.2459,-3.2203,0.0,0.0,0.0,0.0,0.0,0.0,0.0,0.0,0.0,0.0,0.0,0.0,0.0,0.0,0.0,0.0,0.0,0.0,0.0,0.0,0.0,0.0,0.0,-3.8157,-3.847,-3.9384,-4.1283,-4.1838,-4.2112,-4.2257,-4.2999,-4.2919,-4.1598,-4.3168,-4.3687,-4.2444,-4.2336,-4.1529,-3.9851,-3.8853,-3.7305,-3.5064,-3.546,-3.5664,-3.5669,-3.5669,-3.6091,-3.6861,-3.6861,-3.7062,-3.7429,-3.7429,-3.7209,-3.6861,-3.6861,-3.6622,-3.6238,-3.5791,-3.5886,-3.6242,-3.6598,-3.672,-3.6791,-3.7215,-3.7375,-3.7305,-3.7375,-3.7375,-3.7305,-3.7305,-3.7305,-3.7305,-3.7305,-3.7305,-3.7305,-3.7305,-3.7305,-3.7144,-3.6791,-3.6437,-3.6081,-3.5653,-3.5296,-3.5027,-3.5027,-3.4385,-3.3853,-3.3853,-3.3853,-3.3853,-3.3853,-3.3853,0.0,-3.3853,-3.3835,-3.3835,-3.3835,-3.3817,-3.3817,-3.3817,-3.3817,-3.3817,-3.3817,-3.345,-3.3413,-3.3798,-3.345,-3.3248,-3.3248,-3.2826,-3.2625,-3.2625,0.0,0.0,0.0,0.0,0.0,0.0,0.0,0.0,0.0,0.0,0.0,0.0,0.0,0.0,0.0,0.0,0.0,0.0,0.0,0.0,0.0,0.0,-3.9501,-3.9501,-4.0352,-4.1423,-4.2352,-4.2796,-4.2721,-4.18,-4.2265,-4.2138,-4.1063,-4.1479,-4.1177,-3.9888,-4.0789,-4.004,-3.7297,-3.8169,-3.7947,-3.633,-3.67,-3.69,-3.6934,-3.6934,-3.7044,-3.7264,-3.7264,-3.7319,-3.7429,-3.7429,-3.7356,-3.7264,-3.7264,-3.7572,-3.7915,-3.6867,-3.6509,-3.6698,-3.6986,-3.7132,-3.7285,-3.8456,-3.8177,-3.7496,-3.8526,-3.8107,-3.7305,-3.7305,-3.7305,-3.7305,-3.7305,-3.7305,-3.7305,-3.7305,-3.7074,-3.6862,-3.672,-3.6223,-3.5743,-3.56,-3.5242,-3.5027,-3.5027,-3.4844,-3.4697,-3.4697,-3.4697,-3.4697,-3.4697,-3.4697,0.0,-3.4697,-3.4422,-3.4238,-3.4238,-3.3982,-3.3817,-3.3817,-3.3817,-3.3817,-3.3817,-3.3707,-3.3707,-3.3817,-3.3707,-3.3651,-3.3651,-3.3266,-3.3046,0.0,0.0,0.0,0.0,0.0,0.0,0.0,0.0,0.0,0.0,0.0,0.0,0.0,0.0,0.0,0.0,0.0,0.0,0.0,0.0,0.0,0.0,-4.0037,-4.1231,-4.1442,-4.1983,-4.2495,-4.3024,-4.2827,-4.2482,-4.2086,-4.181,-4.1285,-4.0305,-4.0595,-4.0248,-3.8937,-3.9958,-3.9675,-3.7706,-3.8564,-3.849,-3.7334,-3.759,-3.7752,-3.7918,-3.7918,-3.8165,-3.8468,-3.8235,-3.8158,0.0,-3.8158,-3.8158,-3.8235,-3.8409,-3.8719,0.0,0.0,0.0,0.0,0.0,-3.8394,-3.8524,-3.9369,-3.9082,-3.8524,-3.9369,-3.9082,-3.8379,-3.8379,-3.8379,-3.8379,-3.8379,-3.8379,-3.8379,-3.8379,-3.8088,-3.7778,-3.7778,-3.7121,-3.6644,-3.6644,-3.6128,-3.5779,-3.5779,-3.565,0.0,-3.5522,-3.5247,-3.5027,-3.5027,-3.5027,-3.5027,-3.5027,-3.4825,-3.466,-3.466,-3.4458,-3.4257,-3.4073,-3.4055,0.0,0.0,0.0,-3.3817,-3.3817,-3.3817,0.0,0.0,0.0,-3.3468,-3.3468,0.0,0.0,0.0,-3.2129,-3.2001,0.0,0.0,0.0,0.0,0.0,0.0,0.0,0.0,0.0,0.0,0.0,0.0,0.0,0.0,0.0,0.0,-4.1719,-4.3024,-4.3529,-4.3265,-4.3132,-4.3381,-4.2358,-4.1851,-4.2486,-4.1375,-4.0238,-3.9309,-4.0108,-4.018,-3.906,0.0,0.0,0.0,0.0,-3.8899,-3.8135,-3.8191,-3.8378,-3.8732,-3.8866,-3.9228,-3.9899,-3.9542,-3.9403,-3.9403,-3.9403,-3.9403,-3.9403,-3.9817,-3.9937,-3.9902,-3.9127,-3.926,-3.9885,-3.9922,-3.9902,-3.9902,-3.9902,0.0,0.0,-3.9902,-3.9902,-3.9902,-3.9902,-3.9902,-3.9902,-3.9902,-3.9902,-3.9902,-3.9902,-3.9581,-3.9183,-3.9183,-3.8576,-3.7966,-3.7966,-3.7383,-3.6897,-3.6897,-3.6604,-3.6347,-3.6347,-3.5687,-3.5174,-3.5174,-3.5174,-3.5174,-3.5174,-3.5119,-3.51,-3.51,0.0,0.0,-3.4513,-3.4477,-3.433,-3.3982,-3.3908,-3.3853,-3.3817,-3.3817,-3.3817,-3.3817,-3.3817,-3.3817,-3.3817,-3.3817,-3.345,-3.2735,-3.2643,-3.2551,0.0,0.0,0.0,0.0,0.0,0.0,0.0,0.0,0.0,0.0,0.0,0.0,0.0,0.0,0.0,-4.0998,-4.2475,-4.3553,-4.4045,-4.4467,-4.4245,-4.3177,-4.2793,-4.1986,-4.0223,-3.9809,-3.924,-3.8252,-3.8751,-3.9057,-3.9146,-3.9375,0.0,-3.937,-3.9013,-3.87,-3.8564,-3.8881,-3.9067,-3.916,0.0,0.0,-3.9874,-4.0111,-4.0098,-3.9774,-4.0098,-4.0098,-3.9855,-4.0179,-4.0395,-4.0319,-3.9873,-3.9778,-3.9893,-3.9868,-3.9902,-3.9902,-3.9902,-3.9902,-3.9902,-3.9902,-3.9902,-3.9902,-3.9902,-3.9902,0.0,-3.9902,-3.9902,-3.9902,-3.9902,-3.9581,-3.9259,-3.9259,-3.8671,-3.8061,-3.8061,-3.7681,-3.7319,-3.7319,-3.7246,-3.7191,-3.7191,-3.6512,-3.5981,-3.5981,-3.5981,-3.5981,-3.5981,-3.5705,-3.5504,-3.5504,-3.521,-3.499,-3.4917,-3.4917,-3.488,-3.4807,-3.4477,-3.4147,-3.3817,-3.3817,-3.3817,-3.3817,-3.3817,-3.3817,-3.3817,-3.3817,-3.3725,-3.356,-3.29,-3.2239,0.0,0.0,0.0,0.0,0.0,0.0,0.0,0.0,0.0,0.0,0.0,-3.5552,-3.696,0.0,-4.0672,-4.231,-4.3293,-4.386,-4.3631,-4.385,-4.3758,-4.2963,-4.2517,-4.1593,-3.9883,-3.9039,-3.8635,-3.8588,-3.8549,-3.8786,-3.9213,-3.9507,-3.9586,-3.9586,-3.9855,-3.985,-3.9588,-3.9794,-3.9921,-3.9887,-4.0334,-4.0527,-4.0465,-4.049,-4.0421,-4.0177,-4.0421,-4.0421,-4.0258,-4.0909,-4.1261,-4.1413,-4.1247,-4.0899,-4.0589,-4.0529,-4.0527,-4.0527,-4.0527,-4.0527,-4.0527,-4.0527,-4.0527,-4.0527,-4.0527,-4.0527,-4.0527,-4.0527,-4.0527,-4.0527,-4.0527,-4.0221,-3.9894,-3.9894,-3.9277,-3.8676,-3.8676,-3.818,-3.7723,-3.7723,-3.7558,-3.7429,-3.7429,-3.7081,-3.6751,-3.6549,-3.6347,-3.6201,-3.6201,-3.6036,-3.5907,-3.5907,-3.5742,-3.554,-3.5339,-3.5137,-3.5027,-3.5027,-3.4825,-3.4532,-3.4128,-3.411,-3.4018,-3.3817,-3.3817,-3.3817,-3.3817,-3.3817,-3.3707,-3.3505,-3.3101,-3.279,0.0,0.0,0.0,0.0,0.0,0.0,0.0,0.0,-3.3034,-3.4037,-3.5204,-3.6559,-3.8164,-3.9822,-4.1377,-4.2644,-4.3301,-4.3332,-4.2571,-4.2668,-4.265,-4.2388,-4.1726,-4.0848,-3.9798,-3.8672,-3.8379,-3.9141,-3.8999,-3.9026,-3.9526,-3.9951,-4.0202,-4.0279,-4.088,-4.1092,-4.08,-4.0641,-4.065,-4.0665,-4.0659,-4.0859,-4.1122,-4.0871,-4.0663,-4.0663,-4.0745,-4.0827,-4.1053,-4.1628,-4.2075,-4.2378,-4.2381,-4.2012,-4.1426,-4.1426,-4.1426,-4.1406,-4.1328,-4.1289,-4.1289,-4.1211,-4.1172,-4.1172,-4.1172,-4.1172,-4.1172,-4.1172,-4.1172,-4.1172,-4.1172,-4.0919,-4.0666,-4.0666,-4.004,-3.9509,-3.943,-3.8758,-3.8204,-3.8126,-3.7869,-3.7668,-3.7668,-3.7594,-3.7411,-3.7007,-3.6659,-3.6439,-3.6439,-3.6384,-3.6329,-3.6329,-3.6256,-3.6072,-3.576,-3.5449,-3.5229,-3.5155,-3.5137,-3.4954,-3.455,-3.4532,-3.433,-3.3927,-3.3927,-3.389,-3.3817,-3.3817,-3.3651,-3.334,-3.334,-3.3431,-3.149,-3.1853,0.0,-3.2785,-3.3102,-3.3408,0.0,0.0,-3.4057,-3.4531,-3.5093,-3.5898,-3.7363,-3.8109,-3.8951,-4.0299,-4.0912,-4.1177,-4.1023,-4.1768,-4.1838,-4.0528,-4.0222,-3.9818,-3.8892,-3.8641,-3.8691,-3.916,-3.9515,-3.9924,-4.0353,-4.0782,-4.1191,-4.1562,-4.1384,-4.1378,-4.1641,-4.1219,-4.0995,-4.1052,-4.143,-4.1372,-4.1125,-4.1397,-4.1398,-4.11,-4.1416,-4.2084,-4.2812,-4.2428,-4.2356,-4.2399,-4.2417,-4.2363,-4.2285,-4.2285,-4.2285,-4.2226,-4.1855,-4.1738,-4.166,-4.1289,-4.1172,-4.1172,-4.1172,-4.1172,-4.1172,-4.1172,-4.1172,-4.1172,-4.1172,-4.1172,-4.1094,-4.1094,-4.0763,-4.0275,-3.9902,-3.9471,-3.904,-3.8566,-3.853,-3.8511,-3.8511,-3.8199,-3.7814,-3.7411,-3.7319,-3.7283,-3.7283,-3.6989,-3.6769,-3.6769,-3.6439,-3.6182,-3.6146,-3.6109,-3.5925,-3.5577,-3.5559,-3.5375,-3.4972,-3.4954,-3.477,-3.4348,-3.433,-3.4165,-3.3817,-3.3817,-3.3798,-3.3743,-3.3743,-3.3376,-3.2226,0.0,0.0,0.0,-3.3359,-3.3591,-3.4023,-3.4128,-3.4374,-3.5019,-3.5898,-3.6806,-3.7711,-3.8645,-3.9474,0.0,-4.0519,-4.0601,-4.0074,-4.0552,-4.05,-3.9321,-3.9218,-3.901,-3.8627,-3.8789,-3.9121,-3.957,-4.0019,-4.0449,-4.0879,-4.1308,-4.1621,-4.1797,-4.1872,-4.1882,-4.1757,-4.1593,-4.1297,-4.1128,-4.1295,-4.1222,-4.1138,-4.1304,-4.1378,-4.1462,-4.1882,-4.2485,-4.3048,-4.2875,-4.2963,-4.3172,-4.316,-4.3164,-4.3105,-4.2617,-4.2422,-4.2402,-4.2226,-4.2168,-4.2129,-4.1953,-4.1894,-4.1894,-4.1894,-4.1894,-4.1855,-4.1601,-4.1543,-4.1484,-4.123,-4.1172,-4.1172,-4.1172,-4.0841,-4.0353,-3.9981,-3.9588,-3.9193,-3.8719,-3.856,-3.856,-3.856,-3.8493,-3.8328,-3.8163,-3.7723,-3.7429,-3.7429,-3.7283,-3.7099,-3.6861,-3.6677,-3.6476,-3.6237,-3.6201,-3.6146,-3.5981,-3.5962,-3.5779,-3.5394,-3.5375,-3.5174,-3.477,-3.477,-3.4568,-3.4147,-3.4147,-3.4037,-3.3817,-3.3817,-3.3633,-3.2644,0.0,0.0,-3.3467,-3.3733,-3.4018,-3.4349,-3.4471,-3.4754,-3.5402,-3.633,-3.7141,-3.7467,-3.8374,0.0,-3.9205,-3.9608,-3.9668,-3.9044,-3.9353,-3.9332,-3.8681,-3.8574,-3.8613,-3.873,-3.9023,-3.9453,-4.0019,-4.0351,-4.0703,-4.1152,-4.1562,-4.1855,-4.1973,-4.2222,-4.2326,-4.2112,-4.1947,-4.1767,-4.1481,-4.1481,-4.1481,-4.1481,-4.1481,-4.1714,-4.2132,-4.2485,-4.2818,-4.3317,-4.3317,-4.3463,-4.3711,-4.3711,-4.3711,-4.3633,-4.3008,-4.2773,-4.2754,-4.2637,-4.2598,-4.2578,-4.2461,-4.2422,-4.2422,-4.2422,-4.2422,-4.2363,-4.2051,-4.1973,-4.1894,-4.1601,-4.1523,-4.1484,-4.1367,-4.1094,-4.0742,-4.0156,-3.9745,-3.9351,-3.8877,-3.8719,-3.856,-3.856,-3.856,-3.856,-3.856,-3.8144,-3.7759,-3.7759,-3.7649,-3.7429,-3.7044,-3.6897,-3.6714,-3.6402,-3.6274,-3.6201,-3.6201,-3.6201,-3.6072,-3.5797,-3.5779,-3.5595,-3.5192,-3.5192,-3.499,-3.4568,-3.4568,-3.4422,-3.4147,-3.4037,-3.3982,0.0,0.0,-3.3676,-3.3998,-3.4375,-3.4805,-3.5254,-3.5371,-3.5488,-3.5918,-3.5996,-3.6064,-3.6084,-3.6084,-3.6289,-3.672,-3.7132,-3.7563,-3.7923,-3.8353,-3.8627,-3.8574,-3.8574,-3.873,0.0,-3.9199,-3.957,-4.043,-4.0508,-4.0703,-4.1152,-4.1562,-4.1992,-4.2402,-4.2427,-4.2606,-4.3048,-4.2633,-4.2383,-4.2318,-4.2318,-4.2318,-4.2318,-4.2318,-4.2652,-4.3068,-4.3068,-4.3297,-4.3711,-4.3711,-4.3711,-4.3711,-4.3711,-4.3711,-4.3691,-4.3672,-4.3672,-4.3613,-4.3203,-4.3066,-4.2988,-4.2558,-4.2422,-4.2422,-4.2422,-4.2422,-4.2422,-4.2402,-4.2402,-4.2402,-4.2402,-4.2383,-4.2285,-4.1875,-4.1777,-4.1503,-4.0684,-4.0216,-3.9745,-3.9351,-3.8877,-3.856,-3.856,-3.856,-3.856,-3.856,-3.8542,-3.8524,-3.8524,-3.8255,-3.7851,-3.7448,-3.7062,-3.6824,-3.6749,-3.6439,-3.6201,-3.6201,-3.6201,-3.6201,-3.6182,-3.6182,-3.5999,-3.5614,-3.5595,-3.5412,-3.5009,-3.5009,-3.5009,-3.499,-3.4568,-3.4385,0.0,0.0,-3.3753,-3.4349,-3.4824,-3.5195,-3.5351,-3.5605,-3.5859,-3.5996,-3.6016,-3.6016,-3.6016,-3.6016,-3.6152,-3.6601,-3.7031,-3.7441,-3.7871,-3.8301,-3.8574,-3.8574,-3.8828,0.0,0.0,0.0,0.0,-4.0469,-4.0781,-4.1133,-4.1562,-4.1992,-4.2422,-4.2851,-4.2872,-4.2914,-4.3068,-4.2652,-4.2402,-4.2402,-4.2402,-4.2402,-4.2402,-4.2735,-4.2985,-4.3151,-4.338,-4.3546,-4.3711,-4.3711,-4.3711,-4.3711,-4.3711,-4.3711,-4.3711,-4.3711,-4.3711,-4.3691,-4.3555,-4.3496,-4.3476,-4.332,-4.3281,-4.3281,-4.3281,-4.3281,-4.3223,-4.293,-4.2851,-4.2793,-4.25,-4.2422,-4.2402,-4.2246,-4.2207,-4.2008,-4.1474,-4.1065,-4.0537,-3.9823,-3.9379,-3.8956,-3.864,-3.856,-3.856,-3.856,-3.856,-3.856,-3.856,-3.8511,-3.8273,-3.7851,-3.7704,-3.7411,-3.6879,-3.6714,-3.6512,-3.6219,-3.6201,-3.6201,-3.6201,-3.6201,-3.6146,-3.6017,-3.6017,-3.5815,-3.543,-3.543,-3.5284,-3.5027,-3.488,-3.4825,-3.3424,-3.3927,-3.4347,-3.4817,-3.5293,-3.5605,-3.5605,-3.582,-3.6016,-3.6016,-3.6016,-3.6016,-3.6016,-3.6016,-3.6211,-3.6797,-3.7129,-3.75,-3.8066,-3.8398,-3.8633,-3.8789,-3.9043,0.0,0.0,0.0,0.0,-4.0723,-4.1016,-4.1348,-4.1777,-4.2207,-4.2637,-4.3066,-4.2919,-4.2818,-4.2818,-4.2402,-4.2318,-4.2652,-4.2818,-4.2882,-4.2882,-4.3151,-4.3297,-4.3297,-4.3628,-4.3711,-4.3711,-4.3711,-4.3711,-4.3711,-4.3711,-4.3711,-4.3711,-4.3711,-4.3711,-4.3711,-4.3711,-4.3711,-4.3711,-4.3711,-4.3711,-4.3711,-4.3711,-4.3711,-4.3652,-4.3379,-4.3301,-4.3242,-4.2949,-4.2891,-4.2851,-4.2695,-4.2656,-4.2537,-4.2078,-4.1667,-4.1215,-4.0476,-3.9917,-3.9398,-3.8939,-3.8731,-3.856,-3.856,-3.856,-3.856,-3.856,-3.856,-3.853,-3.8273,-3.8108,-3.7759,-3.7099,-3.6916,-3.6659,-3.6237,-3.6201,-3.6201,-3.6201,-3.6201,-3.6201,-3.6201,-3.6201,-3.6091,-3.5834,-3.5834,-3.5705,-3.5449,-3.5302,-3.5247,-3.3688,-3.4568,-3.5391,-3.543,-3.5723,-3.6016,-3.6016,-3.6016,-3.6016,-3.6016,-3.6016,-3.5947,0.0,0.0,-3.6289,-3.7129,-3.7285,-3.7598,-3.8418,-3.8574,-3.875,0.0,0.0,0.0,0.0,0.0,0.0,-4.1172,0.0,-4.1387,-4.1816,-4.2226,-4.2656,-4.3105,-4.2691,-4.2485,-4.2485,-4.1965,-4.2216,-4.3151,-4.3463,-4.3711,-4.3711,-4.3711,-4.3711,-4.3711,-4.3711,-4.3711,-4.3711,-4.3711,-4.3711,-4.3711,-4.3711,-4.3711,-4.3711,-4.3711,-4.3711,-4.3711,-4.3711,-4.3711,-4.3711,-4.3711,-4.3711,-4.3711,-4.3711,-4.3711,-4.3711,-4.3711,-4.3711,-4.3711,-4.3711,-4.3711,-4.3594,-4.3203,-4.3105,-4.2988,-4.2578,-4.2159,-4.1756,-4.1233,-4.0489,-3.9727,-3.9307,-3.8835,-3.8579,-3.856,-3.856,-3.856,-3.856,-3.856,-3.856,-3.856,-3.8291,-3.7888,-3.7484,-3.7099,-3.6677,-3.6274,-3.6219,-3.6201,-3.6201,-3.6201,-3.6201,-3.6201,-3.6201,-3.6201,-3.6201,-3.6201,-3.6201,-3.6201,-3.5815,-3.565,-3.4685,-3.5148,-3.5469,-3.5781,-3.5937,-3.6016,-3.6016,-3.6016,-3.6016,-3.6016,-3.5811,-3.5675,0.0,0.0,0.0,-3.6738,-3.709,0.0,-3.8008,-3.8633,0.0,-3.9199,0.0,-4.0273,-4.0508,-4.082,0.0,0.0,-4.1641,-4.1816,-4.2246,-4.2676,-4.3105,-4.3535,-4.3176,-4.3068,-4.338,-4.2965,-4.2965,-4.3546,-4.3399,-4.338,-4.3711,-4.3711,-4.3711,-4.3711,-4.3711,-4.3711,-4.3711,-4.3711,-4.3711,-4.3711,-4.3711,-4.3711,-4.3711,-4.3711,-4.3711,-4.3711,-4.3711,-4.3711,-4.3711,-4.3711,-4.3711,-4.3711,-4.3711,-4.3711,-4.3711,-4.3711,-4.3711,-4.3711,-4.3711,-4.3711,-4.3672,-4.3574,-4.3555,-4.3516,-4.3398,-4.3043,-4.2504,-4.1751,-4.0696,-3.9756,-3.9281,-3.9153,-3.8988,-3.8695,-3.856,-3.856,-3.856,-3.856,-3.856,-3.856,-3.8548,-3.831,-3.7906,-3.7503,-3.7099,-3.6696,-3.6384,-3.6201,-3.6201,-3.6201,-3.6201,-3.6201,-3.6201,-3.6201,-3.6201,-3.6201,-3.6201,-3.6201,-3.6109,-3.6054,-3.5129,-3.5527,-3.5723,-3.5957,-3.6016,-3.6016,-3.6016,-3.6016,-3.6016,-3.6016,-3.5743,0.0,0.0,0.0,0.0,0.0,0.0,0.0,-3.7871,-3.8652,-3.9277,0.0,-4.0117,0.0,-4.0781,-4.1191,-4.1543,0.0,-4.1797,-4.207,-4.2676,-4.2949,-4.3262,-4.3691,-4.3297,-4.3151,-4.3131,-4.3151,-4.3234,-4.3463,-4.338,-4.3463,-4.3711,-4.3711,-4.3711,-4.3711,0.0,-4.3711,-4.3711,-4.3711,-4.3711,-4.3711,-4.3711,-4.3711,-4.3711,-4.3711,-4.3711,-4.3711,-4.3711,-4.3711,-4.3711,-4.3711,-4.3711,-4.3711,-4.3711,-4.3711,-4.3711,-4.3711,-4.3711,-4.3711,-4.3711,-4.3711,-4.3711,-4.3711,-4.3711,-4.3711,-4.3711,-4.3516,-4.3055,-4.2042,-4.0913,-3.9978,-3.9575,-3.9502,-3.9355,-3.8951,-3.8896,-3.8762,-3.8579,-3.856,-3.856,-3.856,-3.856,-3.8475,-3.8053,-3.7649,-3.7264,-3.6861,-3.6439,-3.6201,-3.6201,-3.6201,-3.6201,-3.6201,-3.6201,-3.6201,-3.6201,-3.6201,-3.6201,-3.6201,-3.6201,-3.6201,-3.5332,-3.5742,-3.6016,-3.6016,-3.6016,-3.6016,-3.5947,-3.5947,-3.5947,-3.5947,0.0,-3.547,-3.5879,0.0,-3.5673,-3.6454,0.0,-3.7422,-3.7793,-3.8672,-3.9453,-3.9844,-4.0312,-4.0781,-4.1211,-4.1582,-4.1855,-4.1953,-4.1973,-4.2285,-4.3047,-4.3125,-4.332,-4.3691,-4.338,-4.2985,-4.2569,-4.2902,-4.3151,-4.3151,-4.3463,-4.3628,-4.3711,-4.3711,-4.3711,-4.3711,0.0,0.0,-4.3711,-4.3711,-4.3711,-4.3711,-4.3711,-4.3711,-4.3711,-4.3711,-4.3711,-4.3711,-4.3711,-4.3711,-4.3711,-4.3711,-4.3711,-4.3711,-4.3711,-4.3711,-4.3711,-4.3711,-4.3711,-4.3711,-4.3711,-4.3711,-4.3711,-4.3711,-4.3711,-4.3711,-4.3711,-4.3628,-4.3181,-4.1992,-4.1109,-4.0418,-4.0079,-4.0005,-3.9758,-3.93,-3.9226,-3.908,-3.8615,-3.856,-3.856,-3.856,-3.856,-3.8493,-3.8126,-3.7686,-3.7283,-3.6934,-3.6476,-3.6201,-3.6201,-3.6201,-3.6201,-3.6201,-3.6201,-3.6201,-3.6201,-3.6201,-3.6201,-3.6201,-3.6201,-3.6201,-3.5684,-3.5957,-3.6016,-3.6016,-3.6016,-3.5947,-3.5675,-3.5626,0.0,0.0,0.0,-3.4784,-3.547,-3.5264,0.0,-3.5654,0.0,0.0,0.0,0.0,-3.9805,0.0,0.0,0.0,0.0,0.0,0.0,0.0,0.0,0.0,-4.3066,-4.3418,-4.3633,-4.3711,-4.3628,-4.3546,-4.3463,-4.3234,-4.3317,-4.3628,-4.3297,-4.338,-4.3711,-4.3711,-4.3711,-4.3711,0.0,0.0,-4.3711,-4.3711,-4.3711,-4.3711,-4.3711,-4.3711,-4.3711,-4.3711,-4.3711,-4.3711,-4.3711,-4.3711,-4.3711,-4.3711,-4.3711,-4.3711,-4.3711,-4.3711,-4.3711,-4.3711,-4.3711,-4.3711,-4.3711,-4.3711,-4.3711,-4.3711,-4.3711,-4.3711,-4.3711,-4.3131,-4.2447,-4.1871,-4.1351,-4.0822,-4.0437,-4.0363,-4.0107,-3.9336,-3.9226,-3.908,-3.8615,-3.856,-3.856,-3.856,-3.856,-3.8524,-3.853,-3.7851,-3.7393,-3.7338,-3.6622,-3.6201,-3.6201,-3.6201,-3.6201,-3.6201,-3.6201,-3.6201,-3.6201,-3.6201,-3.6201,-3.6201,-3.6201,-3.6201,-3.584,-3.6016,-3.6016,-3.6016,-3.6016,-3.5947,-3.5811,0.0,0.0,0.0,0.0,-3.5127,-3.5675,0.0,0.0,0.0,0.0,0.0,0.0,0.0,0.0,0.0,0.0,0.0,0.0,0.0,0.0,0.0,0.0,0.0,-4.3398,-4.3594,-4.3711,-4.3711,-4.3711,-4.3711,-4.3711,-4.3546,-4.3546,-4.3711,-4.3463,-4.3546,-4.3711,-4.3711,-4.3711,-4.3711,-4.3711,0.0,-4.3711,-4.3711,-4.3711,-4.3711,-4.3711,-4.3711,-4.3711,-4.3711,-4.3711,-4.3711,-4.3711,-4.3711,-4.3711,-4.3711,-4.3711,-4.3711,-4.3711,-4.3711,-4.3711,-4.3711,-4.3711,-4.3711,-4.3711,-4.3711,-4.3711,-4.3711,-4.3711,-4.3628,-4.3463,-4.2902,-4.2235,-4.1779,-4.1546,-4.1323,-4.0887,-4.0852,-4.0501,-3.973,-3.9373,-3.908,-3.8615,-3.856,-3.856,-3.856,-3.856,-3.856,-3.856,-3.7888,-3.7429,-3.7429,-3.6659,-3.6201,-3.6201,-3.6201,-3.6201,-3.6201,-3.6201,-3.6201,-3.6201,-3.6201,-3.6201,-3.6201,-3.6201,-3.6201,-3.5898,-3.6016,-3.6016,-3.6016,-3.6016,-3.5947,-3.5879,-3.5879,0.0,0.0,0.0,-3.547,0.0,0.0,0.0,0.0,0.0,0.0,0.0,0.0,0.0,0.0,0.0,0.0,0.0,0.0,0.0,0.0,0.0,0.0,0.0,-4.3711,-4.3711,-4.3711,-4.3711,-4.3711,-4.3711,-4.3711,-4.3711,-4.3711,-4.3711,-4.3711,-4.3711,-4.3711,-4.3711,-4.3711,-4.3711,0.0,0.0,-4.3711,-4.3711,-4.3711,-4.3711,-4.3711,-4.3711,-4.3711,-4.3711,-4.3711,-4.3711,-4.3711,-4.3711,-4.3711,-4.3711,-4.3711,-4.3711,-4.3711,-4.3711,-4.3711,-4.3711,-4.3711,-4.3711,-4.3711,-4.3711,-4.3711,-4.3628,-4.3463,-4.3068,-4.2652,-4.2235,-4.1779,-4.1695,-4.1593,-4.1184,-4.099,-4.0684,-3.9858,-3.9447,-3.908,-3.8615,-3.856,-3.856,-3.856,-3.856,-3.8603,-3.8511,-3.7851,-3.7393,-3.7301,-3.6622,-3.6201,-3.6201,-3.6201,-3.6201,-3.6201,-3.6201,-3.6201,-3.6201,-3.6201,-3.6201,-3.6201,-3.6311,-3.6292,-3.5898,-3.6016,-3.6016,-3.6016,-3.6016,-3.5947,-3.5606,0.0,0.0,0.0,-3.5196,-3.5059,-3.547,0.0,0.0,0.0,0.0,0.0,0.0,0.0,0.0,0.0,0.0,0.0,0.0,0.0,0.0,0.0,0.0,0.0,0.0,-4.3711,-4.3711,-4.3711,-4.3711,-4.3711,-4.3711,-4.3711,-4.3711,-4.3711,-4.3711,-4.3711,-4.3711,-4.3711,-4.3711,-4.3711,0.0,0.0,0.0,-4.3711,-4.3711,-4.3711,-4.3711,-4.3711,-4.3711,-4.3711,-4.3711,-4.3711,-4.3711,-4.3711,-4.3711,-4.3711,-4.3711,-4.3711,-4.3711,-4.3711,-4.3711,-4.3711,-4.3711,-4.3711,-4.3711,-4.3711,-4.3711,-4.3711,-4.338,-4.3068,-4.2569,-4.2402,-4.2235,-4.1779,-4.1695,-4.1584,-4.1147,-4.0805,-4.0281,-3.941,-3.9263,-3.908,-3.8615,-3.856,-3.856,-3.856,-3.856,-3.8493,-3.8108,-3.7668,-3.7264,-3.6916,-3.6457,-3.6201,-3.6201,-3.6201,-3.6201,-3.6201,-3.6201,-3.6201,-3.6201,-3.6201,-3.6201,-3.6219,-3.6604,-3.6567,-3.5976,-3.6016,-3.6016,-3.6016,-3.6016,-3.5947,-3.5811,0.0,0.0,-3.5811,-3.5675,-3.5606,-3.5743,0.0,0.0,0.0,0.0,0.0,0.0,0.0,0.0,0.0,0.0,0.0,0.0,0.0,0.0,0.0,0.0,0.0,0.0,-4.3463,-4.3297,-4.3297,-4.3546,-4.3546,-4.3297,-4.3546,-4.3711,-4.3711,-4.3711,-4.3711,-4.3711,-4.3711,-4.3711,-4.3711,0.0,0.0,0.0,-4.3711,-4.3711,-4.3711,-4.3711,-4.3711,-4.3711,-4.3711,-4.3711,-4.3711,-4.3711,-4.3711,-4.3711,-4.3711,-4.3711,-4.3711,-4.3711,-4.3711,-4.3711,-4.3711,-4.3711,-4.3711,-4.3711,-4.3711,-4.3711,-4.3711,-4.3546,-4.3297,-4.2902,-4.2818,-4.2652,-4.2216,-4.1925,-4.1617,-4.1219,-4.0525,-3.9936,-3.9281,-3.9025,-3.8823,-3.8579,-3.856,-3.8548,-3.8291,-3.8273,-3.8199,-3.8034,-3.7429,-3.7007,-3.6842,-3.6439,-3.6201,-3.6201,-3.6201,-3.6201,-3.6201,-3.6201,-3.6201,-3.6201,-3.6201,-3.6201,-3.6219,-3.6384,-3.6512,-3.5947,-3.6016,-3.6016,-3.6016,-3.6016,-3.6016,0.0,0.0,0.0,-3.6016,-3.6016,-3.6016,-3.6016,0.0,0.0,0.0,0.0,0.0,0.0,0.0,0.0,0.0,0.0,0.0,0.0,0.0,0.0,0.0,0.0,0.0,0.0,0.0,-4.3151,-4.3297,-4.3546,-4.3546,-4.3317,-4.3546,-4.3711,-4.3711,-4.3711,-4.3711,-4.3711,-4.3711,-4.3711,-4.3711,0.0,0.0,0.0,-4.3711,-4.3711,-4.3711,-4.3711,-4.3711,-4.3711,-4.3711,-4.3711,-4.3711,-4.3711,-4.3711,-4.3711,-4.3711,-4.3711,-4.3711,-4.3711,-4.3711,-4.3711,-4.3711,-4.3711,-4.3711,-4.3711,-4.3711,-4.3711,-4.3711,-4.3628,-4.3463,-4.3151,-4.2972,-4.2793,-4.2295,-4.1853,-4.1449,-4.0827,-4.0161,-3.9511,-3.908,-3.8823,-3.856,-3.856,-3.853,-3.8346,-3.8053,-3.7814,-3.7668,-3.7668,-3.7154,-3.6787,-3.6659,-3.6366,-3.6201,-3.6201,-3.6201,-3.6201,-3.6201,-3.6201,-3.6201,-3.6201,-3.6201,-3.6201,-3.6219,-3.6329,-3.6549,-3.5879,-3.6016,-3.6016,-3.6016,-3.6016,-3.6016,0.0,0.0,0.0,-3.6016,-3.6016,-3.6016,-3.6016,-3.6016,0.0,0.0,0.0,0.0,0.0,0.0,0.0,0.0,0.0,0.0,0.0,0.0,0.0,0.0,0.0,0.0,0.0,0.0,-4.3317,-4.3711,-4.3711,-4.3711,-4.3711,-4.3711,-4.3711,-4.3711,-4.3711,-4.3711,-4.3711,-4.3711,-4.3711,0.0,0.0,0.0,0.0,-4.3711,-4.3711,-4.3711,-4.3711,-4.3711,-4.3711,-4.3711,-4.3711,-4.3711,-4.3711,-4.3711,-4.3711,-4.3711,-4.3711,-4.3711,-4.3711,-4.3711,-4.3711,-4.3711,-4.3711,-4.3711,-4.3711,-4.3711,-4.3711,-4.3711,-4.338,-4.3068,-4.3068,-4.2741,-4.2269,-4.184,-4.1417,-4.0839,-4.0024,-3.9548,-3.9098,-3.8713,-3.856,-3.856,-3.856,-3.8273,-3.8016,-3.8016,-3.7319,-3.6842,-3.6842,-3.6767,-3.6659,-3.6237,-3.6201,-3.6201,-3.6201,-3.6201,-3.6201,-3.6201,-3.6201,-3.6201,-3.6201,-3.6201,-3.6201,-3.6219,-3.6641,-3.6824,-3.5947,-3.6016,-3.6016,-3.6016,-3.6016,-3.6016,-3.6016,0.0,-3.6016,-3.6016,-3.6016,-3.6016,-3.6016,-3.6016,-3.6016,0.0,0.0,0.0,0.0,0.0,0.0,0.0,0.0,0.0,0.0,0.0,0.0,0.0,0.0,0.0,0.0,0.0,-4.3463,-4.3297,-4.3546,-4.3546,-4.3297,-4.3546,-4.3711,-4.3711,-4.3711,-4.3711,-4.3711,-4.3711,0.0,0.0,0.0,0.0,0.0,-4.3711,-4.3711,-4.3711,-4.3711,-4.3711,-4.3711,-4.3711,-4.3711,-4.3711,-4.3711,-4.3711,-4.3711,-4.3711,-4.3711,-4.3711,-4.3711,-4.3711,-4.3711,-4.3711,-4.3711,-4.3711,-4.3711,-4.3711,-4.3711,-4.3711,-4.3414,-4.3117,-4.3117,-4.2705,-4.2314,-4.191,-4.1162,-4.0499,-3.9968,-3.9246,-3.8786,-3.8579,-3.8401,-3.8218,-3.8218,-3.7869,-3.7503,-3.7246,-3.6989,-3.6842,-3.6842,-3.6567,-3.6347,-3.6219,-3.6201,-3.6201,-3.6201,-3.6201,-3.6201,-3.6201,-3.6201,-3.6201,-3.6201,-3.6201,-3.6201,-3.6219,-3.6641,-3.6677,0.0,-3.6016,-3.6016,-3.6016,-3.6016,0.0,0.0,0.0,-3.6016,-3.6016,-3.6016,-3.6016,-3.6016,-3.6016,0.0,0.0,0.0,0.0,0.0,0.0,0.0,0.0,0.0,0.0,0.0,0.0,0.0,0.0,0.0,0.0,0.0,0.0,-4.3059,-4.2587,-4.3288,-4.3546,-4.3297,-4.3546,-4.3711,-4.3711,-4.3711,-4.3711,-4.3711,0.0,0.0,0.0,0.0,0.0,0.0,-4.3711,-4.3711,-4.3711,-4.3711,-4.3711,-4.3711,-4.3711,-4.3711,-4.3711,-4.3711,-4.3711,-4.3711,-4.3711,-4.3594,-4.3457,-4.3457,-4.3574,-4.3711,-4.3711,-4.3711,-4.3672,-4.3516,-4.3457,-4.3418,-4.3262,-4.3027,-4.2832,-4.2832,-4.2339,-4.1788,-4.1407,-4.0724,-4.0122,-3.9486,-3.9123,-3.8743,-3.8438,-3.8181,-3.7961,-3.7814,-3.7448,-3.7118,-3.6861,-3.6696,-3.6604,-3.6604,-3.6366,-3.6201,-3.6201,-3.6201,-3.6201,-3.6201,-3.6201,-3.6201,-3.6201,-3.6201,-3.6201,-3.6201,-3.6201,-3.6201,-3.6219,-3.6641,-3.6604,0.0,-3.6016,0.0,0.0,0.0,0.0,0.0,0.0,0.0,-3.6016,-3.6016,-3.6016,-3.6016,-3.6016,0.0,0.0,0.0,0.0,0.0,0.0,0.0,0.0,0.0,0.0,0.0,0.0,0.0,0.0,0.0,0.0,0.0,0.0,0.0,-4.1798,-4.2876,-4.3531,-4.3531,-4.3531,-4.3531,-4.3531,-4.3531,-4.3531,-4.3531,0.0,0.0,0.0,0.0,0.0,0.0,-4.3613,-4.3613,-4.3613,-4.3652,-4.3633,-4.3613,-4.3652,-4.3633,-4.3613,-4.3613,-4.3613,-4.3613,-4.3613,-4.334,-4.3027,-4.3027,-4.3301,-4.3613,-4.3613,-4.3613,-4.3516,-4.3125,-4.3027,-4.293,-4.2439,-4.2322,-4.2303,-4.2303,-4.1633,-4.1026,-4.055,-4.0167,-3.9666,-3.8798,-3.9017,-3.8929,-3.8149,-3.7961,-3.7796,-3.7429,-3.7044,-3.6787,-3.6787,-3.6439,-3.6201,-3.6201,-3.6201,-3.6201,-3.6201,-3.6201,-3.6201,-3.6201,-3.6201,-3.6201,-3.6201,-3.6201,-3.6201,-3.6201,-3.6201,-3.6201,-3.6219,-3.6604,-3.6567,-3.6016,0.0,-3.6016,-3.6016,-3.6016,-3.6016,0.0,0.0,-3.6016,-3.6016,0.0,0.0,-3.6016,0.0,0.0,0.0,0.0,0.0,0.0,0.0,0.0,0.0,0.0,0.0,0.0,0.0,0.0,0.0,0.0,0.0,0.0,0.0,0.0,-4.1314,-4.1666,-4.1762,-4.1762,-4.1762,-4.1762,-4.1762,-4.1762,-4.1762,-4.1762,0.0,0.0,0.0,0.0,0.0,-4.2268,-4.2573,-4.2734,-4.2754,-4.3086,-4.3027,-4.2773,-4.3105,-4.3008,-4.2734,-4.2734,-4.2734,-4.2734,-4.2734,-4.2656,-4.2578,-4.2578,-4.2656,-4.2734,-4.2734,-4.2734,-4.2695,-4.2598,-4.2578,-4.2478,-4.2059,-4.1708,-4.1378,-4.1059,-4.0794,-4.0506,-4.0132,-4.0195,-4.0118,-3.9272,-3.8933,-3.8613,-3.8112,-3.7503,-3.7081,-3.6989,-3.6604,-3.6347,-3.6347,-3.6274,-3.6201,-3.6201,-3.6201,-3.6201,-3.6201,-3.6201,-3.6201,-3.6201,-3.6201,-3.6201,-3.6201,-3.6201,-3.6201,-3.6201,-3.6201,-3.6201,-3.6201,-3.6311,-3.6146,-3.6016,-3.6016,-3.6016,-3.6016,-3.6016,-3.6016,-3.6016,0.0,0.0,0.0,0.0,0.0,0.0,0.0,0.0,0.0,0.0,0.0,0.0,0.0,0.0,0.0,0.0,0.0,0.0,0.0,0.0,0.0,0.0,0.0,0.0,0.0,0.0,0.0,-4.0884,-4.0995,-4.1214,-4.1233,-4.1233,-4.1233,-4.1233,-4.1233,-4.1233,-4.1233,0.0,0.0,0.0,0.0,-4.1798,-4.2201,-4.2422,-4.2461,-4.2695,-4.2637,-4.2461,-4.2695,-4.2637,-4.2422,-4.2422,-4.2422,-4.2422,-4.2422,-4.2305,-4.2049,-4.189,-4.1833,-4.1933,-4.2324,-4.2281,-4.2142,-4.2108,-4.181,-4.1452,-4.126,-4.087,-4.054,-4.054,-4.0368,-4.0197,-4.0216,-4.0216,-3.9983,-3.9168,-3.8806,-3.839,-3.7616,-3.7118,-3.6769,-3.6567,-3.6347,-3.6201,-3.6201,-3.6201,-3.6201,-3.6201,-3.6201,-3.6201,-3.6201,-3.6201,-3.6201,-3.6201,-3.6201,-3.6201,-3.6201,-3.6201,-3.6201,-3.6201,-3.6201,-3.6201,-3.6201,-3.6017,-3.5815,-3.6016,-3.6016,-3.6016,-3.6016,-3.6016,-3.6016,-3.6016,0.0,0.0,0.0,0.0,0.0,0.0,0.0,0.0,0.0,0.0,0.0,0.0,0.0,0.0,0.0,0.0,0.0,0.0,0.0,0.0,0.0,0.0,0.0,0.0,0.0,0.0,0.0,-4.0275,-4.0461,-4.0863,-4.0882,-4.0963,-4.1043,-4.0882,-4.0882,-4.1043,-4.0963,0.0,0.0,0.0,0.0,-4.1606,-4.2086,-4.2226,-4.2246,-4.2305,-4.2285,-4.2246,-4.2305,-4.2285,-4.2226,-4.2226,-4.2226,-4.2226,-4.2226,-4.1992,-4.162,-4.1285,-4.121,-4.1328,-4.2031,-4.1926,-4.1609,-4.1639,-4.1048,-4.0496,-4.0508,-4.0197,-4.0059,-4.0353,-4.0137,-3.9981,-4.0353,-4.008,-3.9537,-3.881,-3.8641,-3.817,-3.6934,-3.6787,-3.6604,-3.6256,-3.6201,-3.6201,-3.6201,-3.6201,-3.6201,-3.6201,-3.6201,-3.6201,-3.6201,-3.6201,-3.6201,-3.6201,-3.6201,-3.6201,-3.6201,-3.6201,-3.6201,-3.6201,-3.6201,-3.6201,-3.6201,-3.5797,-3.5595,-3.6016,-3.6016,-3.6016,-3.6016,-3.6016,-3.6016,-3.6016,0.0,0.0,0.0,0.0,0.0,0.0,0.0,0.0,0.0,0.0,0.0,0.0,0.0,0.0,0.0,0.0,0.0,0.0,0.0,0.0,0.0,0.0,0.0,0.0,0.0,0.0,0.0,0.0,-3.9091,-3.9617,-3.9617,-3.9775,-4.0091,-3.9379,-3.9379,-4.0091,-3.9775,-3.9775,0.0,0.0,-4.0702,-4.0702,-4.1191,-4.1367,-4.1406,-4.1758,-4.168,-4.1406,-4.1758,-4.168,-4.1367,-4.1367,-4.1367,-4.1367,-4.1367,-4.1328,-4.1269,-4.1191,-4.123,-4.1211,-4.1328,-4.1035,-4.0702,-4.0703,-4.0606,-4.0508,-4.0529,-4.0431,-4.0353,-4.0059,-3.9902,-3.9902,-3.9981,-3.9677,-3.9256,-3.8754,-3.8156,-3.7501,-3.6861,-3.6531,-3.6274,-3.6219,-3.6201,-3.6201,-3.6201,-3.6201,-3.6201,-3.6201,-3.6201,-3.6201,-3.6201,-3.6201,-3.6201,-3.6201,-3.6201,-3.6201,-3.6201,-3.6201,-3.6201,-3.6201,-3.6201,-3.6201,-3.6201,-3.5797,-3.5449,-3.6016,-3.6016,-3.6016,-3.6016,-3.6016,-3.6016,0.0,0.0,0.0,0.0,0.0,0.0,0.0,0.0,0.0,0.0,0.0,0.0,0.0,0.0,0.0,0.0,0.0,0.0,0.0,0.0,0.0,0.0,0.0,0.0,0.0,0.0,0.0,0.0,0.0,0.0,-3.9588,-3.943,-3.9272,-3.9193,-3.8798,-3.8798,-3.9193,-3.9035,-3.9035,-3.9193,0.0,-3.9883,-3.9883,-4.0294,-4.0607,-4.086,-4.1054,-4.1015,-4.0782,-4.0759,-4.0937,-4.1172,-4.0919,-4.0997,-4.1172,-4.1172,-4.1172,-4.1172,-4.0919,-4.1016,-4.1094,-4.0626,-4.0529,-4.0588,-4.0841,-4.0529,-4.0197,-4.0431,-4.0353,-4.0137,-3.9902,-3.9732,-3.9561,-3.9561,-3.9066,-3.8496,-3.8119,-3.7536,-3.6977,-3.6531,-3.6329,-3.6201,-3.6201,-3.6201,-3.6201,-3.6201,-3.6201,-3.6201,-3.6201,-3.6201,-3.6201,-3.6201,-3.6201,-3.6201,-3.6201,-3.6201,-3.6201,-3.6201,-3.6201,-3.6201,-3.6201,-3.6201,-3.6109,-3.5889,-3.5485,-3.5082,-3.6016,-3.6016,-3.6016,-3.6016,-3.6016,0.0,0.0,0.0,0.0,0.0,0.0,0.0,0.0,0.0,0.0,0.0,0.0,0.0,0.0,0.0,0.0,0.0,0.0,0.0,0.0,0.0,0.0,0.0,0.0,0.0,0.0,0.0,0.0,0.0,0.0,0.0,-3.9902,-3.9588,-3.9272,-3.8877,-3.8719,-3.8719,-3.8877,-3.8798,-3.8798,-3.8956,-3.9272,-3.943,-3.943,-3.9745,-4.0059,-4.0353,-4.0353,-4.0353,-4.0353,-3.9981,-4.0294,-4.086,-4.0588,-4.0763,-4.1094,-4.1172,-4.1172,-4.1094,-4.0763,-4.0919,-4.1094,-4.0372,-4.0451,-4.0763,-4.0997,-4.0529,-4.0137,-4.0588,-4.0372,-4.004,-3.9945,-3.9504,-3.9162,-3.9144,-3.8421,-3.7742,-3.7483,-3.7052,-3.6586,-3.6256,-3.6201,-3.6201,-3.6201,-3.6201,-3.6201,-3.6201,-3.6201,-3.6201,-3.6201,-3.6201,-3.6201,-3.6201,-3.6201,-3.6201,-3.6201,-3.6201,-3.6201,-3.6201,-3.6201,-3.6201,-3.6201,-3.6109,-3.5907,-3.5614,-3.5119,-3.4715,-3.6016,-3.6016,-3.6016,-3.6016,-3.6016,0.0,-3.6016,-3.6016,0.0,-3.6016,0.0,0.0,0.0,0.0,0.0,0.0,0.0,0.0,0.0,0.0,0.0,0.0,0.0,0.0,0.0,0.0,0.0,0.0,0.0,0.0,0.0,0.0,0.0,0.0,0.0,0.0,-3.9902,-3.9902,-3.9823,-3.9823,-3.8956,-3.9035,-3.9823,-3.943,-3.943,-3.9823,-3.9823,-3.9823,-3.9823,-3.9902,-3.9902,-3.9902,-3.9902,-3.9902,-3.9902,-3.9902,-3.9902,-4.0059,-4.0353,-4.0509,-4.0588,-4.1094,-4.1172,-4.1172,-4.1172,-4.1172,-4.1172,-4.1094,-4.1094,-4.1094,-4.0666,-4.0509,-4.0588,-4.1016,-4.0763,-4.0316,-3.9951,-3.9296,-3.87,-3.8766,-3.7763,-3.7012,-3.7333,-3.6793,-3.6237,-3.6219,-3.6201,-3.6201,-3.6201,-3.6201,-3.6201,-3.6201,-3.6201,-3.6201,-3.6201,-3.6201,-3.6201,-3.6201,-3.6201,-3.6201,-3.6201,-3.6201,-3.6201,-3.6201,-3.6201,-3.6201,-3.6201,-3.5834,-3.565,-3.5595,-3.4807,-3.444,-3.6016,-3.6016,-3.6016,-3.6016,-3.6016,0.0,0.0,-3.6016,-3.6016,-3.6016,-3.6016,0.0,0.0,0.0,0.0,0.0,0.0,0.0,0.0,0.0,0.0,0.0,0.0,0.0,0.0,0.0,0.0,0.0,0.0,0.0,0.0,0.0,0.0,0.0,0.0,0.0,0.0,-3.9114,-3.9114,-3.9114,-3.9035,-3.9035,-3.9114,-3.9272,-3.9351,-3.9509,-3.9509,-3.9666,-3.9823,-3.9351,-3.943,-3.9902,-3.9902,-4.0216,-4.0626,-4.0059,-4.0235,-4.0704,-4.0509,-4.0666,-4.0919,-4.1172,-4.1172,-4.1172,-4.1172,-4.1172,-4.1172,-4.1172,-4.0997,-4.0744,-4.0588,-4.0509,-4.0452,-4.0105,-3.9892,-3.9546,-3.8916,-3.8538,-3.8217,-3.7896,-3.7315,-3.6812,-3.7036,-3.6534,-3.6201,-3.6201,-3.6201,-3.6201,-3.6201,-3.6201,-3.6201,-3.6201,-3.6201,-3.6201,-3.6201,-3.6201,-3.6201,-3.6201,-3.6201,-3.6201,-3.6201,-3.6201,-3.6201,-3.6201,-3.6201,-3.6091,-3.5852,-3.5687,-3.5357,-3.4862,-3.455,-3.4275,-3.6016,-3.6016,-3.6016,-3.6016,0.0,0.0,-3.6016,-3.6016,-3.6016,-3.6016,-3.6133,0.0,0.0,0.0,0.0,0.0,0.0,0.0,0.0,0.0,0.0,0.0,0.0,0.0,0.0,0.0,0.0,0.0,0.0,0.0,0.0,0.0,0.0,0.0,0.0,0.0,-3.8798,-3.8956,-3.8956,-3.8798,-3.9114,-3.9035,-3.864,-3.8956,-3.9114,-3.9114,-3.9114,-3.9272,-3.943,-3.8877,-3.9035,-3.9745,-3.9823,-4.0216,-4.0704,-4.0137,-4.0313,-4.0782,-4.0588,-4.0685,-4.0997,-4.1172,-4.1172,-4.1172,-4.1172,-4.1172,-4.1133,-4.0841,-4.0569,-4.0201,-3.9853,-3.991,-3.9969,-3.924,-3.9146,-3.8955,-3.8254,-3.801,-3.7896,-3.7465,-3.7073,-3.6812,-3.6812,-3.6442,-3.6201,-3.6201,-3.6201,-3.6201,-3.6201,-3.6201,-3.6201,-3.6201,-3.6201,-3.6201,-3.6201,-3.6201,-3.6201,-3.6201,-3.6201,-3.6201,-3.6201,-3.6201,-3.6201,-3.6201,-3.6091,-3.5889,-3.5614,-3.5357,-3.4954,-3.4403,-3.4275,-3.4073,-3.6016,-3.6016,-3.6016,0.0,0.0,0.0,-3.6016,-3.6016,-3.6016,-3.6035,0.0,0.0,0.0,0.0,0.0,0.0,0.0,0.0,0.0,0.0,0.0,0.0,0.0,0.0,0.0,0.0,0.0,0.0,0.0,0.0,0.0,0.0,0.0,0.0,0.0,0.0,-3.9254,-3.9647,-3.9647,-3.9254,-3.9254,-3.9017,-3.856,-3.856,-3.864,-3.864,-3.864,-3.864,-3.864,-3.864,-3.8877,-3.9351,-3.9745,-3.9902,-3.9902,-3.9902,-3.9902,-3.9981,-4.0353,-4.0509,-4.0588,-4.1016,-4.1172,-4.1172,-4.1172,-4.1172,-4.0996,-4.0164,-3.9875,-3.9644,-3.8402,-3.8725,-3.9144,-3.8823,-3.8728,-3.852,-3.8103,-3.8008,-3.7895,-3.7497,-3.7107,-3.6812,-3.6812,-3.6442,-3.6201,-3.6201,-3.6201,-3.6201,-3.6201,-3.6201,-3.6201,-3.6201,-3.6201,-3.6201,-3.6201,-3.6201,-3.6201,-3.6201,-3.6201,-3.6201,-3.6201,-3.6201,-3.6201,-3.6201,-3.5815,-3.5614,-3.5595,-3.4788,-3.4403,-3.4385,-3.4,-3.3817,-3.6016,-3.6016,0.0,0.0,0.0,0.0,0.0,0.0,0.0,0.0,0.0,0.0,0.0,0.0,0.0,0.0,0.0,0.0,0.0,0.0,0.0,0.0,0.0,0.0,0.0,0.0,0.0,0.0,0.0,0.0,0.0,0.0,0.0,0.0,0.0,0.0,-3.7933,-3.8087,-3.8087,-3.7933,-3.7933,-3.8168,-3.864,-3.8956,-3.9114,-3.9114,-3.9114,-3.9272,-3.9509,-3.9193,-3.9193,-3.9351,-3.943,-3.9666,-3.9902,-3.9902,-3.9902,-3.9981,-4.0353,-4.0275,-4.0137,-4.0607,-4.0529,-4.0237,-3.9931,-3.9835,-3.9759,-3.9185,-3.8841,-3.846,-3.7877,-3.7839,-3.7895,-3.7764,-3.7821,-3.7709,-3.7612,-3.7592,-3.7554,-3.744,-3.7107,-3.6812,-3.6812,-3.6442,-3.6201,-3.6201,-3.6201,-3.6201,-3.6201,-3.6201,-3.6201,-3.6201,-3.6201,-3.6201,-3.6201,-3.6201,-3.6201,-3.6201,-3.6201,-3.6201,-3.6201,-3.6201,-3.6072,-3.5797,-3.5669,-3.5339,-3.477,-3.4513,-3.4257,-3.3982,-3.3872,-3.3817,-3.6016,0.0,0.0,0.0,0.0,0.0,0.0,0.0,0.0,0.0,0.0,0.0,0.0,0.0,0.0,0.0,0.0,0.0,0.0,0.0,0.0,0.0,0.0,0.0,0.0,0.0,0.0,0.0,0.0,0.0,0.0,0.0,0.0,0.0,0.0,0.0,-3.7429,-3.7429,-3.7429,-3.7429,-3.7429,-3.7686,-3.8163,-3.8545,-3.8776,-3.8795,-3.8961,-3.9193,-3.9351,-3.9351,-3.9272,-3.9351,-3.9509,-3.9666,-3.9902,-3.9902,-3.9902,-3.9902,-4.0216,-4.0023,-3.9734,-3.9949,-3.9756,-3.9353,-3.9184,-3.9165,-3.9166,-3.8595,-3.833,-3.8104,-3.7446,-3.7166,-3.7166,-3.7166,-3.7241,-3.7408,-3.7385,-3.7421,-3.7329,-3.7181,-3.696,-3.6738,-3.659,-3.6349,-3.6201,-3.6201,-3.6201,-3.6201,-3.6201,-3.6201,-3.6201,-3.6201,-3.6201,-3.6201,-3.6201,-3.6201,-3.6201,-3.6201,-3.6201,-3.6146,-3.5981,-3.5981,-3.5852,-3.5632,-3.5302,-3.4899,-3.4403,-3.4238,-3.4037,-3.3817,-3.3817,-3.3817,0.0,0.0,0.0,0.0,0.0,0.0,0.0,0.0,0.0,0.0,0.0,0.0,0.0,0.0,0.0,0.0,0.0,0.0,0.0,0.0,0.0,0.0,0.0,0.0,0.0,0.0,0.0,0.0,0.0,0.0,0.0,0.0,0.0,0.0,0.0,0.0,-3.7301,-3.7319,-3.7319,0.0,-3.7319,-3.7319,-3.7338,-3.7759,-3.7961,-3.7979,-3.8365,-3.8451,-3.853,-3.8924,-3.916,-3.916,-3.9553,-3.9632,-3.9632,-3.9632,-3.9632,-3.971,-3.9788,-3.9542,-3.9201,-3.9278,-3.9032,-3.8652,-3.869,-3.8899,-3.8974,-3.8159,-3.812,-3.8099,-3.7053,-3.6812,-3.6812,-3.6812,-3.7107,-3.7329,-3.7402,-3.7329,-3.7255,-3.6886,-3.6812,-3.6664,-3.6275,-3.6201,-3.6201,-3.6201,-3.6201,-3.6201,-3.6201,-3.6201,-3.6201,-3.6201,-3.6201,-3.6201,-3.6201,-3.6201,-3.6201,-3.6201,-3.6182,-3.5999,-3.5632,-3.5614,-3.5577,-3.5504,-3.477,-3.4385,-3.4348,-3.3982,-3.3817,-3.3817,-3.3817,-3.3817,0.0,0.0,0.0,0.0,0.0,0.0,0.0,0.0,0.0,0.0,0.0,0.0,0.0,0.0,0.0,0.0,0.0,0.0,0.0,0.0,0.0,0.0,0.0,0.0,0.0,0.0,0.0,0.0,0.0,0.0,0.0,0.0,0.0,0.0,0.0,-3.6459,-3.6476,-3.6476,-3.6476,0.0,-3.6476,-3.6476,-3.6494,-3.7228,-3.7558,-3.7558,-3.7649,-3.7686,-3.7686,-3.7763,-3.7841,-3.7841,-3.7918,-3.7918,-3.7918,-3.7918,-3.7918,-3.8072,-3.8687,-3.8631,-3.8402,-3.9013,-3.8956,-3.8519,-3.8254,-3.8009,-3.769,-3.7203,-3.6868,-3.6701,-3.6386,-3.659,-3.6812,-3.6812,-3.6886,-3.7034,-3.7329,-3.7181,-3.6886,-3.6812,-3.659,-3.6275,-3.6201,-3.6201,-3.6201,-3.6201,-3.6201,-3.6201,-3.6201,-3.6201,-3.6201,-3.6201,-3.6201,-3.6201,-3.6201,-3.6201,-3.6201,-3.6201,-3.5925,-3.5705,-3.5632,-3.5614,-3.532,-3.4678,-3.4495,-3.4257,-3.3945,-3.3853,-3.3817,-3.3817,-3.3817,-3.3817,0.0,0.0,0.0,0.0,0.0,0.0,0.0,0.0,0.0,0.0,0.0,0.0,0.0,0.0,0.0,0.0,0.0,0.0,0.0,0.0,0.0,0.0,0.0,0.0,0.0,0.0,0.0,0.0,0.0,0.0,0.0,0.0,0.0,0.0,-3.6516,-3.6349,-3.6201,-3.6201,-3.6201,-3.6201,-3.6201,-3.6201,-3.6237,-3.6861,-3.7246,-3.7429,-3.7429,-3.7429,-3.7429,-3.7429,-3.7429,-3.7429,-3.7429,-3.7429,-3.7429,-3.7429,-3.7429,-3.7429,-3.7889,-3.7912,-3.782,-3.8179,-3.8066,-3.7709,-3.7483,-3.7278,-3.7073,-3.6868,-3.6812,-3.6738,-3.6516,-3.6664,-3.6738,-3.659,-3.6664,-3.6886,-3.7034,-3.6812,-3.6497,-3.6497,-3.6349,-3.6201,-3.6201,-3.6201,-3.6201,-3.6201,-3.6201,-3.6201,-3.6201,-3.6201,-3.6201,-3.6201,-3.6201,-3.6201,-3.6201,-3.6201,-3.6127,-3.5944,-3.5724,-3.5449,-3.5045,-3.5045,-3.4844,-3.4403,-3.422,-3.4018,-3.3817,-3.3817,-3.3817,-3.3817,-3.3817,-3.3817,0.0,0.0,0.0,0.0,0.0,0.0,0.0,0.0,0.0,0.0,0.0,0.0,0.0,0.0,0.0,0.0,0.0,0.0,0.0,0.0,0.0,0.0,0.0,0.0,0.0,0.0,0.0,0.0,0.0,0.0,0.0,0.0,-3.6664,-3.6275,-3.659,-3.6516,-3.6201,-3.6201,-3.6201,-3.6201,-3.6201,-3.6201,-3.6219,-3.6567,-3.6916,-3.7209,-3.7209,-3.7209,-3.7209,-3.7209,-3.7209,-3.7209,-3.7209,-3.7209,-3.7209,-3.7209,-3.7209,-3.7209,-3.7286,-3.7292,-3.7297,-3.739,-3.7166,-3.6886,-3.6886,-3.6886,-3.6812,-3.6812,-3.696,-3.7107,-3.6812,-3.6738,-3.659,-3.6275,-3.6423,-3.6738,-3.6738,-3.6423,-3.6201,-3.6201,-3.6201,-3.6201,-3.6201,-3.6201,-3.6201,-3.6201,-3.6201,-3.6201,-3.6201,-3.6201,-3.6201,-3.6201,-3.6201,-3.6201,-3.6201,-3.6146,-3.5962,-3.5632,-3.5485,-3.51,-3.4422,-3.433,-3.4293,-3.4293,-3.3982,-3.3817,-3.3817,-3.3817,-3.3817,-3.3817,-3.3817,-3.3817,0.0,0.0,0.0,0.0,0.0,0.0,0.0,0.0,0.0,0.0,0.0,0.0,0.0,0.0,0.0,0.0,0.0,0.0,0.0,0.0,0.0,0.0,0.0,0.0,0.0,0.0,0.0,0.0,0.0,0.0,0.0,-3.696,-3.6812,-3.6738,-3.6423,-3.6275,-3.6201,-3.6201,-3.6201,-3.6201,-3.6201,-3.6201,-3.6201,-3.6274,-3.6311,-3.6366,-3.6366,-3.6366,-3.6366,-3.6366,-3.6366,-3.6366,-3.6366,-3.6366,-3.6366,-3.6366,-3.6366,-3.644,-3.6757,-3.6868,-3.6961,-3.7275,-3.7385,-3.7329,-3.7329,-3.7107,-3.6812,-3.6812,-3.659,-3.6367,-3.6275,-3.6275,-3.6293,-3.6201,-3.6201,-3.6275,-3.6275,-3.6201,-3.6201,-3.6201,-3.6201,-3.6201,-3.6201,-3.6201,-3.6201,-3.6201,-3.6201,-3.6201,-3.6201,-3.6201,-3.6201,-3.6201,-3.6201,-3.6201,-3.6201,-3.5889,-3.5669,-3.5632,-3.4954,-3.4513,-3.4403,-3.4073,-3.389,-3.389,-3.3835,-3.3817,-3.3817,-3.3817,-3.3817,-3.3817,-3.3817,-3.3817,0.0,0.0,0.0,0.0,0.0,0.0,0.0,0.0,0.0,0.0,0.0,0.0,0.0,0.0,0.0,0.0,0.0,0.0,0.0,0.0,0.0,0.0,0.0,0.0,0.0,0.0,0.0,0.0,0.0,0.0,-3.7107,-3.6664,-3.6442,-3.6442,-3.6275,-3.6201,-3.6201,-3.6201,-3.6201,-3.6201,-3.6201,-3.6201,-3.6201,-3.6201,-3.6201,-3.6201,-3.6201,-3.6201,-3.6201,-3.6201,-3.6201,-3.6201,-3.6201,-3.6201,-3.6201,-3.6201,-3.6201,-3.6201,-3.6442,-3.659,-3.6812,-3.7034,-3.7034,-3.7034,-3.7034,-3.6812,-3.6442,-3.6442,-3.6349,-3.6201,-3.6201,-3.6201,-3.6201,-3.6201,-3.6201,-3.6201,-3.6201,-3.6201,-3.6201,-3.6201,-3.6201,-3.6201,-3.6201,-3.6201,-3.6201,-3.6201,-3.6201,-3.6127,-3.5907,-3.587,-3.587,-3.587,-3.5669,-3.5632,-3.5852,-3.5522,-3.5192,-3.4954,-3.4605,-3.4293,-3.4073,-3.3908,-3.3817,-3.3817,-3.3817,-3.3817,-3.3817,-3.3817,-3.3817,-3.3817,-3.3817,-3.3817,0.0,0.0,0.0,0.0,0.0,0.0,0.0,0.0,0.0,0.0,0.0,0.0,0.0,0.0,0.0,0.0,0.0,0.0,0.0,0.0,0.0,0.0,0.0,0.0,0.0,0.0,0.0,0.0,0.0,0.0,-3.6664,-3.6349,-3.6201,-3.6201,-3.6201,-3.6201,-3.6201,-3.6201,-3.6201,-3.6201,-3.6201,-3.6201,-3.6201,-3.6201,-3.6201,-3.6201,-3.6201,-3.6201,-3.6201,-3.6201,-3.6201,-3.6201,-3.6201,-3.6201,-3.6201,-3.6201,-3.6201,-3.6201,-3.6201,-3.6442,-3.6664,-3.6664,-3.6664,-3.6664,-3.6664,-3.6442,-3.6201,-3.6201,-3.6201,-3.6201,-3.6201,-3.6201,-3.6201,-3.6201,-3.6201,-3.6201,-3.6201,-3.6201,-3.6201,-3.6201,-3.6201,-3.6201,-3.6201,-3.6201,-3.6201,-3.6201,-3.6127,-3.5944,-3.565,-3.554,-3.5467,-3.5467,-3.521,-3.5155,-3.5449,-3.51,-3.4733,-3.4422,-3.4312,-3.411,-3.3817,-3.3817,-3.3817,-3.3817,-3.3817,-3.3817,-3.3817,-3.3817,-3.3817,-3.3817,-3.3817,-3.3817,0.0,0.0,0.0,0.0,0.0,0.0,0.0,0.0,0.0,0.0,0.0,0.0,0.0,0.0,0.0,0.0,0.0,0.0,0.0,0.0,0.0,0.0,0.0,0.0,0.0,0.0,0.0,0.0,0.0,0.0,-3.6201,-3.6201,-3.6201,-3.6201,-3.6201,-3.6201,-3.6201,-3.6201,-3.6201,-3.6201,-3.6201,-3.6201,-3.6201,-3.6201,-3.6201,-3.6201,-3.6201,-3.6201,-3.6201,-3.6201,-3.6201,-3.6201,-3.6201,-3.6201,-3.6201,-3.6201,-3.6201,-3.6201,-3.6201,-3.6201,-3.6201,-3.6201,-3.6201,-3.6201,-3.6201,-3.6201,-3.6201,-3.6201,-3.6201,-3.6201,-3.6201,-3.6201,-3.6201,-3.6201,-3.6201,-3.6201,-3.6201,-3.6201,-3.6201,-3.6201,-3.6201,-3.6201,-3.6201,-3.6201,-3.6201,-3.6201,-3.5889,-3.5632,-3.5614,-3.5302,-3.5064,-3.5064,-3.5045,-3.5045,-3.5064,-3.4678,-3.4422,-3.4403,-3.4055,-3.3835,-3.3817,-3.3817,-3.3817,-3.3817,-3.3817,-3.3817,-3.3817,-3.3817,-3.3817,-3.3817,-3.3817,-3.3817,0.0,0.0,0.0,0.0,0.0,0.0,0.0,0.0,0.0,0.0,0.0,0.0,0.0,0.0,0.0,0.0,0.0,0.0,0.0,0.0,0.0,0.0,0.0,0.0,0.0,0.0,0.0,0.0,0.0,0.0,-3.659,-3.6349,-3.6201,-3.6201,-3.6201,-3.6201,-3.6201,-3.6201,-3.6201,-3.6201,-3.6201,-3.6201,-3.6201,-3.6201,-3.6201,-3.6201,-3.6201,-3.6201,-3.6201,-3.6201,-3.6201,-3.6201,-3.6201,-3.6201,-3.6201,-3.6201,-3.6201,-3.6201,-3.6201,-3.6201,-3.6201,-3.6201,-3.6201,-3.6201,-3.6201,-3.6201,-3.6201,-3.6201,-3.6201,-3.6201,-3.6201,-3.6201,-3.6201,-3.6201,-3.6201,-3.6201,-3.6201,-3.6201,-3.6201,-3.6201,-3.6201,-3.6201,-3.6201,-3.6201,-3.6127,-3.587,-3.5705,-3.543,-3.4899,-3.4715,-3.4623,-3.4623,-3.4403,-3.4348,-3.4605,-3.4257,-3.4018,-3.4018,-3.389,-3.3817,-3.3817,-3.3817,-3.3817,-3.3817,-3.3817,-3.3817,-3.3817,-3.3817,-3.3817,-3.3817,-3.3817,-3.3817,-3.6016,0.0,0.0,0.0,0.0,0.0,0.0,0.0,0.0,0.0,0.0,0.0,0.0,0.0,0.0,0.0,0.0,0.0,0.0,0.0,0.0,0.0,0.0,0.0,0.0,0.0,0.0,0.0,0.0,0.0,-3.659,-3.6367,-3.6201,-3.6201,-3.6201,-3.6201,-3.6201,-3.6201,-3.6201,-3.6201,-3.6201,-3.6201,-3.6201,-3.6201,-3.6201,-3.6201,-3.6201,-3.6201,-3.6201,-3.6201,-3.6201,-3.6201,-3.6201,-3.6201,-3.6201,-3.6201,-3.6201,-3.6201,-3.6201,-3.6201,-3.6201,-3.6201,-3.6201,-3.6201,-3.6201,-3.6201,-3.6201,-3.6201,-3.6201,-3.6201,-3.6201,-3.6201,-3.6201,-3.6201,-3.6201,-3.6201,-3.6201,-3.6201,-3.6201,-3.6201,-3.6201,-3.6201,-3.6201,-3.6091,-3.5925,-3.565,-3.5394,-3.5009,-3.4477,-3.4275,-3.4202,-3.4202,-3.3963,-3.3927,-3.4183,-3.3963,-3.3817,-3.3817,-3.3817,-3.3817,-3.3817,-3.3817,-3.3817,-3.3817,-3.3817,-3.3817,-3.3817,-3.3817,-3.3817,-3.3817,-3.3817,-3.3817,0.0,0.0,0.0,0.0,0.0,0.0,0.0,0.0,0.0,0.0,0.0,0.0,0.0,0.0,0.0,0.0,0.0,0.0,0.0,0.0,0.0,0.0,0.0,0.0,0.0,0.0,0.0,0.0,0.0,-3.6182,-3.6182,-3.6201,-3.6201,-3.6201,-3.6201,-3.6201,-3.6201,-3.6201,-3.6201,-3.6201,-3.6201,-3.6201,-3.6201,-3.6201,-3.6201,-3.6201,-3.6201,-3.6201,-3.6201,-3.6201,-3.6201,-3.6201,-3.6201,-3.6201,-3.6201,-3.6201,-3.6201,-3.6201,-3.6201,-3.6201,-3.6201,-3.6201,-3.6201,-3.6201,-3.6201,-3.6201,-3.6201,-3.6201,-3.6201,-3.6201,-3.6201,-3.6201,-3.6201,-3.6201,-3.6201,-3.6201,-3.6201,-3.6201,-3.6201,-3.6201,-3.6201,-3.6182,-3.6182,-3.587,-3.5595,-3.5595,-3.4917,-3.4403,-3.4385,-3.4055,-3.3817,-3.3817,-3.3817,-3.3817,-3.3817,-3.3817,-3.3817,-3.3817,-3.3817,-3.3817,-3.3817,-3.3817,-3.3817,-3.3817,-3.3817,-3.3817,-3.3817,-3.3817,-3.3817,-3.3817,-3.3817,-3.3817,-3.6016,0.0,0.0,0.0,0.0,0.0,0.0,0.0,0.0,0.0,0.0,0.0,0.0,0.0,0.0,0.0,0.0,0.0,0.0,0.0,0.0,0.0,0.0,0.0,0.0,0.0,0.0,0.0,-3.5687,-3.5779,-3.5779,-3.6054,-3.6201,-3.6201,-3.6201,-3.6201,-3.6201,-3.6201,-3.6201,-3.6201,-3.6201,-3.6201,-3.6201,-3.6201,-3.6201,-3.6201,-3.6201,-3.6201,-3.6201,-3.6201,-3.6201,-3.6201,-3.6201,-3.6201,-3.6201,-3.6201,-3.6201,-3.6201,-3.6201,-3.6201,-3.6201,-3.6201,-3.6201,-3.6201,-3.6201,-3.6201,-3.6201,-3.6201,-3.6201,-3.6201,-3.6201,-3.6201,-3.6201,-3.6201,-3.6201,-3.6201,-3.6201,-3.5981,-3.587,-3.6146,-3.5981,-3.5779,-3.5779,-3.5449,-3.51,-3.4788,-3.455,-3.4293,-3.4018,-3.389,-3.3817,-3.3817,-3.3817,-3.3817,-3.3817,-3.3817,-3.3817,-3.3817,-3.3817,-3.3817,-3.3817,-3.3817,-3.3817,-3.3817,-3.3817,-3.3817,-3.3817,-3.3817,-3.3817,-3.3817,-3.3817,-3.3817,-3.6016,-3.6016,-3.6016,-3.6016,0.0,0.0,0.0,0.0,0.0,0.0,0.0,0.0,0.0,0.0,0.0,0.0,0.0,0.0,0.0,0.0,0.0,0.0,0.0,0.0,0.0,0.0,0.0,0.0,-3.5247,-3.5375,-3.5375,-3.5742,-3.5962,-3.5962,-3.6127,-3.6201,-3.6201,-3.6201,-3.6201,-3.6201,-3.6201,-3.6201,-3.6201,-3.6201,-3.6201,-3.6201,-3.6201,-3.6201,-3.6201,-3.6201,-3.6201,-3.6201,-3.6201,-3.6201,-3.6201,-3.6201,-3.6201,-3.6201,-3.6201,-3.6201,-3.6201,-3.6201,-3.6201,-3.6201,-3.6201,-3.6201,-3.6201,-3.6201,-3.6201,-3.6201,-3.6201,-3.6201,-3.6201,-3.6201,-3.6201,-3.6164,-3.5999,-3.5779,-3.5687,-3.5925,-3.565,-3.5375,-3.5375,-3.5045,-3.4678,-3.444,-3.4257,-3.4073,-3.3853,-3.3817,-3.3817,-3.3817,-3.3817,-3.3817,-3.3817,-3.3817,-3.3817,-3.3817,-3.3817,-3.3817,-3.3817,-3.3817,-3.3817,-3.3817,-3.3817,-3.3817,-3.3817,-3.3817,-3.3817,-3.3817,-3.3817,-3.3817,-3.6016,-3.6016,-3.6016,-3.6016,-3.6016,0.0,-3.6016,-3.6016,0.0,0.0,0.0,0.0,0.0,0.0,0.0,0.0,0.0,0.0,0.0,0.0,0.0,0.0,0.0,0.0,0.0,0.0,0.0,-3.4899,-3.4935,-3.499,-3.5027,-3.5357,-3.5559,-3.5559,-3.5925,-3.6146,-3.6146,-3.6182,-3.6201,-3.6201,-3.6201,-3.6201,-3.6201,-3.6201,-3.6201,-3.6201,-3.6201,-3.6201,-3.6201,-3.6201,-3.6201,-3.6201,-3.6201,-3.6201,-3.6201,-3.6201,-3.6201,-3.6201,-3.6201,-3.6201,-3.6201,-3.6201,-3.6201,-3.6201,-3.6201,-3.6201,-3.6201,-3.6201,-3.6201,-3.6201,-3.6201,-3.6201,-3.6201,-3.6146,-3.6146,-3.6036,-3.5632,-3.5522,-3.5485,-3.5485,-3.521,-3.4954,-3.4954,-3.4623,-3.433,-3.433,-3.4037,-3.3817,-3.3817,-3.3817,-3.3817,-3.3817,-3.3817,-3.3817,-3.3817,-3.3817,-3.3817,-3.3817,-3.3817,-3.3817,-3.3817,-3.3817,-3.3817,-3.3817,-3.3817,-3.3817,-3.3817,-3.3817,-3.3817,-3.3817,-3.3817,-3.3817,-3.6016,-3.6016,-3.6016,-3.6016,-3.6016,0.0,-3.6016,-3.6016,0.0,0.0,0.0,0.0,0.0,0.0,0.0,0.0,0.0,0.0,0.0,0.0,0.0,0.0,0.0,0.0,0.0,0.0,-3.4404,-3.4055,-3.4348,-3.4678,-3.5009,-3.51,-3.5137,-3.5137,-3.5522,-3.5724,-3.5724,-3.6054,-3.6201,-3.6201,-3.6201,-3.6201,-3.6201,-3.6201,-3.6201,-3.6201,-3.6201,-3.6201,-3.6201,-3.6201,-3.6201,-3.6201,-3.6201,-3.6201,-3.6201,-3.6201,-3.6201,-3.6201,-3.6201,-3.6201,-3.6201,-3.6201,-3.6201,-3.6201,-3.6201,-3.6201,-3.6201,-3.6201,-3.6201,-3.6201,-3.6201,-3.6201,-3.6127,-3.5815,-3.5724,-3.5632,-3.5229,-3.488,-3.4642,-3.4642,-3.4568,-3.4532,-3.4532,-3.4183,-3.3927,-3.3927,-3.3853,-3.3817,-3.3817,-3.3817,-3.3817,-3.3817,-3.3817,-3.3817,-3.3817,-3.3817,-3.3817,-3.3817,-3.3817,-3.3817,-3.3817,-3.3817,-3.3817,-3.3817,-3.3817,-3.3817,-3.3817,-3.3817,-3.3817,-3.3817,-3.3817,-3.3817,0.0,0.0,0.0,-3.6016,0.0,0.0,0.0,-3.6016,0.0,0.0,0.0,0.0,0.0,0.0,0.0,0.0,0.0,0.0,0.0,0.0,0.0,0.0,0.0,0.0,0.0,0.0,-3.4024,-3.3817,-3.4,-3.4202,-3.4403,-3.4605,-3.4715,-3.4715,-3.5119,-3.532,-3.532,-3.5522,-3.5724,-3.5907,-3.5907,-3.6017,-3.6201,-3.6201,-3.6201,-3.6201,-3.6201,-3.6201,-3.6201,-3.6201,-3.6201,-3.6201,-3.6201,-3.6201,-3.6201,-3.6201,-3.6201,-3.6201,-3.6201,-3.6201,-3.6201,-3.6201,-3.6201,-3.6201,-3.6201,-3.6201,-3.6201,-3.6201,-3.6201,-3.6164,-3.5962,-3.5907,-3.5815,-3.543,-3.532,-3.521,-3.4807,-3.455,-3.4348,-3.4147,-3.411,-3.411,-3.411,-3.3945,-3.3817,-3.3817,-3.3817,-3.3817,-3.3817,-3.3817,-3.3817,-3.3817,-3.3817,-3.3817,-3.3817,-3.3817,-3.3817,-3.3817,-3.3817,-3.3817,-3.3817,-3.3817,-3.3817,-3.3817,-3.3817,-3.3817,-3.3817,-3.3817,-3.3817,-3.3817,-3.3817,-3.3817,0.0,0.0,0.0,0.0,0.0,-3.6016,0.0,0.0,0.0,0.0,0.0,0.0,0.0,0.0,0.0,0.0,0.0,0.0,0.0,0.0,0.0,0.0,0.0,0.0,0.0,0.0,-3.3817,-3.3817,-3.3817,-3.3817,-3.3817,-3.411,-3.4293,-3.4293,-3.4697,-3.4917,-3.4917,-3.499,-3.5192,-3.5504,-3.5504,-3.5669,-3.5981,-3.5981,-3.5981,-3.5981,-3.6054,-3.6091,-3.6109,-3.6182,-3.6201,-3.6201,-3.6201,-3.6201,-3.6201,-3.6201,-3.6201,-3.6201,-3.6201,-3.6201,-3.6201,-3.6201,-3.6201,-3.6201,-3.6201,-3.6201,-3.6201,-3.6201,-3.6146,-3.6017,-3.5705,-3.5559,-3.5412,-3.5009,-3.4917,-3.4788,-3.4385,-3.4293,-3.4202,-3.3872,-3.3817,-3.3817,-3.3817,-3.3817,-3.3817,-3.3817,-3.3817,-3.3817,-3.3817,-3.3817,-3.3817,-3.3817,-3.3817,-3.3817,-3.3817,-3.3817,-3.3817,-3.3817,-3.3817,-3.3817,-3.3817,-3.3817,-3.3817,-3.3817,-3.3817,-3.3817,-3.3817,-3.3817,-3.3817,-3.3817,-3.3817,-3.3817,0.0,0.0,0.0,0.0,-3.6016,0.0,0.0,0.0,0.0,0.0,0.0,0.0,0.0,0.0,0.0,0.0,0.0,0.0,0.0,0.0,0.0,0.0,0.0,0.0,0.0,0.0,0.0,-3.3817,-3.3817,-3.3817,-3.3817,-3.3853,-3.3872,-3.3872,-3.4275,-3.4477,-3.4477,-3.4844,-3.5045,-3.51,-3.51,-3.5119,-3.5174,-3.5174,-3.5174,-3.5192,-3.554,-3.5687,-3.5724,-3.6054,-3.6201,-3.6201,-3.6201,-3.6201,-3.6201,-3.6201,-3.6201,-3.6201,-3.6201,-3.6201,-3.6201,-3.6201,-3.6201,-3.6201,-3.6201,-3.6201,-3.6201,-3.6201,-3.5962,-3.5669,-3.5632,-3.5357,-3.499,-3.4568,-3.4477,-3.4367,-3.3963,-3.3872,-3.3872,-3.3817,-3.3817,-3.3817,-3.3817,-3.3817,-3.3817,-3.3817,-3.3817,-3.3817,-3.3817,-3.3817,-3.3817,-3.3817,-3.3817,-3.3817,-3.3817,-3.3817,-3.3817,-3.3817,-3.3817,-3.3817,-3.3817,-3.3817,-3.3817,-3.3817,-3.3817,-3.3817,-3.3817,-3.3817,-3.3817,-3.3817,-3.3817,-3.3817,0.0,0.0,0.0,0.0,0.0,0.0,-3.6016,0.0,-3.6016,0.0,0.0,0.0,0.0,0.0,0.0,0.0,0.0,0.0,0.0,0.0,0.0,0.0,0.0,0.0,0.0,0.0,0.0,0.0,0.0,-3.3817,-3.3817,-3.3817,-3.3817,-3.3817,-3.3982,-3.4055,-3.4055,-3.4238,-3.444,-3.466,-3.466,-3.4788,-3.5027,-3.5027,-3.5027,-3.5045,-3.521,-3.5284,-3.5284,-3.5449,-3.5522,-3.5522,-3.5522,-3.5797,-3.6201,-3.6201,-3.6201,-3.6201,-3.6201,-3.6201,-3.6201,-3.6201,-3.6201,-3.6201,-3.6201,-3.6054,-3.587,-3.587,-3.5577,-3.5229,-3.4972,-3.4788,-3.4568,-3.4147,-3.4055,-3.4018,-3.3853,-3.3817,-3.3817,-3.3817,-3.3817,-3.3817,-3.3817,-3.3817,-3.3817,-3.3817,-3.3817,-3.3817,-3.3817,-3.3817,-3.3817,-3.3817,-3.3817,-3.3817,-3.3817,-3.3817,-3.3817,-3.3817,-3.3817,-3.3817,-3.3817,-3.3817,-3.3817,-3.3817,-3.3817,-3.3817,-3.3817,-3.3817,-3.3817,-3.3817,-3.3817,-3.3817,-3.6055,0.0,0.0,0.0,0.0,0.0,0.0,0.0,0.0,0.0,0.0,0.0,0.0,0.0,-3.5976,-3.5859,0.0,0.0,0.0,0.0,0.0,0.0,0.0,0.0,0.0,0.0,0.0,0.0,-3.3817,0.0,-3.3817,-3.3817,-3.3817,-3.3817,-3.3817,-3.3817,-3.3817,-3.3817,-3.3963,-3.4238,-3.4238,-3.4403,-3.4697,-3.4697,-3.4697,-3.4697,-3.4807,-3.4862,-3.4862,-3.499,-3.5027,-3.5027,-3.5027,-3.5375,-3.5889,-3.5889,-3.5889,-3.5907,-3.6017,-3.6109,-3.6201,-3.6201,-3.6201,-3.6182,-3.6072,-3.5852,-3.5595,-3.5485,-3.5174,-3.4788,-3.4477,-3.433,-3.4165,-3.389,-3.3817,-3.3817,-3.3817,-3.3817,-3.3817,-3.3817,-3.3817,-3.3817,-3.3817,-3.3817,-3.3817,-3.3817,-3.3817,-3.3817,-3.3817,-3.3817,-3.3817,-3.3817,-3.3817,-3.3817,-3.3817,-3.3817,-3.3817,-3.3817,-3.3817,-3.3817,-3.3817,-3.3817,-3.3817,-3.3817,-3.3817,-3.3817,-3.3817,-3.3817,-3.3817,-3.3817,-3.3817,-3.3817,0.0,0.0,0.0,-3.6016,0.0,0.0,0.0,0.0,-3.6016,0.0,0.0,0.0,0.0,-3.6016,-3.5879,-3.5488,-3.5762,0.0,0.0,0.0,0.0,0.0,0.0,0.0,0.0,0.0,0.0,0.0,-3.3817,0.0,-3.3817,-3.3817,-3.3817,-3.3817,-3.3817,-3.3817,-3.3817,-3.3817,-3.3817,-3.3835,-3.3835,-3.3835,-3.3853,-3.3853,-3.3853,-3.3872,-3.4257,-3.4422,-3.4458,-3.4862,-3.5027,-3.5027,-3.5027,-3.5045,-3.5064,-3.5064,-3.5064,-3.5119,-3.5504,-3.5889,-3.6201,-3.6201,-3.6201,-3.6146,-3.576,-3.5632,-3.554,-3.5155,-3.4752,-3.4422,-3.4403,-3.411,-3.3835,-3.3817,-3.3817,-3.3817,-3.3817,-3.3817,-3.3817,-3.3817,-3.3817,-3.3817,-3.3817,-3.3817,-3.3817,-3.3817,-3.3817,-3.3817,-3.3817,-3.3817,-3.3817,-3.3817,-3.3817,-3.3817,-3.3817,-3.3817,-3.3817,-3.3817,-3.3817,-3.3817,-3.3817,-3.3817,-3.3817,-3.3817,-3.3817,-3.3817,-3.3817,-3.3817,-3.3817,-3.3817,-3.3817,-3.3817,0.0,0.0,-3.6875,-3.6875,0.0,0.0,0.0,0.0,0.0,0.0,0.0,0.0,0.0,-3.6016,-3.5976,-3.584,-3.5937,-3.5753,0.0,0.0,0.0,0.0,0.0,0.0,0.0,0.0,0.0,-3.3817,-3.3817,-3.3817,0.0,-3.3817,-3.3817,-3.3817,-3.3817,-3.3817,-3.3817,-3.3817,-3.3817,-3.3817,-3.3817,-3.3817,-3.3817,-3.3817,-3.3817,-3.3817,-3.3945,-3.4018,-3.4018,-3.4165,-3.422,-3.422,-3.422,-3.422,-3.4293,-3.4825,-3.5027,-3.5045,-3.5192,-3.532,-3.543,-3.543,-3.543,-3.5412,-3.5265,-3.5027,-3.4788,-3.466,-3.433,-3.4018,-3.4018,-3.3908,-3.3817,-3.3817,-3.3817,-3.3817,-3.3817,-3.3817,-3.3817,-3.3817,-3.3817,-3.3817,-3.3817,-3.3817,-3.3817,-3.3817,-3.3817,-3.3817,-3.3817,-3.3817,-3.3817,-3.3817,-3.3817,-3.3817,-3.3817,-3.3817,-3.3817,-3.3817,-3.3817,-3.3817,-3.3817,-3.3817,-3.3817,-3.3817,-3.3817,-3.3817,-3.3817,-3.3817,-3.3817,-3.3817,-3.3817,-3.3817,-3.7344,-3.7305,0.0,-3.7305,-3.709,0.0,-3.6894,0.0,0.0,0.0,0.0,0.0,0.0,-3.6133,-3.6016,-3.6016,-3.5879,-3.5538,0.0,-3.3811,0.0,0.0,0.0,0.0,0.0,0.0,-3.367,-3.3798,-3.3817,-3.3817,0.0,0.0,-3.3817,-3.3817,-3.3817,-3.3817,-3.3817,-3.3817,-3.3817,-3.3817,-3.3817,-3.3817,-3.3817,-3.3817,-3.3817,-3.3817,-3.3817,-3.3817,-3.3817,-3.3817,-3.3817,-3.3817,-3.3817,-3.3817,-3.3872,-3.4403,-3.4678,-3.4807,-3.4807,-3.4899,-3.5027,-3.5027,-3.5027,-3.5009,-3.4844,-3.4623,-3.4403,-3.4403,-3.411,-3.3853,-3.3982,-3.3927,-3.3817,-3.3817,-3.3817,-3.3817,-3.3817,-3.3817,-3.3817,-3.3817,-3.3817,-3.3817,-3.3817,-3.3817,-3.3817,-3.3817,-3.3817,-3.3817,-3.3817,-3.3817,-3.3817,-3.3817,-3.3817,-3.3817,-3.3817,-3.3817,-3.3817,-3.3817,-3.3817,-3.3817,-3.3817,-3.3817,-3.3872,-3.4018,-3.389,-3.389,-3.4018,-3.389,-3.3817,-3.3817,-3.3817,-3.3817]}]]